<?xml version="1.0" encoding="UTF-8" standalone="no" ?>
<gpx xmlns="http://www.topografix.com/GPX/1/1" xmlns:xsi="http://www.w3.org/2001/XMLSchema-instance" xsi:schemaLocation="http://www.topografix.com/GPX/1/1 http://www.topografix.com/GPX/1/1/gpx.xsd" version="1.1" creator="VisuGPX - https://www.visugpx.com">
  <metadata>
    <name>VTT - Rando Béthanie 2015</name>
    <desc><![CDATA[Rando bien sympa surtout la deuxième boucle avec des singles bien sympas et techniques.]]></desc>
  </metadata>
  <trk>
    <name><![CDATA[20-SEP-15 13:34:30]]></name>
    <trkseg>
      <trkpt lat="44.55808" lon="4.30785">
        <ele>214.51</ele>
        <time>2015-09-20T07:37:57Z</time>
      </trkpt>
      <trkpt lat="44.55809" lon="4.30781">
        <ele>214.51</ele>
        <time>2015-09-20T07:37:58Z</time>
      </trkpt>
      <trkpt lat="44.55812" lon="4.30776">
        <ele>215.47</ele>
        <time>2015-09-20T07:38:01Z</time>
      </trkpt>
      <trkpt lat="44.55818" lon="4.30754">
        <ele>217.88</ele>
        <time>2015-09-20T07:38:10Z</time>
      </trkpt>
      <trkpt lat="44.55821" lon="4.30725">
        <ele>220.76</ele>
        <time>2015-09-20T07:38:23Z</time>
      </trkpt>
      <trkpt lat="44.55821" lon="4.30711">
        <ele>221.72</ele>
        <time>2015-09-20T07:38:28Z</time>
      </trkpt>
      <trkpt lat="44.55818" lon="4.30701">
        <ele>222.68</ele>
        <time>2015-09-20T07:38:32Z</time>
      </trkpt>
      <trkpt lat="44.55809" lon="4.30675">
        <ele>226.05</ele>
        <time>2015-09-20T07:38:42Z</time>
      </trkpt>
      <trkpt lat="44.55805" lon="4.30671">
        <ele>226.53</ele>
        <time>2015-09-20T07:38:44Z</time>
      </trkpt>
      <trkpt lat="44.55784" lon="4.30644">
        <ele>229.89</ele>
        <time>2015-09-20T07:38:57Z</time>
      </trkpt>
      <trkpt lat="44.55752" lon="4.30603">
        <ele>232.3</ele>
        <time>2015-09-20T07:39:13Z</time>
      </trkpt>
      <trkpt lat="44.5574" lon="4.30584">
        <ele>234.22</ele>
        <time>2015-09-20T07:39:20Z</time>
      </trkpt>
      <trkpt lat="44.55735" lon="4.30575">
        <ele>235.18</ele>
        <time>2015-09-20T07:39:24Z</time>
      </trkpt>
      <trkpt lat="44.55731" lon="4.30569">
        <ele>235.66</ele>
        <time>2015-09-20T07:39:29Z</time>
      </trkpt>
      <trkpt lat="44.5573" lon="4.30572">
        <ele>235.66</ele>
        <time>2015-09-20T07:39:31Z</time>
      </trkpt>
      <trkpt lat="44.55745" lon="4.30565">
        <ele>236.14</ele>
        <time>2015-09-20T07:39:40Z</time>
      </trkpt>
      <trkpt lat="44.55767" lon="4.30551">
        <ele>238.06</ele>
        <time>2015-09-20T07:39:51Z</time>
      </trkpt>
      <trkpt lat="44.55776" lon="4.30545">
        <ele>239.02</ele>
        <time>2015-09-20T07:39:56Z</time>
      </trkpt>
      <trkpt lat="44.558" lon="4.3053">
        <ele>240.95</ele>
        <time>2015-09-20T07:40:10Z</time>
      </trkpt>
      <trkpt lat="44.55804" lon="4.30523">
        <ele>241.91</ele>
        <time>2015-09-20T07:40:18Z</time>
      </trkpt>
      <trkpt lat="44.55807" lon="4.30521">
        <ele>241.91</ele>
        <time>2015-09-20T07:40:22Z</time>
      </trkpt>
      <trkpt lat="44.55814" lon="4.30511">
        <ele>244.31</ele>
        <time>2015-09-20T07:40:36Z</time>
      </trkpt>
      <trkpt lat="44.55817" lon="4.30504">
        <ele>244.79</ele>
        <time>2015-09-20T07:40:43Z</time>
      </trkpt>
      <trkpt lat="44.5583" lon="4.30495">
        <ele>247.2</ele>
        <time>2015-09-20T07:40:55Z</time>
      </trkpt>
      <trkpt lat="44.55835" lon="4.3049">
        <ele>250.08</ele>
        <time>2015-09-20T07:41:03Z</time>
      </trkpt>
      <trkpt lat="44.55842" lon="4.30486">
        <ele>252.48</ele>
        <time>2015-09-20T07:41:16Z</time>
      </trkpt>
      <trkpt lat="44.55843" lon="4.30486">
        <ele>252.48</ele>
        <time>2015-09-20T07:41:22Z</time>
      </trkpt>
      <trkpt lat="44.55849" lon="4.30508">
        <ele>254.89</ele>
        <time>2015-09-20T07:41:33Z</time>
      </trkpt>
      <trkpt lat="44.55868" lon="4.30535">
        <ele>256.33</ele>
        <time>2015-09-20T07:41:45Z</time>
      </trkpt>
      <trkpt lat="44.55881" lon="4.30545">
        <ele>257.29</ele>
        <time>2015-09-20T07:41:50Z</time>
      </trkpt>
      <trkpt lat="44.55923" lon="4.30541">
        <ele>259.21</ele>
        <time>2015-09-20T07:42:04Z</time>
      </trkpt>
      <trkpt lat="44.55948" lon="4.30529">
        <ele>262.1</ele>
        <time>2015-09-20T07:42:15Z</time>
      </trkpt>
      <trkpt lat="44.55978" lon="4.3051">
        <ele>263.54</ele>
        <time>2015-09-20T07:42:29Z</time>
      </trkpt>
      <trkpt lat="44.56" lon="4.30493">
        <ele>264.98</ele>
        <time>2015-09-20T07:42:40Z</time>
      </trkpt>
      <trkpt lat="44.56021" lon="4.30464">
        <ele>268.35</ele>
        <time>2015-09-20T07:42:53Z</time>
      </trkpt>
      <trkpt lat="44.5604" lon="4.30444">
        <ele>270.75</ele>
        <time>2015-09-20T07:43:04Z</time>
      </trkpt>
      <trkpt lat="44.56056" lon="4.30465">
        <ele>272.19</ele>
        <time>2015-09-20T07:43:15Z</time>
      </trkpt>
      <trkpt lat="44.56062" lon="4.305">
        <ele>274.59</ele>
        <time>2015-09-20T07:43:27Z</time>
      </trkpt>
      <trkpt lat="44.56065" lon="4.30533">
        <ele>276.52</ele>
        <time>2015-09-20T07:43:38Z</time>
      </trkpt>
      <trkpt lat="44.56067" lon="4.30583">
        <ele>277.96</ele>
        <time>2015-09-20T07:43:53Z</time>
      </trkpt>
      <trkpt lat="44.56074" lon="4.30619">
        <ele>279.4</ele>
        <time>2015-09-20T07:44:03Z</time>
      </trkpt>
      <trkpt lat="44.56081" lon="4.30655">
        <ele>280.36</ele>
        <time>2015-09-20T07:44:13Z</time>
      </trkpt>
      <trkpt lat="44.56087" lon="4.30685">
        <ele>282.77</ele>
        <time>2015-09-20T07:44:22Z</time>
      </trkpt>
      <trkpt lat="44.56104" lon="4.30722">
        <ele>285.17</ele>
        <time>2015-09-20T07:44:34Z</time>
      </trkpt>
      <trkpt lat="44.56122" lon="4.30763">
        <ele>287.57</ele>
        <time>2015-09-20T07:44:47Z</time>
      </trkpt>
      <trkpt lat="44.56124" lon="4.30771">
        <ele>288.05</ele>
        <time>2015-09-20T07:44:49Z</time>
      </trkpt>
      <trkpt lat="44.5614" lon="4.30804">
        <ele>289.97</ele>
        <time>2015-09-20T07:45:01Z</time>
      </trkpt>
      <trkpt lat="44.5616" lon="4.30841">
        <ele>291.9</ele>
        <time>2015-09-20T07:45:12Z</time>
      </trkpt>
      <trkpt lat="44.56184" lon="4.30867">
        <ele>293.82</ele>
        <time>2015-09-20T07:45:23Z</time>
      </trkpt>
      <trkpt lat="44.5621" lon="4.30883">
        <ele>295.26</ele>
        <time>2015-09-20T07:45:33Z</time>
      </trkpt>
      <trkpt lat="44.56252" lon="4.30895">
        <ele>296.22</ele>
        <time>2015-09-20T07:45:46Z</time>
      </trkpt>
      <trkpt lat="44.5627" lon="4.309">
        <ele>297.67</ele>
        <time>2015-09-20T07:45:52Z</time>
      </trkpt>
      <trkpt lat="44.56285" lon="4.30913">
        <ele>298.63</ele>
        <time>2015-09-20T07:45:58Z</time>
      </trkpt>
      <trkpt lat="44.56295" lon="4.3092">
        <ele>299.11</ele>
        <time>2015-09-20T07:46:02Z</time>
      </trkpt>
      <trkpt lat="44.56314" lon="4.30919">
        <ele>301.03</ele>
        <time>2015-09-20T07:46:11Z</time>
      </trkpt>
      <trkpt lat="44.56329" lon="4.30894">
        <ele>303.43</ele>
        <time>2015-09-20T07:46:21Z</time>
      </trkpt>
      <trkpt lat="44.56332" lon="4.30877">
        <ele>305.36</ele>
        <time>2015-09-20T07:46:28Z</time>
      </trkpt>
      <trkpt lat="44.56331" lon="4.30855">
        <ele>307.28</ele>
        <time>2015-09-20T07:46:38Z</time>
      </trkpt>
      <trkpt lat="44.56325" lon="4.30823">
        <ele>310.16</ele>
        <time>2015-09-20T07:46:49Z</time>
      </trkpt>
      <trkpt lat="44.56311" lon="4.30793">
        <ele>312.57</ele>
        <time>2015-09-20T07:46:58Z</time>
      </trkpt>
      <trkpt lat="44.56309" lon="4.30767">
        <ele>315.93</ele>
        <time>2015-09-20T07:47:10Z</time>
      </trkpt>
      <trkpt lat="44.5631" lon="4.30765">
        <ele>316.41</ele>
        <time>2015-09-20T07:47:11Z</time>
      </trkpt>
      <trkpt lat="44.56315" lon="4.30758">
        <ele>317.85</ele>
        <time>2015-09-20T07:47:16Z</time>
      </trkpt>
      <trkpt lat="44.56322" lon="4.30756">
        <ele>319.3</ele>
        <time>2015-09-20T07:47:23Z</time>
      </trkpt>
      <trkpt lat="44.56342" lon="4.30774">
        <ele>323.14</ele>
        <time>2015-09-20T07:47:38Z</time>
      </trkpt>
      <trkpt lat="44.56358" lon="4.30783">
        <ele>326.5</ele>
        <time>2015-09-20T07:47:47Z</time>
      </trkpt>
      <trkpt lat="44.56369" lon="4.30781">
        <ele>328.43</ele>
        <time>2015-09-20T07:47:57Z</time>
      </trkpt>
      <trkpt lat="44.5637" lon="4.30778">
        <ele>328.91</ele>
        <time>2015-09-20T07:47:59Z</time>
      </trkpt>
      <trkpt lat="44.56369" lon="4.30764">
        <ele>329.39</ele>
        <time>2015-09-20T07:48:05Z</time>
      </trkpt>
      <trkpt lat="44.56362" lon="4.30732">
        <ele>331.31</ele>
        <time>2015-09-20T07:48:18Z</time>
      </trkpt>
      <trkpt lat="44.56361" lon="4.30727">
        <ele>331.31</ele>
        <time>2015-09-20T07:48:20Z</time>
      </trkpt>
      <trkpt lat="44.56355" lon="4.30697">
        <ele>332.75</ele>
        <time>2015-09-20T07:48:32Z</time>
      </trkpt>
      <trkpt lat="44.56353" lon="4.30684">
        <ele>334.2</ele>
        <time>2015-09-20T07:48:38Z</time>
      </trkpt>
      <trkpt lat="44.56349" lon="4.3067">
        <ele>334.68</ele>
        <time>2015-09-20T07:48:44Z</time>
      </trkpt>
      <trkpt lat="44.56346" lon="4.3066">
        <ele>334.68</ele>
        <time>2015-09-20T07:48:48Z</time>
      </trkpt>
      <trkpt lat="44.5634" lon="4.30644">
        <ele>336.12</ele>
        <time>2015-09-20T07:48:56Z</time>
      </trkpt>
      <trkpt lat="44.56336" lon="4.30633">
        <ele>336.12</ele>
        <time>2015-09-20T07:49:00Z</time>
      </trkpt>
      <trkpt lat="44.56332" lon="4.30624">
        <ele>336.12</ele>
        <time>2015-09-20T07:49:03Z</time>
      </trkpt>
      <trkpt lat="44.56326" lon="4.30614">
        <ele>336.12</ele>
        <time>2015-09-20T07:49:08Z</time>
      </trkpt>
      <trkpt lat="44.56315" lon="4.30575">
        <ele>338.04</ele>
        <time>2015-09-20T07:49:21Z</time>
      </trkpt>
      <trkpt lat="44.56308" lon="4.30543">
        <ele>340.92</ele>
        <time>2015-09-20T07:49:33Z</time>
      </trkpt>
      <trkpt lat="44.56298" lon="4.3052">
        <ele>343.33</ele>
        <time>2015-09-20T07:49:43Z</time>
      </trkpt>
      <trkpt lat="44.56296" lon="4.30517">
        <ele>342.85</ele>
        <time>2015-09-20T07:49:45Z</time>
      </trkpt>
      <trkpt lat="44.56292" lon="4.30508">
        <ele>343.33</ele>
        <time>2015-09-20T07:49:48Z</time>
      </trkpt>
      <trkpt lat="44.56292" lon="4.30488">
        <ele>344.29</ele>
        <time>2015-09-20T07:49:56Z</time>
      </trkpt>
      <trkpt lat="44.56288" lon="4.3048">
        <ele>344.77</ele>
        <time>2015-09-20T07:50:10Z</time>
      </trkpt>
      <trkpt lat="44.56288" lon="4.3048">
        <ele>344.77</ele>
        <time>2015-09-20T07:50:16Z</time>
      </trkpt>
      <trkpt lat="44.56293" lon="4.30474">
        <ele>346.21</ele>
        <time>2015-09-20T07:50:28Z</time>
      </trkpt>
      <trkpt lat="44.56294" lon="4.30473">
        <ele>346.21</ele>
        <time>2015-09-20T07:50:29Z</time>
      </trkpt>
      <trkpt lat="44.56301" lon="4.30463">
        <ele>348.62</ele>
        <time>2015-09-20T07:50:42Z</time>
      </trkpt>
      <trkpt lat="44.56304" lon="4.30458">
        <ele>349.1</ele>
        <time>2015-09-20T07:50:54Z</time>
      </trkpt>
      <trkpt lat="44.5631" lon="4.30449">
        <ele>350.54</ele>
        <time>2015-09-20T07:51:00Z</time>
      </trkpt>
      <trkpt lat="44.56314" lon="4.30447">
        <ele>351.02</ele>
        <time>2015-09-20T07:51:03Z</time>
      </trkpt>
      <trkpt lat="44.5632" lon="4.3044">
        <ele>352.94</ele>
        <time>2015-09-20T07:51:12Z</time>
      </trkpt>
      <trkpt lat="44.56328" lon="4.30432">
        <ele>353.9</ele>
        <time>2015-09-20T07:51:25Z</time>
      </trkpt>
      <trkpt lat="44.56328" lon="4.30431">
        <ele>354.38</ele>
        <time>2015-09-20T07:51:28Z</time>
      </trkpt>
      <trkpt lat="44.56329" lon="4.3043">
        <ele>354.38</ele>
        <time>2015-09-20T07:51:30Z</time>
      </trkpt>
      <trkpt lat="44.56344" lon="4.30415">
        <ele>358.23</ele>
        <time>2015-09-20T07:51:42Z</time>
      </trkpt>
      <trkpt lat="44.56355" lon="4.30404">
        <ele>360.15</ele>
        <time>2015-09-20T07:51:52Z</time>
      </trkpt>
      <trkpt lat="44.56368" lon="4.30379">
        <ele>362.55</ele>
        <time>2015-09-20T07:52:05Z</time>
      </trkpt>
      <trkpt lat="44.5637" lon="4.30373">
        <ele>364</ele>
        <time>2015-09-20T07:52:08Z</time>
      </trkpt>
      <trkpt lat="44.56384" lon="4.3034">
        <ele>364.96</ele>
        <time>2015-09-20T07:52:21Z</time>
      </trkpt>
      <trkpt lat="44.56388" lon="4.30319">
        <ele>366.88</ele>
        <time>2015-09-20T07:52:28Z</time>
      </trkpt>
      <trkpt lat="44.56387" lon="4.30311">
        <ele>367.84</ele>
        <time>2015-09-20T07:52:32Z</time>
      </trkpt>
      <trkpt lat="44.56388" lon="4.30307">
        <ele>367.84</ele>
        <time>2015-09-20T07:52:34Z</time>
      </trkpt>
      <trkpt lat="44.564" lon="4.30274">
        <ele>371.21</ele>
        <time>2015-09-20T07:52:47Z</time>
      </trkpt>
      <trkpt lat="44.56408" lon="4.30246">
        <ele>372.17</ele>
        <time>2015-09-20T07:52:57Z</time>
      </trkpt>
      <trkpt lat="44.5641" lon="4.30222">
        <ele>373.13</ele>
        <time>2015-09-20T07:53:06Z</time>
      </trkpt>
      <trkpt lat="44.5641" lon="4.30218">
        <ele>373.13</ele>
        <time>2015-09-20T07:53:08Z</time>
      </trkpt>
      <trkpt lat="44.56418" lon="4.30188">
        <ele>373.61</ele>
        <time>2015-09-20T07:53:20Z</time>
      </trkpt>
      <trkpt lat="44.56419" lon="4.30184">
        <ele>374.09</ele>
        <time>2015-09-20T07:53:22Z</time>
      </trkpt>
      <trkpt lat="44.56421" lon="4.30181">
        <ele>375.53</ele>
        <time>2015-09-20T07:53:37Z</time>
      </trkpt>
      <trkpt lat="44.56421" lon="4.30179">
        <ele>376.01</ele>
        <time>2015-09-20T07:53:40Z</time>
      </trkpt>
      <trkpt lat="44.56423" lon="4.30172">
        <ele>376.97</ele>
        <time>2015-09-20T07:53:51Z</time>
      </trkpt>
      <trkpt lat="44.56426" lon="4.3017">
        <ele>377.45</ele>
        <time>2015-09-20T07:53:55Z</time>
      </trkpt>
      <trkpt lat="44.56438" lon="4.30163">
        <ele>379.38</ele>
        <time>2015-09-20T07:54:07Z</time>
      </trkpt>
      <trkpt lat="44.56442" lon="4.30161">
        <ele>379.86</ele>
        <time>2015-09-20T07:54:10Z</time>
      </trkpt>
      <trkpt lat="44.56453" lon="4.30154">
        <ele>381.3</ele>
        <time>2015-09-20T07:54:17Z</time>
      </trkpt>
      <trkpt lat="44.56456" lon="4.3015">
        <ele>381.78</ele>
        <time>2015-09-20T07:54:20Z</time>
      </trkpt>
      <trkpt lat="44.56465" lon="4.30146">
        <ele>382.26</ele>
        <time>2015-09-20T07:54:28Z</time>
      </trkpt>
      <trkpt lat="44.5647" lon="4.30144">
        <ele>383.7</ele>
        <time>2015-09-20T07:54:34Z</time>
      </trkpt>
      <trkpt lat="44.56474" lon="4.30145">
        <ele>384.18</ele>
        <time>2015-09-20T07:54:37Z</time>
      </trkpt>
      <trkpt lat="44.56477" lon="4.30145">
        <ele>384.66</ele>
        <time>2015-09-20T07:54:40Z</time>
      </trkpt>
      <trkpt lat="44.56483" lon="4.3014">
        <ele>385.15</ele>
        <time>2015-09-20T07:54:47Z</time>
      </trkpt>
      <trkpt lat="44.56485" lon="4.30135">
        <ele>385.63</ele>
        <time>2015-09-20T07:55:02Z</time>
      </trkpt>
      <trkpt lat="44.56489" lon="4.30133">
        <ele>386.11</ele>
        <time>2015-09-20T07:55:21Z</time>
      </trkpt>
      <trkpt lat="44.56505" lon="4.30125">
        <ele>387.07</ele>
        <time>2015-09-20T07:55:33Z</time>
      </trkpt>
      <trkpt lat="44.56514" lon="4.30119">
        <ele>387.55</ele>
        <time>2015-09-20T07:55:37Z</time>
      </trkpt>
      <trkpt lat="44.56518" lon="4.30113">
        <ele>387.07</ele>
        <time>2015-09-20T07:55:41Z</time>
      </trkpt>
      <trkpt lat="44.56522" lon="4.30088">
        <ele>388.03</ele>
        <time>2015-09-20T07:55:55Z</time>
      </trkpt>
      <trkpt lat="44.5652" lon="4.30078">
        <ele>389.47</ele>
        <time>2015-09-20T07:55:59Z</time>
      </trkpt>
      <trkpt lat="44.56516" lon="4.30065">
        <ele>389.95</ele>
        <time>2015-09-20T07:56:13Z</time>
      </trkpt>
      <trkpt lat="44.56515" lon="4.30064">
        <ele>390.43</ele>
        <time>2015-09-20T07:56:17Z</time>
      </trkpt>
      <trkpt lat="44.56507" lon="4.30053">
        <ele>391.87</ele>
        <time>2015-09-20T07:56:27Z</time>
      </trkpt>
      <trkpt lat="44.56506" lon="4.30051">
        <ele>392.36</ele>
        <time>2015-09-20T07:56:29Z</time>
      </trkpt>
      <trkpt lat="44.56498" lon="4.30044">
        <ele>394.28</ele>
        <time>2015-09-20T07:56:43Z</time>
      </trkpt>
      <trkpt lat="44.56497" lon="4.30042">
        <ele>395.24</ele>
        <time>2015-09-20T07:56:45Z</time>
      </trkpt>
      <trkpt lat="44.56486" lon="4.3003">
        <ele>395.72</ele>
        <time>2015-09-20T07:56:55Z</time>
      </trkpt>
      <trkpt lat="44.56477" lon="4.30025">
        <ele>396.68</ele>
        <time>2015-09-20T07:57:01Z</time>
      </trkpt>
      <trkpt lat="44.56475" lon="4.30016">
        <ele>397.64</ele>
        <time>2015-09-20T07:57:06Z</time>
      </trkpt>
      <trkpt lat="44.56469" lon="4.30016">
        <ele>398.6</ele>
        <time>2015-09-20T07:57:10Z</time>
      </trkpt>
      <trkpt lat="44.56457" lon="4.30005">
        <ele>401.97</ele>
        <time>2015-09-20T07:57:25Z</time>
      </trkpt>
      <trkpt lat="44.56457" lon="4.30004">
        <ele>401.97</ele>
        <time>2015-09-20T07:57:26Z</time>
      </trkpt>
      <trkpt lat="44.56452" lon="4.29993">
        <ele>403.41</ele>
        <time>2015-09-20T07:57:33Z</time>
      </trkpt>
      <trkpt lat="44.56435" lon="4.29977">
        <ele>404.85</ele>
        <time>2015-09-20T07:57:46Z</time>
      </trkpt>
      <trkpt lat="44.56423" lon="4.29966">
        <ele>406.29</ele>
        <time>2015-09-20T07:57:53Z</time>
      </trkpt>
      <trkpt lat="44.56397" lon="4.29937">
        <ele>407.26</ele>
        <time>2015-09-20T07:58:05Z</time>
      </trkpt>
      <trkpt lat="44.56383" lon="4.29925">
        <ele>408.22</ele>
        <time>2015-09-20T07:58:14Z</time>
      </trkpt>
      <trkpt lat="44.56376" lon="4.2992">
        <ele>409.18</ele>
        <time>2015-09-20T07:58:19Z</time>
      </trkpt>
      <trkpt lat="44.56345" lon="4.29909">
        <ele>411.1</ele>
        <time>2015-09-20T07:58:32Z</time>
      </trkpt>
      <trkpt lat="44.56311" lon="4.29888">
        <ele>413.02</ele>
        <time>2015-09-20T07:58:46Z</time>
      </trkpt>
      <trkpt lat="44.56291" lon="4.29853">
        <ele>414.95</ele>
        <time>2015-09-20T07:59:00Z</time>
      </trkpt>
      <trkpt lat="44.56295" lon="4.29835">
        <ele>415.43</ele>
        <time>2015-09-20T07:59:07Z</time>
      </trkpt>
      <trkpt lat="44.56316" lon="4.29824">
        <ele>417.35</ele>
        <time>2015-09-20T07:59:19Z</time>
      </trkpt>
      <trkpt lat="44.56321" lon="4.29822">
        <ele>417.83</ele>
        <time>2015-09-20T07:59:23Z</time>
      </trkpt>
      <trkpt lat="44.56335" lon="4.29817">
        <ele>421.19</ele>
        <time>2015-09-20T07:59:34Z</time>
      </trkpt>
      <trkpt lat="44.56337" lon="4.29817">
        <ele>421.68</ele>
        <time>2015-09-20T07:59:35Z</time>
      </trkpt>
      <trkpt lat="44.56347" lon="4.29819">
        <ele>422.64</ele>
        <time>2015-09-20T07:59:42Z</time>
      </trkpt>
      <trkpt lat="44.56373" lon="4.29804">
        <ele>424.56</ele>
        <time>2015-09-20T07:59:58Z</time>
      </trkpt>
      <trkpt lat="44.5639" lon="4.29791">
        <ele>427.44</ele>
        <time>2015-09-20T08:00:09Z</time>
      </trkpt>
      <trkpt lat="44.56405" lon="4.29788">
        <ele>430.33</ele>
        <time>2015-09-20T08:00:22Z</time>
      </trkpt>
      <trkpt lat="44.56405" lon="4.29788">
        <ele>430.33</ele>
        <time>2015-09-20T08:00:23Z</time>
      </trkpt>
      <trkpt lat="44.5641" lon="4.29787">
        <ele>430.81</ele>
        <time>2015-09-20T08:00:27Z</time>
      </trkpt>
      <trkpt lat="44.56422" lon="4.29774">
        <ele>434.17</ele>
        <time>2015-09-20T08:00:36Z</time>
      </trkpt>
      <trkpt lat="44.56428" lon="4.29768">
        <ele>435.61</ele>
        <time>2015-09-20T08:00:41Z</time>
      </trkpt>
      <trkpt lat="44.56432" lon="4.29765">
        <ele>436.58</ele>
        <time>2015-09-20T08:00:44Z</time>
      </trkpt>
      <trkpt lat="44.56454" lon="4.29767">
        <ele>439.46</ele>
        <time>2015-09-20T08:00:59Z</time>
      </trkpt>
      <trkpt lat="44.56476" lon="4.2977">
        <ele>441.38</ele>
        <time>2015-09-20T08:01:14Z</time>
      </trkpt>
      <trkpt lat="44.56502" lon="4.29791">
        <ele>442.82</ele>
        <time>2015-09-20T08:01:28Z</time>
      </trkpt>
      <trkpt lat="44.56514" lon="4.29795">
        <ele>445.23</ele>
        <time>2015-09-20T08:01:33Z</time>
      </trkpt>
      <trkpt lat="44.56543" lon="4.29794">
        <ele>448.59</ele>
        <time>2015-09-20T08:01:47Z</time>
      </trkpt>
      <trkpt lat="44.5655" lon="4.29792">
        <ele>449.55</ele>
        <time>2015-09-20T08:01:51Z</time>
      </trkpt>
      <trkpt lat="44.56568" lon="4.29779">
        <ele>450.52</ele>
        <time>2015-09-20T08:02:01Z</time>
      </trkpt>
      <trkpt lat="44.56594" lon="4.29773">
        <ele>453.88</ele>
        <time>2015-09-20T08:02:15Z</time>
      </trkpt>
      <trkpt lat="44.56614" lon="4.2978">
        <ele>456.28</ele>
        <time>2015-09-20T08:02:26Z</time>
      </trkpt>
      <trkpt lat="44.5663" lon="4.29791">
        <ele>457.24</ele>
        <time>2015-09-20T08:02:37Z</time>
      </trkpt>
      <trkpt lat="44.56631" lon="4.29792">
        <ele>457.24</ele>
        <time>2015-09-20T08:02:38Z</time>
      </trkpt>
      <trkpt lat="44.56639" lon="4.29795">
        <ele>457.72</ele>
        <time>2015-09-20T08:02:51Z</time>
      </trkpt>
      <trkpt lat="44.56639" lon="4.29795">
        <ele>458.21</ele>
        <time>2015-09-20T08:03:08Z</time>
      </trkpt>
      <trkpt lat="44.5664" lon="4.29795">
        <ele>458.21</ele>
        <time>2015-09-20T08:03:21Z</time>
      </trkpt>
      <trkpt lat="44.5664" lon="4.29795">
        <ele>458.69</ele>
        <time>2015-09-20T08:03:41Z</time>
      </trkpt>
      <trkpt lat="44.5664" lon="4.29795">
        <ele>458.69</ele>
        <time>2015-09-20T08:03:42Z</time>
      </trkpt>
      <trkpt lat="44.56645" lon="4.29797">
        <ele>458.69</ele>
        <time>2015-09-20T08:03:46Z</time>
      </trkpt>
      <trkpt lat="44.56679" lon="4.298">
        <ele>458.21</ele>
        <time>2015-09-20T08:03:54Z</time>
      </trkpt>
      <trkpt lat="44.56705" lon="4.29813">
        <ele>457.72</ele>
        <time>2015-09-20T08:04:00Z</time>
      </trkpt>
      <trkpt lat="44.56709" lon="4.29816">
        <ele>457.72</ele>
        <time>2015-09-20T08:04:01Z</time>
      </trkpt>
      <trkpt lat="44.5672" lon="4.29827">
        <ele>457.72</ele>
        <time>2015-09-20T08:04:04Z</time>
      </trkpt>
      <trkpt lat="44.56723" lon="4.29831">
        <ele>457.72</ele>
        <time>2015-09-20T08:04:05Z</time>
      </trkpt>
      <trkpt lat="44.56731" lon="4.29837">
        <ele>457.72</ele>
        <time>2015-09-20T08:04:07Z</time>
      </trkpt>
      <trkpt lat="44.56749" lon="4.29862">
        <ele>458.21</ele>
        <time>2015-09-20T08:04:14Z</time>
      </trkpt>
      <trkpt lat="44.56748" lon="4.29865">
        <ele>458.21</ele>
        <time>2015-09-20T08:04:15Z</time>
      </trkpt>
      <trkpt lat="44.56747" lon="4.29894">
        <ele>457.72</ele>
        <time>2015-09-20T08:04:21Z</time>
      </trkpt>
      <trkpt lat="44.56749" lon="4.299">
        <ele>457.72</ele>
        <time>2015-09-20T08:04:22Z</time>
      </trkpt>
      <trkpt lat="44.56751" lon="4.29906">
        <ele>457.72</ele>
        <time>2015-09-20T08:04:23Z</time>
      </trkpt>
      <trkpt lat="44.56751" lon="4.29912">
        <ele>457.24</ele>
        <time>2015-09-20T08:04:24Z</time>
      </trkpt>
      <trkpt lat="44.56753" lon="4.29918">
        <ele>457.24</ele>
        <time>2015-09-20T08:04:25Z</time>
      </trkpt>
      <trkpt lat="44.5676" lon="4.2997">
        <ele>456.76</ele>
        <time>2015-09-20T08:04:35Z</time>
      </trkpt>
      <trkpt lat="44.56765" lon="4.3003">
        <ele>455.8</ele>
        <time>2015-09-20T08:04:45Z</time>
      </trkpt>
      <trkpt lat="44.56766" lon="4.30038">
        <ele>455.8</ele>
        <time>2015-09-20T08:04:46Z</time>
      </trkpt>
      <trkpt lat="44.56768" lon="4.30055">
        <ele>455.32</ele>
        <time>2015-09-20T08:04:48Z</time>
      </trkpt>
      <trkpt lat="44.56771" lon="4.30063">
        <ele>455.32</ele>
        <time>2015-09-20T08:04:49Z</time>
      </trkpt>
      <trkpt lat="44.56774" lon="4.3007">
        <ele>454.84</ele>
        <time>2015-09-20T08:04:50Z</time>
      </trkpt>
      <trkpt lat="44.56785" lon="4.30093">
        <ele>455.32</ele>
        <time>2015-09-20T08:04:54Z</time>
      </trkpt>
      <trkpt lat="44.56787" lon="4.30099">
        <ele>454.84</ele>
        <time>2015-09-20T08:04:55Z</time>
      </trkpt>
      <trkpt lat="44.56787" lon="4.30106">
        <ele>454.36</ele>
        <time>2015-09-20T08:04:56Z</time>
      </trkpt>
      <trkpt lat="44.56785" lon="4.30113">
        <ele>452.92</ele>
        <time>2015-09-20T08:04:57Z</time>
      </trkpt>
      <trkpt lat="44.56783" lon="4.30121">
        <ele>452.44</ele>
        <time>2015-09-20T08:04:58Z</time>
      </trkpt>
      <trkpt lat="44.56782" lon="4.3013">
        <ele>451.96</ele>
        <time>2015-09-20T08:04:59Z</time>
      </trkpt>
      <trkpt lat="44.56782" lon="4.30139">
        <ele>451.48</ele>
        <time>2015-09-20T08:05:00Z</time>
      </trkpt>
      <trkpt lat="44.56784" lon="4.30148">
        <ele>451</ele>
        <time>2015-09-20T08:05:01Z</time>
      </trkpt>
      <trkpt lat="44.56786" lon="4.30157">
        <ele>450.52</ele>
        <time>2015-09-20T08:05:02Z</time>
      </trkpt>
      <trkpt lat="44.56789" lon="4.30166">
        <ele>450.03</ele>
        <time>2015-09-20T08:05:03Z</time>
      </trkpt>
      <trkpt lat="44.56794" lon="4.30183">
        <ele>449.55</ele>
        <time>2015-09-20T08:05:05Z</time>
      </trkpt>
      <trkpt lat="44.56796" lon="4.30192">
        <ele>448.59</ele>
        <time>2015-09-20T08:05:06Z</time>
      </trkpt>
      <trkpt lat="44.56798" lon="4.30201">
        <ele>448.11</ele>
        <time>2015-09-20T08:05:07Z</time>
      </trkpt>
      <trkpt lat="44.56797" lon="4.3021">
        <ele>447.63</ele>
        <time>2015-09-20T08:05:08Z</time>
      </trkpt>
      <trkpt lat="44.56796" lon="4.30219">
        <ele>447.15</ele>
        <time>2015-09-20T08:05:09Z</time>
      </trkpt>
      <trkpt lat="44.56794" lon="4.30227">
        <ele>447.15</ele>
        <time>2015-09-20T08:05:10Z</time>
      </trkpt>
      <trkpt lat="44.56792" lon="4.30233">
        <ele>446.67</ele>
        <time>2015-09-20T08:05:11Z</time>
      </trkpt>
      <trkpt lat="44.56775" lon="4.30266">
        <ele>448.11</ele>
        <time>2015-09-20T08:05:20Z</time>
      </trkpt>
      <trkpt lat="44.56745" lon="4.30305">
        <ele>448.11</ele>
        <time>2015-09-20T08:05:33Z</time>
      </trkpt>
      <trkpt lat="44.56741" lon="4.30315">
        <ele>448.59</ele>
        <time>2015-09-20T08:05:36Z</time>
      </trkpt>
      <trkpt lat="44.56742" lon="4.30319">
        <ele>448.59</ele>
        <time>2015-09-20T08:05:38Z</time>
      </trkpt>
      <trkpt lat="44.56742" lon="4.30322">
        <ele>450.52</ele>
        <time>2015-09-20T08:05:42Z</time>
      </trkpt>
      <trkpt lat="44.56726" lon="4.30345">
        <ele>453.4</ele>
        <time>2015-09-20T08:05:51Z</time>
      </trkpt>
      <trkpt lat="44.56704" lon="4.3038">
        <ele>454.84</ele>
        <time>2015-09-20T08:06:03Z</time>
      </trkpt>
      <trkpt lat="44.56708" lon="4.30413">
        <ele>455.32</ele>
        <time>2015-09-20T08:06:09Z</time>
      </trkpt>
      <trkpt lat="44.5671" lon="4.30419">
        <ele>454.84</ele>
        <time>2015-09-20T08:06:10Z</time>
      </trkpt>
      <trkpt lat="44.56711" lon="4.30425">
        <ele>454.84</ele>
        <time>2015-09-20T08:06:11Z</time>
      </trkpt>
      <trkpt lat="44.56713" lon="4.30431">
        <ele>454.36</ele>
        <time>2015-09-20T08:06:12Z</time>
      </trkpt>
      <trkpt lat="44.56736" lon="4.3048">
        <ele>451.96</ele>
        <time>2015-09-20T08:06:22Z</time>
      </trkpt>
      <trkpt lat="44.56761" lon="4.30522">
        <ele>451</ele>
        <time>2015-09-20T08:06:33Z</time>
      </trkpt>
      <trkpt lat="44.56763" lon="4.30561">
        <ele>451</ele>
        <time>2015-09-20T08:06:42Z</time>
      </trkpt>
      <trkpt lat="44.56768" lon="4.30575">
        <ele>451</ele>
        <time>2015-09-20T08:06:46Z</time>
      </trkpt>
      <trkpt lat="44.56769" lon="4.3058">
        <ele>451</ele>
        <time>2015-09-20T08:06:47Z</time>
      </trkpt>
      <trkpt lat="44.56769" lon="4.30584">
        <ele>451</ele>
        <time>2015-09-20T08:06:48Z</time>
      </trkpt>
      <trkpt lat="44.5679" lon="4.30636">
        <ele>449.55</ele>
        <time>2015-09-20T08:07:00Z</time>
      </trkpt>
      <trkpt lat="44.56815" lon="4.30666">
        <ele>450.03</ele>
        <time>2015-09-20T08:07:10Z</time>
      </trkpt>
      <trkpt lat="44.56838" lon="4.30691">
        <ele>448.59</ele>
        <time>2015-09-20T08:07:19Z</time>
      </trkpt>
      <trkpt lat="44.56857" lon="4.30715">
        <ele>448.11</ele>
        <time>2015-09-20T08:07:25Z</time>
      </trkpt>
      <trkpt lat="44.56872" lon="4.30743">
        <ele>444.75</ele>
        <time>2015-09-20T08:07:30Z</time>
      </trkpt>
      <trkpt lat="44.56875" lon="4.30752">
        <ele>443.31</ele>
        <time>2015-09-20T08:07:32Z</time>
      </trkpt>
      <trkpt lat="44.56886" lon="4.30772">
        <ele>441.86</ele>
        <time>2015-09-20T08:07:35Z</time>
      </trkpt>
      <trkpt lat="44.56907" lon="4.30799">
        <ele>438.98</ele>
        <time>2015-09-20T08:07:40Z</time>
      </trkpt>
      <trkpt lat="44.56939" lon="4.30807">
        <ele>437.06</ele>
        <time>2015-09-20T08:07:45Z</time>
      </trkpt>
      <trkpt lat="44.56944" lon="4.30808">
        <ele>436.58</ele>
        <time>2015-09-20T08:07:46Z</time>
      </trkpt>
      <trkpt lat="44.56968" lon="4.30808">
        <ele>433.21</ele>
        <time>2015-09-20T08:07:51Z</time>
      </trkpt>
      <trkpt lat="44.56974" lon="4.30807">
        <ele>432.73</ele>
        <time>2015-09-20T08:07:52Z</time>
      </trkpt>
      <trkpt lat="44.56978" lon="4.30806">
        <ele>432.25</ele>
        <time>2015-09-20T08:07:53Z</time>
      </trkpt>
      <trkpt lat="44.56994" lon="4.30801">
        <ele>429.85</ele>
        <time>2015-09-20T08:07:57Z</time>
      </trkpt>
      <trkpt lat="44.57018" lon="4.30778">
        <ele>427.44</ele>
        <time>2015-09-20T08:08:05Z</time>
      </trkpt>
      <trkpt lat="44.57025" lon="4.30764">
        <ele>425.04</ele>
        <time>2015-09-20T08:08:08Z</time>
      </trkpt>
      <trkpt lat="44.57026" lon="4.30759">
        <ele>424.56</ele>
        <time>2015-09-20T08:08:09Z</time>
      </trkpt>
      <trkpt lat="44.57027" lon="4.30754">
        <ele>424.08</ele>
        <time>2015-09-20T08:08:10Z</time>
      </trkpt>
      <trkpt lat="44.57027" lon="4.30748">
        <ele>424.08</ele>
        <time>2015-09-20T08:08:11Z</time>
      </trkpt>
      <trkpt lat="44.57028" lon="4.30743">
        <ele>423.6</ele>
        <time>2015-09-20T08:08:12Z</time>
      </trkpt>
      <trkpt lat="44.57028" lon="4.30737">
        <ele>423.6</ele>
        <time>2015-09-20T08:08:13Z</time>
      </trkpt>
      <trkpt lat="44.57029" lon="4.3073">
        <ele>423.6</ele>
        <time>2015-09-20T08:08:14Z</time>
      </trkpt>
      <trkpt lat="44.57031" lon="4.30724">
        <ele>423.12</ele>
        <time>2015-09-20T08:08:15Z</time>
      </trkpt>
      <trkpt lat="44.57035" lon="4.30709">
        <ele>422.64</ele>
        <time>2015-09-20T08:08:17Z</time>
      </trkpt>
      <trkpt lat="44.57038" lon="4.30703">
        <ele>422.64</ele>
        <time>2015-09-20T08:08:18Z</time>
      </trkpt>
      <trkpt lat="44.57039" lon="4.30697">
        <ele>422.16</ele>
        <time>2015-09-20T08:08:19Z</time>
      </trkpt>
      <trkpt lat="44.57039" lon="4.30691">
        <ele>421.68</ele>
        <time>2015-09-20T08:08:20Z</time>
      </trkpt>
      <trkpt lat="44.57038" lon="4.30685">
        <ele>421.19</ele>
        <time>2015-09-20T08:08:21Z</time>
      </trkpt>
      <trkpt lat="44.57036" lon="4.30678">
        <ele>420.71</ele>
        <time>2015-09-20T08:08:22Z</time>
      </trkpt>
      <trkpt lat="44.57032" lon="4.3065">
        <ele>419.27</ele>
        <time>2015-09-20T08:08:27Z</time>
      </trkpt>
      <trkpt lat="44.57034" lon="4.3065">
        <ele>418.31</ele>
        <time>2015-09-20T08:08:28Z</time>
      </trkpt>
      <trkpt lat="44.57036" lon="4.30652">
        <ele>418.31</ele>
        <time>2015-09-20T08:08:29Z</time>
      </trkpt>
      <trkpt lat="44.57037" lon="4.30654">
        <ele>417.83</ele>
        <time>2015-09-20T08:08:30Z</time>
      </trkpt>
      <trkpt lat="44.57038" lon="4.3065">
        <ele>417.35</ele>
        <time>2015-09-20T08:08:38Z</time>
      </trkpt>
      <trkpt lat="44.57039" lon="4.3065">
        <ele>416.87</ele>
        <time>2015-09-20T08:08:48Z</time>
      </trkpt>
      <trkpt lat="44.57045" lon="4.3065">
        <ele>415.91</ele>
        <time>2015-09-20T08:08:51Z</time>
      </trkpt>
      <trkpt lat="44.57046" lon="4.30654">
        <ele>414.47</ele>
        <time>2015-09-20T08:08:54Z</time>
      </trkpt>
      <trkpt lat="44.57058" lon="4.30648">
        <ele>412.54</ele>
        <time>2015-09-20T08:09:01Z</time>
      </trkpt>
      <trkpt lat="44.57052" lon="4.30616">
        <ele>410.14</ele>
        <time>2015-09-20T08:09:11Z</time>
      </trkpt>
      <trkpt lat="44.57052" lon="4.30606">
        <ele>410.14</ele>
        <time>2015-09-20T08:09:15Z</time>
      </trkpt>
      <trkpt lat="44.57065" lon="4.306">
        <ele>410.14</ele>
        <time>2015-09-20T08:09:23Z</time>
      </trkpt>
      <trkpt lat="44.57076" lon="4.30585">
        <ele>412.06</ele>
        <time>2015-09-20T08:09:34Z</time>
      </trkpt>
      <trkpt lat="44.57075" lon="4.30585">
        <ele>412.06</ele>
        <time>2015-09-20T08:09:39Z</time>
      </trkpt>
      <trkpt lat="44.57082" lon="4.30583">
        <ele>411.58</ele>
        <time>2015-09-20T08:09:45Z</time>
      </trkpt>
      <trkpt lat="44.57096" lon="4.30575">
        <ele>412.06</ele>
        <time>2015-09-20T08:09:53Z</time>
      </trkpt>
      <trkpt lat="44.57101" lon="4.30569">
        <ele>412.54</ele>
        <time>2015-09-20T08:09:56Z</time>
      </trkpt>
      <trkpt lat="44.57123" lon="4.30566">
        <ele>414.95</ele>
        <time>2015-09-20T08:10:07Z</time>
      </trkpt>
      <trkpt lat="44.57129" lon="4.30567">
        <ele>415.91</ele>
        <time>2015-09-20T08:10:09Z</time>
      </trkpt>
      <trkpt lat="44.57163" lon="4.30566">
        <ele>417.83</ele>
        <time>2015-09-20T08:10:23Z</time>
      </trkpt>
      <trkpt lat="44.57165" lon="4.30566">
        <ele>417.83</ele>
        <time>2015-09-20T08:10:24Z</time>
      </trkpt>
      <trkpt lat="44.57173" lon="4.30562">
        <ele>419.75</ele>
        <time>2015-09-20T08:10:33Z</time>
      </trkpt>
      <trkpt lat="44.57181" lon="4.30554">
        <ele>421.19</ele>
        <time>2015-09-20T08:10:42Z</time>
      </trkpt>
      <trkpt lat="44.57185" lon="4.30543">
        <ele>422.64</ele>
        <time>2015-09-20T08:10:55Z</time>
      </trkpt>
      <trkpt lat="44.57185" lon="4.30543">
        <ele>423.12</ele>
        <time>2015-09-20T08:11:10Z</time>
      </trkpt>
      <trkpt lat="44.57197" lon="4.30536">
        <ele>423.6</ele>
        <time>2015-09-20T08:11:17Z</time>
      </trkpt>
      <trkpt lat="44.57222" lon="4.30516">
        <ele>425.04</ele>
        <time>2015-09-20T08:11:32Z</time>
      </trkpt>
      <trkpt lat="44.57244" lon="4.30494">
        <ele>426.96</ele>
        <time>2015-09-20T08:11:44Z</time>
      </trkpt>
      <trkpt lat="44.57263" lon="4.30465">
        <ele>427.44</ele>
        <time>2015-09-20T08:11:56Z</time>
      </trkpt>
      <trkpt lat="44.57275" lon="4.30446">
        <ele>430.33</ele>
        <time>2015-09-20T08:12:04Z</time>
      </trkpt>
      <trkpt lat="44.57302" lon="4.30435">
        <ele>432.73</ele>
        <time>2015-09-20T08:12:18Z</time>
      </trkpt>
      <trkpt lat="44.57326" lon="4.30421">
        <ele>436.1</ele>
        <time>2015-09-20T08:12:31Z</time>
      </trkpt>
      <trkpt lat="44.57342" lon="4.3039">
        <ele>438.98</ele>
        <time>2015-09-20T08:12:44Z</time>
      </trkpt>
      <trkpt lat="44.57344" lon="4.30386">
        <ele>438.98</ele>
        <time>2015-09-20T08:12:46Z</time>
      </trkpt>
      <trkpt lat="44.57344" lon="4.30366">
        <ele>438.5</ele>
        <time>2015-09-20T08:12:53Z</time>
      </trkpt>
      <trkpt lat="44.57353" lon="4.30348">
        <ele>438.5</ele>
        <time>2015-09-20T08:13:01Z</time>
      </trkpt>
      <trkpt lat="44.57354" lon="4.30343">
        <ele>438.98</ele>
        <time>2015-09-20T08:13:15Z</time>
      </trkpt>
      <trkpt lat="44.57354" lon="4.30343">
        <ele>439.46</ele>
        <time>2015-09-20T08:13:24Z</time>
      </trkpt>
      <trkpt lat="44.5736" lon="4.30338">
        <ele>438.98</ele>
        <time>2015-09-20T08:13:28Z</time>
      </trkpt>
      <trkpt lat="44.57381" lon="4.30321">
        <ele>437.54</ele>
        <time>2015-09-20T08:13:34Z</time>
      </trkpt>
      <trkpt lat="44.57385" lon="4.3032">
        <ele>437.06</ele>
        <time>2015-09-20T08:13:35Z</time>
      </trkpt>
      <trkpt lat="44.57388" lon="4.30319">
        <ele>436.58</ele>
        <time>2015-09-20T08:13:36Z</time>
      </trkpt>
      <trkpt lat="44.57391" lon="4.3032">
        <ele>436.58</ele>
        <time>2015-09-20T08:13:37Z</time>
      </trkpt>
      <trkpt lat="44.57395" lon="4.30319">
        <ele>436.58</ele>
        <time>2015-09-20T08:13:38Z</time>
      </trkpt>
      <trkpt lat="44.57397" lon="4.30318">
        <ele>437.06</ele>
        <time>2015-09-20T08:13:39Z</time>
      </trkpt>
      <trkpt lat="44.574" lon="4.30316">
        <ele>436.58</ele>
        <time>2015-09-20T08:13:40Z</time>
      </trkpt>
      <trkpt lat="44.57402" lon="4.30314">
        <ele>437.06</ele>
        <time>2015-09-20T08:13:41Z</time>
      </trkpt>
      <trkpt lat="44.57405" lon="4.30311">
        <ele>437.06</ele>
        <time>2015-09-20T08:13:42Z</time>
      </trkpt>
      <trkpt lat="44.57408" lon="4.30309">
        <ele>437.06</ele>
        <time>2015-09-20T08:13:43Z</time>
      </trkpt>
      <trkpt lat="44.5741" lon="4.30307">
        <ele>437.06</ele>
        <time>2015-09-20T08:13:44Z</time>
      </trkpt>
      <trkpt lat="44.57413" lon="4.30304">
        <ele>437.06</ele>
        <time>2015-09-20T08:13:45Z</time>
      </trkpt>
      <trkpt lat="44.57445" lon="4.30274">
        <ele>438.5</ele>
        <time>2015-09-20T08:13:57Z</time>
      </trkpt>
      <trkpt lat="44.57475" lon="4.30253">
        <ele>439.94</ele>
        <time>2015-09-20T08:14:09Z</time>
      </trkpt>
      <trkpt lat="44.57504" lon="4.30243">
        <ele>440.9</ele>
        <time>2015-09-20T08:14:21Z</time>
      </trkpt>
      <trkpt lat="44.5753" lon="4.30232">
        <ele>440.42</ele>
        <time>2015-09-20T08:14:28Z</time>
      </trkpt>
      <trkpt lat="44.57544" lon="4.30228">
        <ele>440.42</ele>
        <time>2015-09-20T08:14:31Z</time>
      </trkpt>
      <trkpt lat="44.57557" lon="4.30225">
        <ele>440.42</ele>
        <time>2015-09-20T08:14:34Z</time>
      </trkpt>
      <trkpt lat="44.57561" lon="4.30224">
        <ele>439.94</ele>
        <time>2015-09-20T08:14:35Z</time>
      </trkpt>
      <trkpt lat="44.5758" lon="4.30219">
        <ele>440.42</ele>
        <time>2015-09-20T08:14:39Z</time>
      </trkpt>
      <trkpt lat="44.57611" lon="4.30217">
        <ele>440.9</ele>
        <time>2015-09-20T08:14:47Z</time>
      </trkpt>
      <trkpt lat="44.57628" lon="4.30215">
        <ele>440.9</ele>
        <time>2015-09-20T08:14:51Z</time>
      </trkpt>
      <trkpt lat="44.57632" lon="4.30215">
        <ele>440.42</ele>
        <time>2015-09-20T08:14:52Z</time>
      </trkpt>
      <trkpt lat="44.57637" lon="4.30215">
        <ele>440.42</ele>
        <time>2015-09-20T08:14:53Z</time>
      </trkpt>
      <trkpt lat="44.57642" lon="4.30216">
        <ele>439.46</ele>
        <time>2015-09-20T08:14:54Z</time>
      </trkpt>
      <trkpt lat="44.57647" lon="4.30215">
        <ele>439.46</ele>
        <time>2015-09-20T08:14:55Z</time>
      </trkpt>
      <trkpt lat="44.57652" lon="4.30215">
        <ele>439.46</ele>
        <time>2015-09-20T08:14:56Z</time>
      </trkpt>
      <trkpt lat="44.57678" lon="4.30214">
        <ele>438.98</ele>
        <time>2015-09-20T08:15:02Z</time>
      </trkpt>
      <trkpt lat="44.57692" lon="4.3021">
        <ele>438.02</ele>
        <time>2015-09-20T08:15:05Z</time>
      </trkpt>
      <trkpt lat="44.57705" lon="4.30209">
        <ele>437.54</ele>
        <time>2015-09-20T08:15:08Z</time>
      </trkpt>
      <trkpt lat="44.57718" lon="4.30207">
        <ele>437.06</ele>
        <time>2015-09-20T08:15:11Z</time>
      </trkpt>
      <trkpt lat="44.57723" lon="4.30207">
        <ele>436.58</ele>
        <time>2015-09-20T08:15:12Z</time>
      </trkpt>
      <trkpt lat="44.57728" lon="4.30207">
        <ele>436.58</ele>
        <time>2015-09-20T08:15:13Z</time>
      </trkpt>
      <trkpt lat="44.57733" lon="4.30207">
        <ele>436.58</ele>
        <time>2015-09-20T08:15:14Z</time>
      </trkpt>
      <trkpt lat="44.57737" lon="4.30208">
        <ele>437.06</ele>
        <time>2015-09-20T08:15:15Z</time>
      </trkpt>
      <trkpt lat="44.57742" lon="4.30208">
        <ele>437.06</ele>
        <time>2015-09-20T08:15:16Z</time>
      </trkpt>
      <trkpt lat="44.57747" lon="4.30207">
        <ele>437.54</ele>
        <time>2015-09-20T08:15:17Z</time>
      </trkpt>
      <trkpt lat="44.5776" lon="4.30204">
        <ele>437.54</ele>
        <time>2015-09-20T08:15:20Z</time>
      </trkpt>
      <trkpt lat="44.57774" lon="4.30201">
        <ele>436.1</ele>
        <time>2015-09-20T08:15:23Z</time>
      </trkpt>
      <trkpt lat="44.57778" lon="4.30201">
        <ele>436.1</ele>
        <time>2015-09-20T08:15:24Z</time>
      </trkpt>
      <trkpt lat="44.57818" lon="4.30204">
        <ele>432.73</ele>
        <time>2015-09-20T08:15:31Z</time>
      </trkpt>
      <trkpt lat="44.57823" lon="4.30207">
        <ele>432.25</ele>
        <time>2015-09-20T08:15:32Z</time>
      </trkpt>
      <trkpt lat="44.57828" lon="4.30211">
        <ele>432.25</ele>
        <time>2015-09-20T08:15:33Z</time>
      </trkpt>
      <trkpt lat="44.5787" lon="4.30255">
        <ele>429.37</ele>
        <time>2015-09-20T08:15:44Z</time>
      </trkpt>
      <trkpt lat="44.5791" lon="4.30287">
        <ele>427.92</ele>
        <time>2015-09-20T08:15:55Z</time>
      </trkpt>
      <trkpt lat="44.57909" lon="4.30291">
        <ele>427.92</ele>
        <time>2015-09-20T08:15:56Z</time>
      </trkpt>
      <trkpt lat="44.57909" lon="4.30293">
        <ele>428.4</ele>
        <time>2015-09-20T08:15:57Z</time>
      </trkpt>
      <trkpt lat="44.57903" lon="4.30331">
        <ele>429.85</ele>
        <time>2015-09-20T08:16:09Z</time>
      </trkpt>
      <trkpt lat="44.57904" lon="4.30352">
        <ele>427.44</ele>
        <time>2015-09-20T08:16:15Z</time>
      </trkpt>
      <trkpt lat="44.57907" lon="4.30375">
        <ele>427.92</ele>
        <time>2015-09-20T08:16:21Z</time>
      </trkpt>
      <trkpt lat="44.57907" lon="4.3038">
        <ele>427.92</ele>
        <time>2015-09-20T08:16:22Z</time>
      </trkpt>
      <trkpt lat="44.57902" lon="4.30443">
        <ele>427.92</ele>
        <time>2015-09-20T08:16:34Z</time>
      </trkpt>
      <trkpt lat="44.57897" lon="4.30532">
        <ele>425.04</ele>
        <time>2015-09-20T08:16:48Z</time>
      </trkpt>
      <trkpt lat="44.57893" lon="4.30567">
        <ele>422.64</ele>
        <time>2015-09-20T08:16:53Z</time>
      </trkpt>
      <trkpt lat="44.57889" lon="4.30584">
        <ele>421.19</ele>
        <time>2015-09-20T08:16:55Z</time>
      </trkpt>
      <trkpt lat="44.57886" lon="4.3059">
        <ele>420.71</ele>
        <time>2015-09-20T08:16:56Z</time>
      </trkpt>
      <trkpt lat="44.57884" lon="4.30597">
        <ele>420.23</ele>
        <time>2015-09-20T08:16:57Z</time>
      </trkpt>
      <trkpt lat="44.57878" lon="4.30611">
        <ele>419.75</ele>
        <time>2015-09-20T08:16:59Z</time>
      </trkpt>
      <trkpt lat="44.57875" lon="4.30616">
        <ele>419.27</ele>
        <time>2015-09-20T08:17:00Z</time>
      </trkpt>
      <trkpt lat="44.57871" lon="4.3062">
        <ele>418.79</ele>
        <time>2015-09-20T08:17:01Z</time>
      </trkpt>
      <trkpt lat="44.57866" lon="4.30621">
        <ele>418.79</ele>
        <time>2015-09-20T08:17:02Z</time>
      </trkpt>
      <trkpt lat="44.57861" lon="4.30622">
        <ele>418.79</ele>
        <time>2015-09-20T08:17:03Z</time>
      </trkpt>
      <trkpt lat="44.57856" lon="4.30622">
        <ele>419.27</ele>
        <time>2015-09-20T08:17:04Z</time>
      </trkpt>
      <trkpt lat="44.57851" lon="4.3062">
        <ele>419.27</ele>
        <time>2015-09-20T08:17:05Z</time>
      </trkpt>
      <trkpt lat="44.57846" lon="4.30619">
        <ele>418.79</ele>
        <time>2015-09-20T08:17:06Z</time>
      </trkpt>
      <trkpt lat="44.5784" lon="4.3062">
        <ele>418.79</ele>
        <time>2015-09-20T08:17:07Z</time>
      </trkpt>
      <trkpt lat="44.57835" lon="4.30622">
        <ele>417.83</ele>
        <time>2015-09-20T08:17:08Z</time>
      </trkpt>
      <trkpt lat="44.57829" lon="4.30625">
        <ele>417.35</ele>
        <time>2015-09-20T08:17:09Z</time>
      </trkpt>
      <trkpt lat="44.57824" lon="4.3063">
        <ele>416.87</ele>
        <time>2015-09-20T08:17:10Z</time>
      </trkpt>
      <trkpt lat="44.57809" lon="4.30649">
        <ele>415.91</ele>
        <time>2015-09-20T08:17:14Z</time>
      </trkpt>
      <trkpt lat="44.57807" lon="4.30657">
        <ele>415.43</ele>
        <time>2015-09-20T08:17:15Z</time>
      </trkpt>
      <trkpt lat="44.57805" lon="4.30664">
        <ele>414.47</ele>
        <time>2015-09-20T08:17:16Z</time>
      </trkpt>
      <trkpt lat="44.57801" lon="4.30669">
        <ele>414.47</ele>
        <time>2015-09-20T08:17:17Z</time>
      </trkpt>
      <trkpt lat="44.57798" lon="4.30672">
        <ele>413.98</ele>
        <time>2015-09-20T08:17:18Z</time>
      </trkpt>
      <trkpt lat="44.57794" lon="4.30674">
        <ele>413.98</ele>
        <time>2015-09-20T08:17:19Z</time>
      </trkpt>
      <trkpt lat="44.57791" lon="4.30675">
        <ele>413.98</ele>
        <time>2015-09-20T08:17:20Z</time>
      </trkpt>
      <trkpt lat="44.57786" lon="4.30674">
        <ele>414.95</ele>
        <time>2015-09-20T08:17:21Z</time>
      </trkpt>
      <trkpt lat="44.57782" lon="4.30674">
        <ele>415.91</ele>
        <time>2015-09-20T08:17:22Z</time>
      </trkpt>
      <trkpt lat="44.57777" lon="4.30674">
        <ele>414.95</ele>
        <time>2015-09-20T08:17:23Z</time>
      </trkpt>
      <trkpt lat="44.57771" lon="4.30676">
        <ele>413.5</ele>
        <time>2015-09-20T08:17:24Z</time>
      </trkpt>
      <trkpt lat="44.57766" lon="4.3068">
        <ele>412.54</ele>
        <time>2015-09-20T08:17:25Z</time>
      </trkpt>
      <trkpt lat="44.57761" lon="4.30686">
        <ele>413.98</ele>
        <time>2015-09-20T08:17:26Z</time>
      </trkpt>
      <trkpt lat="44.57756" lon="4.30693">
        <ele>411.58</ele>
        <time>2015-09-20T08:17:27Z</time>
      </trkpt>
      <trkpt lat="44.57747" lon="4.30707">
        <ele>411.58</ele>
        <time>2015-09-20T08:17:29Z</time>
      </trkpt>
      <trkpt lat="44.57743" lon="4.30716">
        <ele>410.62</ele>
        <time>2015-09-20T08:17:30Z</time>
      </trkpt>
      <trkpt lat="44.5774" lon="4.30725">
        <ele>410.14</ele>
        <time>2015-09-20T08:17:31Z</time>
      </trkpt>
      <trkpt lat="44.57728" lon="4.30757">
        <ele>408.7</ele>
        <time>2015-09-20T08:17:34Z</time>
      </trkpt>
      <trkpt lat="44.57724" lon="4.30767">
        <ele>408.22</ele>
        <time>2015-09-20T08:17:35Z</time>
      </trkpt>
      <trkpt lat="44.57721" lon="4.30778">
        <ele>407.26</ele>
        <time>2015-09-20T08:17:36Z</time>
      </trkpt>
      <trkpt lat="44.57721" lon="4.30788">
        <ele>406.77</ele>
        <time>2015-09-20T08:17:37Z</time>
      </trkpt>
      <trkpt lat="44.57721" lon="4.30797">
        <ele>406.77</ele>
        <time>2015-09-20T08:17:38Z</time>
      </trkpt>
      <trkpt lat="44.57727" lon="4.30844">
        <ele>404.37</ele>
        <time>2015-09-20T08:17:43Z</time>
      </trkpt>
      <trkpt lat="44.57727" lon="4.30853">
        <ele>403.89</ele>
        <time>2015-09-20T08:17:44Z</time>
      </trkpt>
      <trkpt lat="44.57726" lon="4.30861">
        <ele>402.93</ele>
        <time>2015-09-20T08:17:45Z</time>
      </trkpt>
      <trkpt lat="44.57723" lon="4.30876">
        <ele>401.97</ele>
        <time>2015-09-20T08:17:47Z</time>
      </trkpt>
      <trkpt lat="44.57722" lon="4.30884">
        <ele>401.97</ele>
        <time>2015-09-20T08:17:48Z</time>
      </trkpt>
      <trkpt lat="44.57721" lon="4.30892">
        <ele>401.97</ele>
        <time>2015-09-20T08:17:49Z</time>
      </trkpt>
      <trkpt lat="44.57706" lon="4.30953">
        <ele>400.53</ele>
        <time>2015-09-20T08:17:57Z</time>
      </trkpt>
      <trkpt lat="44.57706" lon="4.3096">
        <ele>400.05</ele>
        <time>2015-09-20T08:17:58Z</time>
      </trkpt>
      <trkpt lat="44.57707" lon="4.30966">
        <ele>400.05</ele>
        <time>2015-09-20T08:17:59Z</time>
      </trkpt>
      <trkpt lat="44.57716" lon="4.30993">
        <ele>399.08</ele>
        <time>2015-09-20T08:18:08Z</time>
      </trkpt>
      <trkpt lat="44.57723" lon="4.31005">
        <ele>397.64</ele>
        <time>2015-09-20T08:18:17Z</time>
      </trkpt>
      <trkpt lat="44.57724" lon="4.31007">
        <ele>397.64</ele>
        <time>2015-09-20T08:18:18Z</time>
      </trkpt>
      <trkpt lat="44.57726" lon="4.31007">
        <ele>398.12</ele>
        <time>2015-09-20T08:18:19Z</time>
      </trkpt>
      <trkpt lat="44.57728" lon="4.31006">
        <ele>398.6</ele>
        <time>2015-09-20T08:18:20Z</time>
      </trkpt>
      <trkpt lat="44.5773" lon="4.31003">
        <ele>398.6</ele>
        <time>2015-09-20T08:18:21Z</time>
      </trkpt>
      <trkpt lat="44.57731" lon="4.30999">
        <ele>398.12</ele>
        <time>2015-09-20T08:18:22Z</time>
      </trkpt>
      <trkpt lat="44.57732" lon="4.30994">
        <ele>398.12</ele>
        <time>2015-09-20T08:18:23Z</time>
      </trkpt>
      <trkpt lat="44.57733" lon="4.30989">
        <ele>398.12</ele>
        <time>2015-09-20T08:18:24Z</time>
      </trkpt>
      <trkpt lat="44.57735" lon="4.30983">
        <ele>398.12</ele>
        <time>2015-09-20T08:18:25Z</time>
      </trkpt>
      <trkpt lat="44.57736" lon="4.30976">
        <ele>397.16</ele>
        <time>2015-09-20T08:18:26Z</time>
      </trkpt>
      <trkpt lat="44.57742" lon="4.30955">
        <ele>395.72</ele>
        <time>2015-09-20T08:18:29Z</time>
      </trkpt>
      <trkpt lat="44.57745" lon="4.30949">
        <ele>394.76</ele>
        <time>2015-09-20T08:18:30Z</time>
      </trkpt>
      <trkpt lat="44.57755" lon="4.30922">
        <ele>394.76</ele>
        <time>2015-09-20T08:18:34Z</time>
      </trkpt>
      <trkpt lat="44.57781" lon="4.30861">
        <ele>391.87</ele>
        <time>2015-09-20T08:18:47Z</time>
      </trkpt>
      <trkpt lat="44.57786" lon="4.30842">
        <ele>392.36</ele>
        <time>2015-09-20T08:18:53Z</time>
      </trkpt>
      <trkpt lat="44.57786" lon="4.30839">
        <ele>392.36</ele>
        <time>2015-09-20T08:18:54Z</time>
      </trkpt>
      <trkpt lat="44.57786" lon="4.30812">
        <ele>392.84</ele>
        <time>2015-09-20T08:19:05Z</time>
      </trkpt>
      <trkpt lat="44.57787" lon="4.30811">
        <ele>392.36</ele>
        <time>2015-09-20T08:19:06Z</time>
      </trkpt>
      <trkpt lat="44.57788" lon="4.3081">
        <ele>392.36</ele>
        <time>2015-09-20T08:19:07Z</time>
      </trkpt>
      <trkpt lat="44.57789" lon="4.30809">
        <ele>392.36</ele>
        <time>2015-09-20T08:19:08Z</time>
      </trkpt>
      <trkpt lat="44.57793" lon="4.30808">
        <ele>392.36</ele>
        <time>2015-09-20T08:19:10Z</time>
      </trkpt>
      <trkpt lat="44.57821" lon="4.30839">
        <ele>391.39</ele>
        <time>2015-09-20T08:19:24Z</time>
      </trkpt>
      <trkpt lat="44.5784" lon="4.30857">
        <ele>391.39</ele>
        <time>2015-09-20T08:19:35Z</time>
      </trkpt>
      <trkpt lat="44.57855" lon="4.30865">
        <ele>392.84</ele>
        <time>2015-09-20T08:19:40Z</time>
      </trkpt>
      <trkpt lat="44.57877" lon="4.3087">
        <ele>392.84</ele>
        <time>2015-09-20T08:19:47Z</time>
      </trkpt>
      <trkpt lat="44.57891" lon="4.30857">
        <ele>391.87</ele>
        <time>2015-09-20T08:19:53Z</time>
      </trkpt>
      <trkpt lat="44.57895" lon="4.30849">
        <ele>391.39</ele>
        <time>2015-09-20T08:19:56Z</time>
      </trkpt>
      <trkpt lat="44.57903" lon="4.30836">
        <ele>391.39</ele>
        <time>2015-09-20T08:20:02Z</time>
      </trkpt>
      <trkpt lat="44.57907" lon="4.30819">
        <ele>393.8</ele>
        <time>2015-09-20T08:20:10Z</time>
      </trkpt>
      <trkpt lat="44.57907" lon="4.30808">
        <ele>392.36</ele>
        <time>2015-09-20T08:20:14Z</time>
      </trkpt>
      <trkpt lat="44.57907" lon="4.30796">
        <ele>394.76</ele>
        <time>2015-09-20T08:20:22Z</time>
      </trkpt>
      <trkpt lat="44.57909" lon="4.30793">
        <ele>394.76</ele>
        <time>2015-09-20T08:20:24Z</time>
      </trkpt>
      <trkpt lat="44.57912" lon="4.30784">
        <ele>394.28</ele>
        <time>2015-09-20T08:20:32Z</time>
      </trkpt>
      <trkpt lat="44.57912" lon="4.30782">
        <ele>394.28</ele>
        <time>2015-09-20T08:20:34Z</time>
      </trkpt>
      <trkpt lat="44.57914" lon="4.30778">
        <ele>394.28</ele>
        <time>2015-09-20T08:20:37Z</time>
      </trkpt>
      <trkpt lat="44.57919" lon="4.30761">
        <ele>396.2</ele>
        <time>2015-09-20T08:20:49Z</time>
      </trkpt>
      <trkpt lat="44.57918" lon="4.3075">
        <ele>397.16</ele>
        <time>2015-09-20T08:20:56Z</time>
      </trkpt>
      <trkpt lat="44.5792" lon="4.30746">
        <ele>397.64</ele>
        <time>2015-09-20T08:20:59Z</time>
      </trkpt>
      <trkpt lat="44.57923" lon="4.30728">
        <ele>400.05</ele>
        <time>2015-09-20T08:21:10Z</time>
      </trkpt>
      <trkpt lat="44.57924" lon="4.30725">
        <ele>400.05</ele>
        <time>2015-09-20T08:21:12Z</time>
      </trkpt>
      <trkpt lat="44.57935" lon="4.30694">
        <ele>400.05</ele>
        <time>2015-09-20T08:21:25Z</time>
      </trkpt>
      <trkpt lat="44.57936" lon="4.30691">
        <ele>400.05</ele>
        <time>2015-09-20T08:21:26Z</time>
      </trkpt>
      <trkpt lat="44.57944" lon="4.3067">
        <ele>400.53</ele>
        <time>2015-09-20T08:21:34Z</time>
      </trkpt>
      <trkpt lat="44.57944" lon="4.30661">
        <ele>401.97</ele>
        <time>2015-09-20T08:21:37Z</time>
      </trkpt>
      <trkpt lat="44.57954" lon="4.3062">
        <ele>401.49</ele>
        <time>2015-09-20T08:21:49Z</time>
      </trkpt>
      <trkpt lat="44.57971" lon="4.30614">
        <ele>402.45</ele>
        <time>2015-09-20T08:21:58Z</time>
      </trkpt>
      <trkpt lat="44.57981" lon="4.30603">
        <ele>404.37</ele>
        <time>2015-09-20T08:22:03Z</time>
      </trkpt>
      <trkpt lat="44.58005" lon="4.30594">
        <ele>406.29</ele>
        <time>2015-09-20T08:22:16Z</time>
      </trkpt>
      <trkpt lat="44.5802" lon="4.30609">
        <ele>409.66</ele>
        <time>2015-09-20T08:22:28Z</time>
      </trkpt>
      <trkpt lat="44.58023" lon="4.30616">
        <ele>410.62</ele>
        <time>2015-09-20T08:22:32Z</time>
      </trkpt>
      <trkpt lat="44.58028" lon="4.30623">
        <ele>412.06</ele>
        <time>2015-09-20T08:22:36Z</time>
      </trkpt>
      <trkpt lat="44.58033" lon="4.30633">
        <ele>413.02</ele>
        <time>2015-09-20T08:22:41Z</time>
      </trkpt>
      <trkpt lat="44.58042" lon="4.30651">
        <ele>415.43</ele>
        <time>2015-09-20T08:22:51Z</time>
      </trkpt>
      <trkpt lat="44.58045" lon="4.30655">
        <ele>415.91</ele>
        <time>2015-09-20T08:22:53Z</time>
      </trkpt>
      <trkpt lat="44.58049" lon="4.30661">
        <ele>416.39</ele>
        <time>2015-09-20T08:22:57Z</time>
      </trkpt>
      <trkpt lat="44.58068" lon="4.30689">
        <ele>419.27</ele>
        <time>2015-09-20T08:23:08Z</time>
      </trkpt>
      <trkpt lat="44.58081" lon="4.30705">
        <ele>419.27</ele>
        <time>2015-09-20T08:23:16Z</time>
      </trkpt>
      <trkpt lat="44.58087" lon="4.30704">
        <ele>421.19</ele>
        <time>2015-09-20T08:23:20Z</time>
      </trkpt>
      <trkpt lat="44.58093" lon="4.307">
        <ele>422.16</ele>
        <time>2015-09-20T08:23:24Z</time>
      </trkpt>
      <trkpt lat="44.58091" lon="4.3068">
        <ele>421.68</ele>
        <time>2015-09-20T08:23:31Z</time>
      </trkpt>
      <trkpt lat="44.58103" lon="4.30668">
        <ele>422.64</ele>
        <time>2015-09-20T08:23:39Z</time>
      </trkpt>
      <trkpt lat="44.58124" lon="4.30697">
        <ele>423.12</ele>
        <time>2015-09-20T08:23:51Z</time>
      </trkpt>
      <trkpt lat="44.58131" lon="4.30715">
        <ele>424.56</ele>
        <time>2015-09-20T08:23:55Z</time>
      </trkpt>
      <trkpt lat="44.58153" lon="4.30764">
        <ele>426</ele>
        <time>2015-09-20T08:24:06Z</time>
      </trkpt>
      <trkpt lat="44.58164" lon="4.3078">
        <ele>425.52</ele>
        <time>2015-09-20T08:24:10Z</time>
      </trkpt>
      <trkpt lat="44.58167" lon="4.30784">
        <ele>425.04</ele>
        <time>2015-09-20T08:24:11Z</time>
      </trkpt>
      <trkpt lat="44.58169" lon="4.3079">
        <ele>424.56</ele>
        <time>2015-09-20T08:24:12Z</time>
      </trkpt>
      <trkpt lat="44.58188" lon="4.30834">
        <ele>423.12</ele>
        <time>2015-09-20T08:24:19Z</time>
      </trkpt>
      <trkpt lat="44.58197" lon="4.30847">
        <ele>423.12</ele>
        <time>2015-09-20T08:24:21Z</time>
      </trkpt>
      <trkpt lat="44.58208" lon="4.30871">
        <ele>423.12</ele>
        <time>2015-09-20T08:24:24Z</time>
      </trkpt>
      <trkpt lat="44.58212" lon="4.30878">
        <ele>422.64</ele>
        <time>2015-09-20T08:24:25Z</time>
      </trkpt>
      <trkpt lat="44.58216" lon="4.30884">
        <ele>422.16</ele>
        <time>2015-09-20T08:24:26Z</time>
      </trkpt>
      <trkpt lat="44.58231" lon="4.30911">
        <ele>419.75</ele>
        <time>2015-09-20T08:24:31Z</time>
      </trkpt>
      <trkpt lat="44.58234" lon="4.30916">
        <ele>419.27</ele>
        <time>2015-09-20T08:24:32Z</time>
      </trkpt>
      <trkpt lat="44.58237" lon="4.30922">
        <ele>419.27</ele>
        <time>2015-09-20T08:24:33Z</time>
      </trkpt>
      <trkpt lat="44.58245" lon="4.30939">
        <ele>417.83</ele>
        <time>2015-09-20T08:24:36Z</time>
      </trkpt>
      <trkpt lat="44.5825" lon="4.30952">
        <ele>416.39</ele>
        <time>2015-09-20T08:24:38Z</time>
      </trkpt>
      <trkpt lat="44.58262" lon="4.30971">
        <ele>414.95</ele>
        <time>2015-09-20T08:24:41Z</time>
      </trkpt>
      <trkpt lat="44.58275" lon="4.30988">
        <ele>413.98</ele>
        <time>2015-09-20T08:24:44Z</time>
      </trkpt>
      <trkpt lat="44.58278" lon="4.30994">
        <ele>413.98</ele>
        <time>2015-09-20T08:24:45Z</time>
      </trkpt>
      <trkpt lat="44.5828" lon="4.31">
        <ele>413.02</ele>
        <time>2015-09-20T08:24:46Z</time>
      </trkpt>
      <trkpt lat="44.58279" lon="4.31006">
        <ele>412.54</ele>
        <time>2015-09-20T08:24:47Z</time>
      </trkpt>
      <trkpt lat="44.58278" lon="4.31013">
        <ele>412.06</ele>
        <time>2015-09-20T08:24:48Z</time>
      </trkpt>
      <trkpt lat="44.58275" lon="4.31021">
        <ele>412.06</ele>
        <time>2015-09-20T08:24:49Z</time>
      </trkpt>
      <trkpt lat="44.58272" lon="4.31028">
        <ele>411.1</ele>
        <time>2015-09-20T08:24:50Z</time>
      </trkpt>
      <trkpt lat="44.5827" lon="4.31034">
        <ele>410.62</ele>
        <time>2015-09-20T08:24:51Z</time>
      </trkpt>
      <trkpt lat="44.58269" lon="4.3104">
        <ele>410.14</ele>
        <time>2015-09-20T08:24:52Z</time>
      </trkpt>
      <trkpt lat="44.58269" lon="4.31046">
        <ele>409.66</ele>
        <time>2015-09-20T08:24:53Z</time>
      </trkpt>
      <trkpt lat="44.58271" lon="4.31064">
        <ele>407.26</ele>
        <time>2015-09-20T08:24:57Z</time>
      </trkpt>
      <trkpt lat="44.58273" lon="4.31068">
        <ele>406.77</ele>
        <time>2015-09-20T08:24:58Z</time>
      </trkpt>
      <trkpt lat="44.58289" lon="4.31101">
        <ele>406.29</ele>
        <time>2015-09-20T08:25:05Z</time>
      </trkpt>
      <trkpt lat="44.58288" lon="4.31106">
        <ele>406.77</ele>
        <time>2015-09-20T08:25:06Z</time>
      </trkpt>
      <trkpt lat="44.58288" lon="4.31111">
        <ele>406.77</ele>
        <time>2015-09-20T08:25:07Z</time>
      </trkpt>
      <trkpt lat="44.58286" lon="4.31115">
        <ele>406.77</ele>
        <time>2015-09-20T08:25:08Z</time>
      </trkpt>
      <trkpt lat="44.58285" lon="4.3112">
        <ele>406.77</ele>
        <time>2015-09-20T08:25:09Z</time>
      </trkpt>
      <trkpt lat="44.58279" lon="4.3115">
        <ele>405.33</ele>
        <time>2015-09-20T08:25:15Z</time>
      </trkpt>
      <trkpt lat="44.58279" lon="4.31155">
        <ele>404.85</ele>
        <time>2015-09-20T08:25:16Z</time>
      </trkpt>
      <trkpt lat="44.5828" lon="4.31162">
        <ele>404.37</ele>
        <time>2015-09-20T08:25:17Z</time>
      </trkpt>
      <trkpt lat="44.58281" lon="4.312">
        <ele>402.93</ele>
        <time>2015-09-20T08:25:23Z</time>
      </trkpt>
      <trkpt lat="44.58281" lon="4.31208">
        <ele>402.93</ele>
        <time>2015-09-20T08:25:24Z</time>
      </trkpt>
      <trkpt lat="44.58279" lon="4.31253">
        <ele>401.97</ele>
        <time>2015-09-20T08:25:29Z</time>
      </trkpt>
      <trkpt lat="44.5828" lon="4.31261">
        <ele>401.97</ele>
        <time>2015-09-20T08:25:30Z</time>
      </trkpt>
      <trkpt lat="44.58292" lon="4.31324">
        <ele>402.45</ele>
        <time>2015-09-20T08:25:41Z</time>
      </trkpt>
      <trkpt lat="44.58302" lon="4.31361">
        <ele>403.89</ele>
        <time>2015-09-20T08:25:51Z</time>
      </trkpt>
      <trkpt lat="44.58319" lon="4.31386">
        <ele>402.93</ele>
        <time>2015-09-20T08:25:57Z</time>
      </trkpt>
      <trkpt lat="44.58323" lon="4.31391">
        <ele>402.45</ele>
        <time>2015-09-20T08:25:58Z</time>
      </trkpt>
      <trkpt lat="44.58337" lon="4.31405">
        <ele>401.49</ele>
        <time>2015-09-20T08:26:01Z</time>
      </trkpt>
      <trkpt lat="44.58341" lon="4.31409">
        <ele>401.49</ele>
        <time>2015-09-20T08:26:02Z</time>
      </trkpt>
      <trkpt lat="44.58346" lon="4.31412">
        <ele>401.49</ele>
        <time>2015-09-20T08:26:03Z</time>
      </trkpt>
      <trkpt lat="44.58351" lon="4.31414">
        <ele>401.01</ele>
        <time>2015-09-20T08:26:04Z</time>
      </trkpt>
      <trkpt lat="44.58357" lon="4.31416">
        <ele>401.01</ele>
        <time>2015-09-20T08:26:05Z</time>
      </trkpt>
      <trkpt lat="44.5839" lon="4.31425">
        <ele>401.01</ele>
        <time>2015-09-20T08:26:10Z</time>
      </trkpt>
      <trkpt lat="44.58403" lon="4.31431">
        <ele>399.57</ele>
        <time>2015-09-20T08:26:12Z</time>
      </trkpt>
      <trkpt lat="44.58426" lon="4.31448">
        <ele>397.64</ele>
        <time>2015-09-20T08:26:16Z</time>
      </trkpt>
      <trkpt lat="44.58431" lon="4.31453">
        <ele>397.16</ele>
        <time>2015-09-20T08:26:17Z</time>
      </trkpt>
      <trkpt lat="44.58437" lon="4.3146">
        <ele>396.2</ele>
        <time>2015-09-20T08:26:18Z</time>
      </trkpt>
      <trkpt lat="44.58441" lon="4.31469">
        <ele>395.72</ele>
        <time>2015-09-20T08:26:19Z</time>
      </trkpt>
      <trkpt lat="44.58445" lon="4.31479">
        <ele>395.24</ele>
        <time>2015-09-20T08:26:20Z</time>
      </trkpt>
      <trkpt lat="44.5845" lon="4.31487">
        <ele>394.76</ele>
        <time>2015-09-20T08:26:21Z</time>
      </trkpt>
      <trkpt lat="44.58455" lon="4.31495">
        <ele>393.8</ele>
        <time>2015-09-20T08:26:22Z</time>
      </trkpt>
      <trkpt lat="44.5846" lon="4.31502">
        <ele>393.8</ele>
        <time>2015-09-20T08:26:23Z</time>
      </trkpt>
      <trkpt lat="44.58465" lon="4.31507">
        <ele>393.32</ele>
        <time>2015-09-20T08:26:24Z</time>
      </trkpt>
      <trkpt lat="44.58471" lon="4.31512">
        <ele>392.36</ele>
        <time>2015-09-20T08:26:25Z</time>
      </trkpt>
      <trkpt lat="44.5849" lon="4.31514">
        <ele>391.87</ele>
        <time>2015-09-20T08:26:29Z</time>
      </trkpt>
      <trkpt lat="44.58511" lon="4.31509">
        <ele>389.95</ele>
        <time>2015-09-20T08:26:33Z</time>
      </trkpt>
      <trkpt lat="44.58539" lon="4.31504">
        <ele>388.99</ele>
        <time>2015-09-20T08:26:38Z</time>
      </trkpt>
      <trkpt lat="44.5855" lon="4.31501">
        <ele>388.51</ele>
        <time>2015-09-20T08:26:40Z</time>
      </trkpt>
      <trkpt lat="44.58555" lon="4.31501">
        <ele>388.03</ele>
        <time>2015-09-20T08:26:41Z</time>
      </trkpt>
      <trkpt lat="44.5856" lon="4.31501">
        <ele>388.03</ele>
        <time>2015-09-20T08:26:42Z</time>
      </trkpt>
      <trkpt lat="44.58566" lon="4.315">
        <ele>388.03</ele>
        <time>2015-09-20T08:26:43Z</time>
      </trkpt>
      <trkpt lat="44.58571" lon="4.31499">
        <ele>387.55</ele>
        <time>2015-09-20T08:26:44Z</time>
      </trkpt>
      <trkpt lat="44.58582" lon="4.31496">
        <ele>387.07</ele>
        <time>2015-09-20T08:26:51Z</time>
      </trkpt>
      <trkpt lat="44.58583" lon="4.31497">
        <ele>387.07</ele>
        <time>2015-09-20T08:26:52Z</time>
      </trkpt>
      <trkpt lat="44.58588" lon="4.31499">
        <ele>386.59</ele>
        <time>2015-09-20T08:26:54Z</time>
      </trkpt>
      <trkpt lat="44.5859" lon="4.31501">
        <ele>386.11</ele>
        <time>2015-09-20T08:26:55Z</time>
      </trkpt>
      <trkpt lat="44.58596" lon="4.3151">
        <ele>382.74</ele>
        <time>2015-09-20T08:26:58Z</time>
      </trkpt>
      <trkpt lat="44.586" lon="4.31519">
        <ele>378.42</ele>
        <time>2015-09-20T08:27:00Z</time>
      </trkpt>
      <trkpt lat="44.58613" lon="4.31526">
        <ele>375.05</ele>
        <time>2015-09-20T08:27:05Z</time>
      </trkpt>
      <trkpt lat="44.58626" lon="4.315">
        <ele>374.57</ele>
        <time>2015-09-20T08:27:17Z</time>
      </trkpt>
      <trkpt lat="44.58631" lon="4.31495">
        <ele>372.17</ele>
        <time>2015-09-20T08:27:21Z</time>
      </trkpt>
      <trkpt lat="44.58628" lon="4.31504">
        <ele>371.21</ele>
        <time>2015-09-20T08:27:25Z</time>
      </trkpt>
      <trkpt lat="44.58631" lon="4.31516">
        <ele>370.73</ele>
        <time>2015-09-20T08:27:28Z</time>
      </trkpt>
      <trkpt lat="44.58629" lon="4.31535">
        <ele>370.24</ele>
        <time>2015-09-20T08:27:32Z</time>
      </trkpt>
      <trkpt lat="44.58628" lon="4.31542">
        <ele>370.24</ele>
        <time>2015-09-20T08:27:33Z</time>
      </trkpt>
      <trkpt lat="44.58628" lon="4.31548">
        <ele>369.76</ele>
        <time>2015-09-20T08:27:34Z</time>
      </trkpt>
      <trkpt lat="44.58627" lon="4.31555">
        <ele>369.76</ele>
        <time>2015-09-20T08:27:35Z</time>
      </trkpt>
      <trkpt lat="44.58626" lon="4.31563">
        <ele>369.28</ele>
        <time>2015-09-20T08:27:36Z</time>
      </trkpt>
      <trkpt lat="44.58624" lon="4.31578">
        <ele>368.8</ele>
        <time>2015-09-20T08:27:38Z</time>
      </trkpt>
      <trkpt lat="44.5862" lon="4.31589">
        <ele>367.84</ele>
        <time>2015-09-20T08:27:40Z</time>
      </trkpt>
      <trkpt lat="44.58617" lon="4.31592">
        <ele>367.36</ele>
        <time>2015-09-20T08:27:41Z</time>
      </trkpt>
      <trkpt lat="44.58613" lon="4.31595">
        <ele>367.36</ele>
        <time>2015-09-20T08:27:42Z</time>
      </trkpt>
      <trkpt lat="44.58609" lon="4.31597">
        <ele>366.88</ele>
        <time>2015-09-20T08:27:43Z</time>
      </trkpt>
      <trkpt lat="44.58606" lon="4.316">
        <ele>366.4</ele>
        <time>2015-09-20T08:27:44Z</time>
      </trkpt>
      <trkpt lat="44.58603" lon="4.31608">
        <ele>365.92</ele>
        <time>2015-09-20T08:27:46Z</time>
      </trkpt>
      <trkpt lat="44.58606" lon="4.31611">
        <ele>365.44</ele>
        <time>2015-09-20T08:27:47Z</time>
      </trkpt>
      <trkpt lat="44.58612" lon="4.31612">
        <ele>365.44</ele>
        <time>2015-09-20T08:27:48Z</time>
      </trkpt>
      <trkpt lat="44.58625" lon="4.31613">
        <ele>364</ele>
        <time>2015-09-20T08:27:50Z</time>
      </trkpt>
      <trkpt lat="44.58631" lon="4.31613">
        <ele>363.04</ele>
        <time>2015-09-20T08:27:51Z</time>
      </trkpt>
      <trkpt lat="44.58648" lon="4.31603">
        <ele>359.67</ele>
        <time>2015-09-20T08:27:56Z</time>
      </trkpt>
      <trkpt lat="44.58656" lon="4.31583">
        <ele>356.31</ele>
        <time>2015-09-20T08:28:02Z</time>
      </trkpt>
      <trkpt lat="44.58659" lon="4.3158">
        <ele>355.83</ele>
        <time>2015-09-20T08:28:03Z</time>
      </trkpt>
      <trkpt lat="44.58662" lon="4.31577">
        <ele>355.34</ele>
        <time>2015-09-20T08:28:04Z</time>
      </trkpt>
      <trkpt lat="44.58672" lon="4.31571">
        <ele>352.46</ele>
        <time>2015-09-20T08:28:07Z</time>
      </trkpt>
      <trkpt lat="44.58678" lon="4.31565">
        <ele>351.02</ele>
        <time>2015-09-20T08:28:09Z</time>
      </trkpt>
      <trkpt lat="44.58685" lon="4.31558">
        <ele>349.1</ele>
        <time>2015-09-20T08:28:12Z</time>
      </trkpt>
      <trkpt lat="44.58688" lon="4.31543">
        <ele>346.21</ele>
        <time>2015-09-20T08:28:17Z</time>
      </trkpt>
      <trkpt lat="44.58689" lon="4.31537">
        <ele>345.25</ele>
        <time>2015-09-20T08:28:19Z</time>
      </trkpt>
      <trkpt lat="44.58691" lon="4.31533">
        <ele>345.25</ele>
        <time>2015-09-20T08:28:20Z</time>
      </trkpt>
      <trkpt lat="44.58695" lon="4.3153">
        <ele>345.25</ele>
        <time>2015-09-20T08:28:21Z</time>
      </trkpt>
      <trkpt lat="44.58707" lon="4.31522">
        <ele>345.25</ele>
        <time>2015-09-20T08:28:24Z</time>
      </trkpt>
      <trkpt lat="44.58716" lon="4.31519">
        <ele>344.77</ele>
        <time>2015-09-20T08:28:26Z</time>
      </trkpt>
      <trkpt lat="44.58734" lon="4.31517">
        <ele>341.89</ele>
        <time>2015-09-20T08:28:29Z</time>
      </trkpt>
      <trkpt lat="44.58738" lon="4.31517">
        <ele>340.92</ele>
        <time>2015-09-20T08:28:30Z</time>
      </trkpt>
      <trkpt lat="44.58741" lon="4.31519">
        <ele>340.92</ele>
        <time>2015-09-20T08:28:31Z</time>
      </trkpt>
      <trkpt lat="44.58742" lon="4.31505">
        <ele>339</ele>
        <time>2015-09-20T08:28:34Z</time>
      </trkpt>
      <trkpt lat="44.58751" lon="4.31504">
        <ele>336.6</ele>
        <time>2015-09-20T08:28:38Z</time>
      </trkpt>
      <trkpt lat="44.58755" lon="4.31504">
        <ele>336.12</ele>
        <time>2015-09-20T08:28:39Z</time>
      </trkpt>
      <trkpt lat="44.5877" lon="4.31495">
        <ele>332.75</ele>
        <time>2015-09-20T08:28:44Z</time>
      </trkpt>
      <trkpt lat="44.58775" lon="4.31489">
        <ele>331.79</ele>
        <time>2015-09-20T08:28:45Z</time>
      </trkpt>
      <trkpt lat="44.58778" lon="4.31483">
        <ele>330.83</ele>
        <time>2015-09-20T08:28:46Z</time>
      </trkpt>
      <trkpt lat="44.58781" lon="4.31479">
        <ele>329.87</ele>
        <time>2015-09-20T08:28:47Z</time>
      </trkpt>
      <trkpt lat="44.58785" lon="4.31476">
        <ele>329.39</ele>
        <time>2015-09-20T08:28:48Z</time>
      </trkpt>
      <trkpt lat="44.58788" lon="4.31475">
        <ele>328.91</ele>
        <time>2015-09-20T08:28:49Z</time>
      </trkpt>
      <trkpt lat="44.58788" lon="4.3147">
        <ele>327.95</ele>
        <time>2015-09-20T08:28:50Z</time>
      </trkpt>
      <trkpt lat="44.58788" lon="4.31472">
        <ele>327.47</ele>
        <time>2015-09-20T08:28:51Z</time>
      </trkpt>
      <trkpt lat="44.58786" lon="4.31475">
        <ele>326.5</ele>
        <time>2015-09-20T08:28:52Z</time>
      </trkpt>
      <trkpt lat="44.58784" lon="4.3148">
        <ele>326.02</ele>
        <time>2015-09-20T08:28:53Z</time>
      </trkpt>
      <trkpt lat="44.58783" lon="4.31485">
        <ele>325.06</ele>
        <time>2015-09-20T08:28:54Z</time>
      </trkpt>
      <trkpt lat="44.58785" lon="4.31497">
        <ele>324.1</ele>
        <time>2015-09-20T08:28:56Z</time>
      </trkpt>
      <trkpt lat="44.58788" lon="4.31502">
        <ele>323.14</ele>
        <time>2015-09-20T08:28:57Z</time>
      </trkpt>
      <trkpt lat="44.5879" lon="4.31506">
        <ele>322.18</ele>
        <time>2015-09-20T08:28:58Z</time>
      </trkpt>
      <trkpt lat="44.58792" lon="4.3151">
        <ele>321.22</ele>
        <time>2015-09-20T08:28:59Z</time>
      </trkpt>
      <trkpt lat="44.58794" lon="4.31514">
        <ele>321.22</ele>
        <time>2015-09-20T08:29:00Z</time>
      </trkpt>
      <trkpt lat="44.58794" lon="4.31519">
        <ele>320.74</ele>
        <time>2015-09-20T08:29:01Z</time>
      </trkpt>
      <trkpt lat="44.58794" lon="4.31524">
        <ele>319.78</ele>
        <time>2015-09-20T08:29:02Z</time>
      </trkpt>
      <trkpt lat="44.58793" lon="4.31529">
        <ele>318.81</ele>
        <time>2015-09-20T08:29:03Z</time>
      </trkpt>
      <trkpt lat="44.58791" lon="4.31535">
        <ele>317.85</ele>
        <time>2015-09-20T08:29:04Z</time>
      </trkpt>
      <trkpt lat="44.58786" lon="4.31556">
        <ele>316.41</ele>
        <time>2015-09-20T08:29:08Z</time>
      </trkpt>
      <trkpt lat="44.58779" lon="4.31575">
        <ele>314.49</ele>
        <time>2015-09-20T08:29:12Z</time>
      </trkpt>
      <trkpt lat="44.5878" lon="4.31578">
        <ele>314.49</ele>
        <time>2015-09-20T08:29:13Z</time>
      </trkpt>
      <trkpt lat="44.58782" lon="4.31579">
        <ele>314.49</ele>
        <time>2015-09-20T08:29:14Z</time>
      </trkpt>
      <trkpt lat="44.58784" lon="4.31578">
        <ele>314.49</ele>
        <time>2015-09-20T08:29:15Z</time>
      </trkpt>
      <trkpt lat="44.588" lon="4.31563">
        <ele>311.12</ele>
        <time>2015-09-20T08:29:20Z</time>
      </trkpt>
      <trkpt lat="44.58814" lon="4.31558">
        <ele>308.24</ele>
        <time>2015-09-20T08:29:24Z</time>
      </trkpt>
      <trkpt lat="44.58825" lon="4.3155">
        <ele>304.88</ele>
        <time>2015-09-20T08:29:28Z</time>
      </trkpt>
      <trkpt lat="44.58827" lon="4.31549">
        <ele>304.39</ele>
        <time>2015-09-20T08:29:29Z</time>
      </trkpt>
      <trkpt lat="44.5883" lon="4.31548">
        <ele>302.95</ele>
        <time>2015-09-20T08:29:32Z</time>
      </trkpt>
      <trkpt lat="44.58841" lon="4.31563">
        <ele>300.55</ele>
        <time>2015-09-20T08:29:42Z</time>
      </trkpt>
      <trkpt lat="44.58836" lon="4.31584">
        <ele>298.15</ele>
        <time>2015-09-20T08:29:51Z</time>
      </trkpt>
      <trkpt lat="44.58833" lon="4.31592">
        <ele>297.18</ele>
        <time>2015-09-20T08:29:57Z</time>
      </trkpt>
      <trkpt lat="44.58835" lon="4.31598">
        <ele>295.74</ele>
        <time>2015-09-20T08:30:01Z</time>
      </trkpt>
      <trkpt lat="44.58824" lon="4.31615">
        <ele>295.26</ele>
        <time>2015-09-20T08:30:03Z</time>
      </trkpt>
      <trkpt lat="44.58765" lon="4.31722">
        <ele>294.78</ele>
        <time>2015-09-20T08:30:13Z</time>
      </trkpt>
      <trkpt lat="44.58799" lon="4.31726">
        <ele>294.78</ele>
        <time>2015-09-20T08:30:14Z</time>
      </trkpt>
      <trkpt lat="44.58811" lon="4.3172">
        <ele>294.3</ele>
        <time>2015-09-20T08:30:23Z</time>
      </trkpt>
      <trkpt lat="44.58811" lon="4.3172">
        <ele>294.78</ele>
        <time>2015-09-20T08:30:33Z</time>
      </trkpt>
      <trkpt lat="44.58809" lon="4.31722">
        <ele>294.78</ele>
        <time>2015-09-20T08:30:34Z</time>
      </trkpt>
      <trkpt lat="44.58808" lon="4.31723">
        <ele>294.3</ele>
        <time>2015-09-20T08:30:35Z</time>
      </trkpt>
      <trkpt lat="44.58806" lon="4.31728">
        <ele>293.82</ele>
        <time>2015-09-20T08:30:37Z</time>
      </trkpt>
      <trkpt lat="44.58805" lon="4.3173">
        <ele>293.34</ele>
        <time>2015-09-20T08:30:38Z</time>
      </trkpt>
      <trkpt lat="44.58805" lon="4.3173">
        <ele>292.86</ele>
        <time>2015-09-20T08:30:43Z</time>
      </trkpt>
      <trkpt lat="44.58801" lon="4.31732">
        <ele>291.42</ele>
        <time>2015-09-20T08:30:46Z</time>
      </trkpt>
      <trkpt lat="44.588" lon="4.31733">
        <ele>291.42</ele>
        <time>2015-09-20T08:30:47Z</time>
      </trkpt>
      <trkpt lat="44.588" lon="4.31735">
        <ele>290.94</ele>
        <time>2015-09-20T08:30:48Z</time>
      </trkpt>
      <trkpt lat="44.58797" lon="4.31745">
        <ele>289.49</ele>
        <time>2015-09-20T08:30:50Z</time>
      </trkpt>
      <trkpt lat="44.58796" lon="4.31752">
        <ele>289.01</ele>
        <time>2015-09-20T08:30:51Z</time>
      </trkpt>
      <trkpt lat="44.58796" lon="4.31757">
        <ele>288.53</ele>
        <time>2015-09-20T08:30:52Z</time>
      </trkpt>
      <trkpt lat="44.588" lon="4.31778">
        <ele>286.13</ele>
        <time>2015-09-20T08:31:01Z</time>
      </trkpt>
      <trkpt lat="44.58796" lon="4.31773">
        <ele>286.61</ele>
        <time>2015-09-20T08:31:15Z</time>
      </trkpt>
      <trkpt lat="44.58795" lon="4.31774">
        <ele>287.09</ele>
        <time>2015-09-20T08:31:28Z</time>
      </trkpt>
      <trkpt lat="44.58794" lon="4.31773">
        <ele>287.57</ele>
        <time>2015-09-20T08:31:45Z</time>
      </trkpt>
      <trkpt lat="44.58794" lon="4.31773">
        <ele>287.57</ele>
        <time>2015-09-20T08:31:46Z</time>
      </trkpt>
      <trkpt lat="44.5879" lon="4.31772">
        <ele>287.09</ele>
        <time>2015-09-20T08:31:49Z</time>
      </trkpt>
      <trkpt lat="44.58783" lon="4.31772">
        <ele>287.57</ele>
        <time>2015-09-20T08:32:00Z</time>
      </trkpt>
      <trkpt lat="44.5878" lon="4.31775">
        <ele>287.57</ele>
        <time>2015-09-20T08:32:16Z</time>
      </trkpt>
      <trkpt lat="44.58774" lon="4.3178">
        <ele>287.57</ele>
        <time>2015-09-20T08:32:31Z</time>
      </trkpt>
      <trkpt lat="44.58767" lon="4.31778">
        <ele>288.05</ele>
        <time>2015-09-20T08:32:34Z</time>
      </trkpt>
      <trkpt lat="44.58759" lon="4.31772">
        <ele>288.53</ele>
        <time>2015-09-20T08:32:39Z</time>
      </trkpt>
      <trkpt lat="44.58755" lon="4.31767">
        <ele>289.01</ele>
        <time>2015-09-20T08:32:43Z</time>
      </trkpt>
      <trkpt lat="44.58747" lon="4.31767">
        <ele>289.97</ele>
        <time>2015-09-20T08:32:51Z</time>
      </trkpt>
      <trkpt lat="44.58742" lon="4.31765">
        <ele>289.49</ele>
        <time>2015-09-20T08:32:58Z</time>
      </trkpt>
      <trkpt lat="44.58739" lon="4.31772">
        <ele>290.94</ele>
        <time>2015-09-20T08:33:10Z</time>
      </trkpt>
      <trkpt lat="44.58733" lon="4.31776">
        <ele>290.46</ele>
        <time>2015-09-20T08:33:20Z</time>
      </trkpt>
      <trkpt lat="44.58713" lon="4.31781">
        <ele>289.49</ele>
        <time>2015-09-20T08:33:27Z</time>
      </trkpt>
      <trkpt lat="44.58692" lon="4.31795">
        <ele>288.05</ele>
        <time>2015-09-20T08:33:35Z</time>
      </trkpt>
      <trkpt lat="44.58689" lon="4.31803">
        <ele>288.53</ele>
        <time>2015-09-20T08:33:37Z</time>
      </trkpt>
      <trkpt lat="44.58681" lon="4.3181">
        <ele>288.53</ele>
        <time>2015-09-20T08:33:40Z</time>
      </trkpt>
      <trkpt lat="44.58669" lon="4.31818">
        <ele>288.05</ele>
        <time>2015-09-20T08:33:43Z</time>
      </trkpt>
      <trkpt lat="44.58642" lon="4.31841">
        <ele>284.69</ele>
        <time>2015-09-20T08:33:49Z</time>
      </trkpt>
      <trkpt lat="44.58637" lon="4.31847">
        <ele>284.69</ele>
        <time>2015-09-20T08:33:50Z</time>
      </trkpt>
      <trkpt lat="44.58632" lon="4.31854">
        <ele>284.69</ele>
        <time>2015-09-20T08:33:51Z</time>
      </trkpt>
      <trkpt lat="44.58606" lon="4.31893">
        <ele>285.17</ele>
        <time>2015-09-20T08:34:03Z</time>
      </trkpt>
      <trkpt lat="44.58596" lon="4.3191">
        <ele>285.65</ele>
        <time>2015-09-20T08:34:08Z</time>
      </trkpt>
      <trkpt lat="44.5859" lon="4.31922">
        <ele>286.61</ele>
        <time>2015-09-20T08:34:11Z</time>
      </trkpt>
      <trkpt lat="44.58583" lon="4.31932">
        <ele>285.65</ele>
        <time>2015-09-20T08:34:14Z</time>
      </trkpt>
      <trkpt lat="44.58565" lon="4.31972">
        <ele>285.65</ele>
        <time>2015-09-20T08:34:26Z</time>
      </trkpt>
      <trkpt lat="44.58559" lon="4.3198">
        <ele>284.21</ele>
        <time>2015-09-20T08:34:33Z</time>
      </trkpt>
      <trkpt lat="44.58551" lon="4.31987">
        <ele>285.17</ele>
        <time>2015-09-20T08:34:40Z</time>
      </trkpt>
      <trkpt lat="44.5853" lon="4.32009">
        <ele>283.73</ele>
        <time>2015-09-20T08:34:53Z</time>
      </trkpt>
      <trkpt lat="44.5853" lon="4.32009">
        <ele>284.21</ele>
        <time>2015-09-20T08:34:55Z</time>
      </trkpt>
      <trkpt lat="44.58514" lon="4.32038">
        <ele>286.13</ele>
        <time>2015-09-20T08:35:08Z</time>
      </trkpt>
      <trkpt lat="44.58496" lon="4.32068">
        <ele>286.61</ele>
        <time>2015-09-20T08:35:14Z</time>
      </trkpt>
      <trkpt lat="44.58489" lon="4.32095">
        <ele>286.61</ele>
        <time>2015-09-20T08:35:19Z</time>
      </trkpt>
      <trkpt lat="44.58485" lon="4.32128">
        <ele>285.17</ele>
        <time>2015-09-20T08:35:28Z</time>
      </trkpt>
      <trkpt lat="44.58486" lon="4.32135">
        <ele>285.17</ele>
        <time>2015-09-20T08:35:38Z</time>
      </trkpt>
      <trkpt lat="44.58488" lon="4.32142">
        <ele>284.21</ele>
        <time>2015-09-20T08:35:48Z</time>
      </trkpt>
      <trkpt lat="44.58492" lon="4.32144">
        <ele>285.17</ele>
        <time>2015-09-20T08:35:59Z</time>
      </trkpt>
      <trkpt lat="44.58487" lon="4.3214">
        <ele>288.05</ele>
        <time>2015-09-20T08:36:12Z</time>
      </trkpt>
      <trkpt lat="44.5848" lon="4.32143">
        <ele>289.49</ele>
        <time>2015-09-20T08:36:19Z</time>
      </trkpt>
      <trkpt lat="44.58477" lon="4.32143">
        <ele>289.97</ele>
        <time>2015-09-20T08:36:22Z</time>
      </trkpt>
      <trkpt lat="44.58466" lon="4.32158">
        <ele>290.46</ele>
        <time>2015-09-20T08:36:27Z</time>
      </trkpt>
      <trkpt lat="44.58458" lon="4.32178">
        <ele>293.34</ele>
        <time>2015-09-20T08:36:38Z</time>
      </trkpt>
      <trkpt lat="44.5846" lon="4.32193">
        <ele>295.74</ele>
        <time>2015-09-20T08:36:49Z</time>
      </trkpt>
      <trkpt lat="44.58465" lon="4.32197">
        <ele>297.18</ele>
        <time>2015-09-20T08:36:55Z</time>
      </trkpt>
      <trkpt lat="44.58477" lon="4.32202">
        <ele>299.59</ele>
        <time>2015-09-20T08:37:07Z</time>
      </trkpt>
      <trkpt lat="44.58478" lon="4.32209">
        <ele>301.51</ele>
        <time>2015-09-20T08:37:17Z</time>
      </trkpt>
      <trkpt lat="44.58479" lon="4.32218">
        <ele>302.95</ele>
        <time>2015-09-20T08:37:28Z</time>
      </trkpt>
      <trkpt lat="44.58487" lon="4.32225">
        <ele>305.36</ele>
        <time>2015-09-20T08:37:36Z</time>
      </trkpt>
      <trkpt lat="44.58489" lon="4.32233">
        <ele>306.32</ele>
        <time>2015-09-20T08:37:47Z</time>
      </trkpt>
      <trkpt lat="44.58494" lon="4.32234">
        <ele>306.8</ele>
        <time>2015-09-20T08:37:55Z</time>
      </trkpt>
      <trkpt lat="44.58501" lon="4.32237">
        <ele>307.76</ele>
        <time>2015-09-20T08:37:59Z</time>
      </trkpt>
      <trkpt lat="44.5851" lon="4.32239">
        <ele>308.72</ele>
        <time>2015-09-20T08:38:04Z</time>
      </trkpt>
      <trkpt lat="44.58525" lon="4.32243">
        <ele>310.16</ele>
        <time>2015-09-20T08:38:16Z</time>
      </trkpt>
      <trkpt lat="44.5853" lon="4.32243">
        <ele>311.6</ele>
        <time>2015-09-20T08:38:22Z</time>
      </trkpt>
      <trkpt lat="44.58539" lon="4.32248">
        <ele>314.49</ele>
        <time>2015-09-20T08:38:35Z</time>
      </trkpt>
      <trkpt lat="44.58542" lon="4.32249">
        <ele>315.45</ele>
        <time>2015-09-20T08:38:41Z</time>
      </trkpt>
      <trkpt lat="44.58546" lon="4.32249">
        <ele>317.37</ele>
        <time>2015-09-20T08:38:50Z</time>
      </trkpt>
      <trkpt lat="44.58544" lon="4.32254">
        <ele>318.33</ele>
        <time>2015-09-20T08:38:55Z</time>
      </trkpt>
      <trkpt lat="44.5854" lon="4.3226">
        <ele>320.26</ele>
        <time>2015-09-20T08:39:06Z</time>
      </trkpt>
      <trkpt lat="44.58537" lon="4.32265">
        <ele>320.26</ele>
        <time>2015-09-20T08:39:16Z</time>
      </trkpt>
      <trkpt lat="44.58537" lon="4.3227">
        <ele>320.74</ele>
        <time>2015-09-20T08:39:19Z</time>
      </trkpt>
      <trkpt lat="44.58534" lon="4.32288">
        <ele>318.81</ele>
        <time>2015-09-20T08:39:26Z</time>
      </trkpt>
      <trkpt lat="44.58535" lon="4.32286">
        <ele>319.78</ele>
        <time>2015-09-20T08:39:36Z</time>
      </trkpt>
      <trkpt lat="44.58529" lon="4.3229">
        <ele>321.22</ele>
        <time>2015-09-20T08:39:50Z</time>
      </trkpt>
      <trkpt lat="44.58526" lon="4.32292">
        <ele>321.7</ele>
        <time>2015-09-20T08:40:10Z</time>
      </trkpt>
      <trkpt lat="44.58526" lon="4.32292">
        <ele>321.7</ele>
        <time>2015-09-20T08:40:39Z</time>
      </trkpt>
      <trkpt lat="44.58524" lon="4.32295">
        <ele>321.7</ele>
        <time>2015-09-20T08:40:57Z</time>
      </trkpt>
      <trkpt lat="44.58524" lon="4.32295">
        <ele>321.7</ele>
        <time>2015-09-20T08:41:07Z</time>
      </trkpt>
      <trkpt lat="44.58512" lon="4.32309">
        <ele>321.7</ele>
        <time>2015-09-20T08:41:10Z</time>
      </trkpt>
      <trkpt lat="44.58491" lon="4.32318">
        <ele>319.78</ele>
        <time>2015-09-20T08:41:19Z</time>
      </trkpt>
      <trkpt lat="44.58486" lon="4.3232">
        <ele>319.3</ele>
        <time>2015-09-20T08:41:21Z</time>
      </trkpt>
      <trkpt lat="44.58463" lon="4.32338">
        <ele>319.3</ele>
        <time>2015-09-20T08:41:32Z</time>
      </trkpt>
      <trkpt lat="44.58461" lon="4.3234">
        <ele>318.81</ele>
        <time>2015-09-20T08:41:33Z</time>
      </trkpt>
      <trkpt lat="44.5845" lon="4.32347">
        <ele>319.3</ele>
        <time>2015-09-20T08:41:38Z</time>
      </trkpt>
      <trkpt lat="44.58445" lon="4.32355">
        <ele>320.26</ele>
        <time>2015-09-20T08:41:42Z</time>
      </trkpt>
      <trkpt lat="44.58429" lon="4.32365">
        <ele>321.22</ele>
        <time>2015-09-20T08:41:53Z</time>
      </trkpt>
      <trkpt lat="44.58418" lon="4.32372">
        <ele>322.18</ele>
        <time>2015-09-20T08:41:59Z</time>
      </trkpt>
      <trkpt lat="44.5841" lon="4.32378">
        <ele>322.66</ele>
        <time>2015-09-20T08:42:04Z</time>
      </trkpt>
      <trkpt lat="44.58407" lon="4.32377">
        <ele>323.62</ele>
        <time>2015-09-20T08:42:08Z</time>
      </trkpt>
      <trkpt lat="44.58403" lon="4.32375">
        <ele>324.1</ele>
        <time>2015-09-20T08:42:11Z</time>
      </trkpt>
      <trkpt lat="44.58376" lon="4.32379">
        <ele>326.02</ele>
        <time>2015-09-20T08:42:22Z</time>
      </trkpt>
      <trkpt lat="44.58355" lon="4.32389">
        <ele>327.95</ele>
        <time>2015-09-20T08:42:33Z</time>
      </trkpt>
      <trkpt lat="44.58353" lon="4.32389">
        <ele>327.95</ele>
        <time>2015-09-20T08:42:34Z</time>
      </trkpt>
      <trkpt lat="44.58336" lon="4.3242">
        <ele>329.87</ele>
        <time>2015-09-20T08:42:47Z</time>
      </trkpt>
      <trkpt lat="44.58334" lon="4.32422">
        <ele>330.83</ele>
        <time>2015-09-20T08:42:54Z</time>
      </trkpt>
      <trkpt lat="44.58333" lon="4.32415">
        <ele>331.79</ele>
        <time>2015-09-20T08:43:01Z</time>
      </trkpt>
      <trkpt lat="44.58325" lon="4.32408">
        <ele>331.79</ele>
        <time>2015-09-20T08:43:05Z</time>
      </trkpt>
      <trkpt lat="44.58312" lon="4.32406">
        <ele>332.27</ele>
        <time>2015-09-20T08:43:09Z</time>
      </trkpt>
      <trkpt lat="44.58284" lon="4.32406">
        <ele>333.23</ele>
        <time>2015-09-20T08:43:21Z</time>
      </trkpt>
      <trkpt lat="44.5826" lon="4.32417">
        <ele>333.71</ele>
        <time>2015-09-20T08:43:32Z</time>
      </trkpt>
      <trkpt lat="44.58251" lon="4.32421">
        <ele>335.16</ele>
        <time>2015-09-20T08:43:38Z</time>
      </trkpt>
      <trkpt lat="44.58244" lon="4.32424">
        <ele>336.12</ele>
        <time>2015-09-20T08:43:42Z</time>
      </trkpt>
      <trkpt lat="44.5823" lon="4.32439">
        <ele>338.52</ele>
        <time>2015-09-20T08:43:55Z</time>
      </trkpt>
      <trkpt lat="44.58224" lon="4.32448">
        <ele>339.96</ele>
        <time>2015-09-20T08:44:00Z</time>
      </trkpt>
      <trkpt lat="44.58221" lon="4.32449">
        <ele>340.92</ele>
        <time>2015-09-20T08:44:04Z</time>
      </trkpt>
      <trkpt lat="44.58218" lon="4.32453">
        <ele>341.89</ele>
        <time>2015-09-20T08:44:08Z</time>
      </trkpt>
      <trkpt lat="44.58216" lon="4.32456">
        <ele>342.37</ele>
        <time>2015-09-20T08:44:11Z</time>
      </trkpt>
      <trkpt lat="44.58211" lon="4.32457">
        <ele>342.85</ele>
        <time>2015-09-20T08:44:15Z</time>
      </trkpt>
      <trkpt lat="44.58207" lon="4.32462">
        <ele>343.33</ele>
        <time>2015-09-20T08:44:19Z</time>
      </trkpt>
      <trkpt lat="44.58192" lon="4.32475">
        <ele>345.73</ele>
        <time>2015-09-20T08:44:31Z</time>
      </trkpt>
      <trkpt lat="44.58191" lon="4.32477">
        <ele>345.73</ele>
        <time>2015-09-20T08:44:33Z</time>
      </trkpt>
      <trkpt lat="44.58187" lon="4.32484">
        <ele>346.21</ele>
        <time>2015-09-20T08:44:36Z</time>
      </trkpt>
      <trkpt lat="44.58173" lon="4.32504">
        <ele>348.62</ele>
        <time>2015-09-20T08:44:50Z</time>
      </trkpt>
      <trkpt lat="44.5817" lon="4.32518">
        <ele>350.06</ele>
        <time>2015-09-20T08:44:55Z</time>
      </trkpt>
      <trkpt lat="44.58169" lon="4.3253">
        <ele>350.06</ele>
        <time>2015-09-20T08:45:00Z</time>
      </trkpt>
      <trkpt lat="44.58164" lon="4.32538">
        <ele>350.06</ele>
        <time>2015-09-20T08:45:05Z</time>
      </trkpt>
      <trkpt lat="44.5816" lon="4.32546">
        <ele>350.06</ele>
        <time>2015-09-20T08:45:09Z</time>
      </trkpt>
      <trkpt lat="44.58159" lon="4.3255">
        <ele>350.06</ele>
        <time>2015-09-20T08:45:11Z</time>
      </trkpt>
      <trkpt lat="44.58156" lon="4.32564">
        <ele>350.54</ele>
        <time>2015-09-20T08:45:16Z</time>
      </trkpt>
      <trkpt lat="44.58157" lon="4.3259">
        <ele>351.98</ele>
        <time>2015-09-20T08:45:29Z</time>
      </trkpt>
      <trkpt lat="44.58156" lon="4.32593">
        <ele>351.98</ele>
        <time>2015-09-20T08:45:33Z</time>
      </trkpt>
      <trkpt lat="44.58154" lon="4.32598">
        <ele>352.46</ele>
        <time>2015-09-20T08:45:36Z</time>
      </trkpt>
      <trkpt lat="44.58152" lon="4.32607">
        <ele>353.9</ele>
        <time>2015-09-20T08:45:50Z</time>
      </trkpt>
      <trkpt lat="44.58154" lon="4.32607">
        <ele>354.38</ele>
        <time>2015-09-20T08:45:54Z</time>
      </trkpt>
      <trkpt lat="44.58157" lon="4.3261">
        <ele>355.83</ele>
        <time>2015-09-20T08:46:04Z</time>
      </trkpt>
      <trkpt lat="44.58157" lon="4.32609">
        <ele>357.75</ele>
        <time>2015-09-20T08:46:13Z</time>
      </trkpt>
      <trkpt lat="44.58154" lon="4.32606">
        <ele>357.75</ele>
        <time>2015-09-20T08:46:24Z</time>
      </trkpt>
      <trkpt lat="44.58154" lon="4.32606">
        <ele>358.23</ele>
        <time>2015-09-20T08:46:28Z</time>
      </trkpt>
      <trkpt lat="44.58147" lon="4.32604">
        <ele>359.19</ele>
        <time>2015-09-20T08:46:33Z</time>
      </trkpt>
      <trkpt lat="44.58139" lon="4.32602">
        <ele>360.63</ele>
        <time>2015-09-20T08:46:38Z</time>
      </trkpt>
      <trkpt lat="44.58134" lon="4.326">
        <ele>361.11</ele>
        <time>2015-09-20T08:46:41Z</time>
      </trkpt>
      <trkpt lat="44.58104" lon="4.32591">
        <ele>363.52</ele>
        <time>2015-09-20T08:46:55Z</time>
      </trkpt>
      <trkpt lat="44.58103" lon="4.32591">
        <ele>363.52</ele>
        <time>2015-09-20T08:46:56Z</time>
      </trkpt>
      <trkpt lat="44.5809" lon="4.32587">
        <ele>363.52</ele>
        <time>2015-09-20T08:47:03Z</time>
      </trkpt>
      <trkpt lat="44.58076" lon="4.32589">
        <ele>363.52</ele>
        <time>2015-09-20T08:47:15Z</time>
      </trkpt>
      <trkpt lat="44.58076" lon="4.32589">
        <ele>364</ele>
        <time>2015-09-20T08:47:36Z</time>
      </trkpt>
      <trkpt lat="44.58074" lon="4.32589">
        <ele>364</ele>
        <time>2015-09-20T08:47:56Z</time>
      </trkpt>
      <trkpt lat="44.58052" lon="4.32598">
        <ele>365.44</ele>
        <time>2015-09-20T08:48:09Z</time>
      </trkpt>
      <trkpt lat="44.58025" lon="4.32605">
        <ele>367.36</ele>
        <time>2015-09-20T08:48:21Z</time>
      </trkpt>
      <trkpt lat="44.58024" lon="4.32606">
        <ele>367.36</ele>
        <time>2015-09-20T08:48:22Z</time>
      </trkpt>
      <trkpt lat="44.58019" lon="4.32609">
        <ele>367.84</ele>
        <time>2015-09-20T08:48:26Z</time>
      </trkpt>
      <trkpt lat="44.58007" lon="4.32612">
        <ele>368.8</ele>
        <time>2015-09-20T08:48:31Z</time>
      </trkpt>
      <trkpt lat="44.57981" lon="4.32616">
        <ele>371.21</ele>
        <time>2015-09-20T08:48:45Z</time>
      </trkpt>
      <trkpt lat="44.57956" lon="4.32614">
        <ele>373.13</ele>
        <time>2015-09-20T08:48:59Z</time>
      </trkpt>
      <trkpt lat="44.57933" lon="4.32607">
        <ele>374.09</ele>
        <time>2015-09-20T08:49:12Z</time>
      </trkpt>
      <trkpt lat="44.5791" lon="4.3259">
        <ele>376.49</ele>
        <time>2015-09-20T08:49:27Z</time>
      </trkpt>
      <trkpt lat="44.5789" lon="4.3258">
        <ele>377.94</ele>
        <time>2015-09-20T08:49:39Z</time>
      </trkpt>
      <trkpt lat="44.5787" lon="4.32571">
        <ele>379.38</ele>
        <time>2015-09-20T08:49:52Z</time>
      </trkpt>
      <trkpt lat="44.57865" lon="4.32596">
        <ele>381.78</ele>
        <time>2015-09-20T08:50:05Z</time>
      </trkpt>
      <trkpt lat="44.57876" lon="4.32612">
        <ele>383.7</ele>
        <time>2015-09-20T08:50:15Z</time>
      </trkpt>
      <trkpt lat="44.57896" lon="4.32626">
        <ele>385.63</ele>
        <time>2015-09-20T08:50:29Z</time>
      </trkpt>
      <trkpt lat="44.57912" lon="4.32646">
        <ele>387.55</ele>
        <time>2015-09-20T08:50:43Z</time>
      </trkpt>
      <trkpt lat="44.57916" lon="4.32654">
        <ele>388.51</ele>
        <time>2015-09-20T08:50:48Z</time>
      </trkpt>
      <trkpt lat="44.57927" lon="4.3267">
        <ele>389.47</ele>
        <time>2015-09-20T08:50:57Z</time>
      </trkpt>
      <trkpt lat="44.5792" lon="4.3267">
        <ele>389.47</ele>
        <time>2015-09-20T08:51:06Z</time>
      </trkpt>
      <trkpt lat="44.57912" lon="4.32663">
        <ele>390.91</ele>
        <time>2015-09-20T08:51:13Z</time>
      </trkpt>
      <trkpt lat="44.57905" lon="4.32663">
        <ele>392.84</ele>
        <time>2015-09-20T08:51:23Z</time>
      </trkpt>
      <trkpt lat="44.57905" lon="4.32662">
        <ele>391.87</ele>
        <time>2015-09-20T08:51:33Z</time>
      </trkpt>
      <trkpt lat="44.57905" lon="4.32666">
        <ele>390.91</ele>
        <time>2015-09-20T08:51:42Z</time>
      </trkpt>
      <trkpt lat="44.57905" lon="4.32666">
        <ele>391.39</ele>
        <time>2015-09-20T08:52:12Z</time>
      </trkpt>
      <trkpt lat="44.57905" lon="4.32666">
        <ele>392.36</ele>
        <time>2015-09-20T08:52:44Z</time>
      </trkpt>
      <trkpt lat="44.57905" lon="4.32667">
        <ele>391.39</ele>
        <time>2015-09-20T08:53:13Z</time>
      </trkpt>
      <trkpt lat="44.57905" lon="4.32666">
        <ele>391.39</ele>
        <time>2015-09-20T08:53:44Z</time>
      </trkpt>
      <trkpt lat="44.57905" lon="4.32666">
        <ele>391.87</ele>
        <time>2015-09-20T08:54:15Z</time>
      </trkpt>
      <trkpt lat="44.57905" lon="4.32666">
        <ele>390.91</ele>
        <time>2015-09-20T08:54:44Z</time>
      </trkpt>
      <trkpt lat="44.57905" lon="4.32666">
        <ele>391.87</ele>
        <time>2015-09-20T08:55:11Z</time>
      </trkpt>
      <trkpt lat="44.57905" lon="4.32666">
        <ele>391.39</ele>
        <time>2015-09-20T08:55:40Z</time>
      </trkpt>
      <trkpt lat="44.57905" lon="4.32666">
        <ele>391.39</ele>
        <time>2015-09-20T08:56:03Z</time>
      </trkpt>
      <trkpt lat="44.57905" lon="4.32666">
        <ele>391.39</ele>
        <time>2015-09-20T08:56:31Z</time>
      </trkpt>
      <trkpt lat="44.57906" lon="4.32666">
        <ele>391.87</ele>
        <time>2015-09-20T08:57:00Z</time>
      </trkpt>
      <trkpt lat="44.57906" lon="4.32666">
        <ele>391.87</ele>
        <time>2015-09-20T08:57:30Z</time>
      </trkpt>
      <trkpt lat="44.57906" lon="4.32666">
        <ele>391.39</ele>
        <time>2015-09-20T08:58:08Z</time>
      </trkpt>
      <trkpt lat="44.57906" lon="4.32666">
        <ele>391.39</ele>
        <time>2015-09-20T08:58:40Z</time>
      </trkpt>
      <trkpt lat="44.57906" lon="4.32666">
        <ele>391.39</ele>
        <time>2015-09-20T08:58:44Z</time>
      </trkpt>
      <trkpt lat="44.57905" lon="4.32666">
        <ele>390.43</ele>
        <time>2015-09-20T08:58:55Z</time>
      </trkpt>
      <trkpt lat="44.57905" lon="4.32666">
        <ele>392.36</ele>
        <time>2015-09-20T08:59:16Z</time>
      </trkpt>
      <trkpt lat="44.57904" lon="4.32667">
        <ele>392.84</ele>
        <time>2015-09-20T08:59:24Z</time>
      </trkpt>
      <trkpt lat="44.579" lon="4.32671">
        <ele>394.28</ele>
        <time>2015-09-20T08:59:36Z</time>
      </trkpt>
      <trkpt lat="44.579" lon="4.32671">
        <ele>393.32</ele>
        <time>2015-09-20T08:59:47Z</time>
      </trkpt>
      <trkpt lat="44.57903" lon="4.32679">
        <ele>394.28</ele>
        <time>2015-09-20T08:59:54Z</time>
      </trkpt>
      <trkpt lat="44.57907" lon="4.32684">
        <ele>394.76</ele>
        <time>2015-09-20T08:59:59Z</time>
      </trkpt>
      <trkpt lat="44.5791" lon="4.3269">
        <ele>394.76</ele>
        <time>2015-09-20T09:00:03Z</time>
      </trkpt>
      <trkpt lat="44.57918" lon="4.32705">
        <ele>397.16</ele>
        <time>2015-09-20T09:00:13Z</time>
      </trkpt>
      <trkpt lat="44.57921" lon="4.32711">
        <ele>397.16</ele>
        <time>2015-09-20T09:00:17Z</time>
      </trkpt>
      <trkpt lat="44.57933" lon="4.32736">
        <ele>399.57</ele>
        <time>2015-09-20T09:00:33Z</time>
      </trkpt>
      <trkpt lat="44.57953" lon="4.3275">
        <ele>401.97</ele>
        <time>2015-09-20T09:00:47Z</time>
      </trkpt>
      <trkpt lat="44.57956" lon="4.3275">
        <ele>401.97</ele>
        <time>2015-09-20T09:00:49Z</time>
      </trkpt>
      <trkpt lat="44.57957" lon="4.32754">
        <ele>402.93</ele>
        <time>2015-09-20T09:00:52Z</time>
      </trkpt>
      <trkpt lat="44.57964" lon="4.32756">
        <ele>403.89</ele>
        <time>2015-09-20T09:00:56Z</time>
      </trkpt>
      <trkpt lat="44.57994" lon="4.3276">
        <ele>405.33</ele>
        <time>2015-09-20T09:01:13Z</time>
      </trkpt>
      <trkpt lat="44.58026" lon="4.32762">
        <ele>406.77</ele>
        <time>2015-09-20T09:01:29Z</time>
      </trkpt>
      <trkpt lat="44.5804" lon="4.32763">
        <ele>408.7</ele>
        <time>2015-09-20T09:01:37Z</time>
      </trkpt>
      <trkpt lat="44.58044" lon="4.32762">
        <ele>408.22</ele>
        <time>2015-09-20T09:01:48Z</time>
      </trkpt>
      <trkpt lat="44.58043" lon="4.32762">
        <ele>408.22</ele>
        <time>2015-09-20T09:02:08Z</time>
      </trkpt>
      <trkpt lat="44.58043" lon="4.32761">
        <ele>408.22</ele>
        <time>2015-09-20T09:02:29Z</time>
      </trkpt>
      <trkpt lat="44.58043" lon="4.32761">
        <ele>407.74</ele>
        <time>2015-09-20T09:02:59Z</time>
      </trkpt>
      <trkpt lat="44.58044" lon="4.32763">
        <ele>408.22</ele>
        <time>2015-09-20T09:03:19Z</time>
      </trkpt>
      <trkpt lat="44.58057" lon="4.32764">
        <ele>409.18</ele>
        <time>2015-09-20T09:03:29Z</time>
      </trkpt>
      <trkpt lat="44.58059" lon="4.32765">
        <ele>408.7</ele>
        <time>2015-09-20T09:03:30Z</time>
      </trkpt>
      <trkpt lat="44.58065" lon="4.32764">
        <ele>407.74</ele>
        <time>2015-09-20T09:03:32Z</time>
      </trkpt>
      <trkpt lat="44.5807" lon="4.32763">
        <ele>407.26</ele>
        <time>2015-09-20T09:03:33Z</time>
      </trkpt>
      <trkpt lat="44.58074" lon="4.32762">
        <ele>406.77</ele>
        <time>2015-09-20T09:03:34Z</time>
      </trkpt>
      <trkpt lat="44.58079" lon="4.32761">
        <ele>406.29</ele>
        <time>2015-09-20T09:03:35Z</time>
      </trkpt>
      <trkpt lat="44.58084" lon="4.32761">
        <ele>405.33</ele>
        <time>2015-09-20T09:03:36Z</time>
      </trkpt>
      <trkpt lat="44.58099" lon="4.32759">
        <ele>403.89</ele>
        <time>2015-09-20T09:03:39Z</time>
      </trkpt>
      <trkpt lat="44.58105" lon="4.3276">
        <ele>403.41</ele>
        <time>2015-09-20T09:03:40Z</time>
      </trkpt>
      <trkpt lat="44.5811" lon="4.32763">
        <ele>403.41</ele>
        <time>2015-09-20T09:03:41Z</time>
      </trkpt>
      <trkpt lat="44.58114" lon="4.32766">
        <ele>402.93</ele>
        <time>2015-09-20T09:03:42Z</time>
      </trkpt>
      <trkpt lat="44.58118" lon="4.3277">
        <ele>402.93</ele>
        <time>2015-09-20T09:03:43Z</time>
      </trkpt>
      <trkpt lat="44.58121" lon="4.32774">
        <ele>402.93</ele>
        <time>2015-09-20T09:03:44Z</time>
      </trkpt>
      <trkpt lat="44.58128" lon="4.32781">
        <ele>402.93</ele>
        <time>2015-09-20T09:03:46Z</time>
      </trkpt>
      <trkpt lat="44.5813" lon="4.32786">
        <ele>403.41</ele>
        <time>2015-09-20T09:03:47Z</time>
      </trkpt>
      <trkpt lat="44.58132" lon="4.3279">
        <ele>403.41</ele>
        <time>2015-09-20T09:03:48Z</time>
      </trkpt>
      <trkpt lat="44.58133" lon="4.32793">
        <ele>403.89</ele>
        <time>2015-09-20T09:03:49Z</time>
      </trkpt>
      <trkpt lat="44.58135" lon="4.32796">
        <ele>403.89</ele>
        <time>2015-09-20T09:03:50Z</time>
      </trkpt>
      <trkpt lat="44.58137" lon="4.32799">
        <ele>404.37</ele>
        <time>2015-09-20T09:03:51Z</time>
      </trkpt>
      <trkpt lat="44.58145" lon="4.32815">
        <ele>404.85</ele>
        <time>2015-09-20T09:03:57Z</time>
      </trkpt>
      <trkpt lat="44.58152" lon="4.32822">
        <ele>405.33</ele>
        <time>2015-09-20T09:04:02Z</time>
      </trkpt>
      <trkpt lat="44.58186" lon="4.32805">
        <ele>405.81</ele>
        <time>2015-09-20T09:04:13Z</time>
      </trkpt>
      <trkpt lat="44.58205" lon="4.3278">
        <ele>406.29</ele>
        <time>2015-09-20T09:04:24Z</time>
      </trkpt>
      <trkpt lat="44.58231" lon="4.32739">
        <ele>407.74</ele>
        <time>2015-09-20T09:04:32Z</time>
      </trkpt>
      <trkpt lat="44.58233" lon="4.32735">
        <ele>407.26</ele>
        <time>2015-09-20T09:04:33Z</time>
      </trkpt>
      <trkpt lat="44.58236" lon="4.3273">
        <ele>407.26</ele>
        <time>2015-09-20T09:04:34Z</time>
      </trkpt>
      <trkpt lat="44.58239" lon="4.32728">
        <ele>407.26</ele>
        <time>2015-09-20T09:04:35Z</time>
      </trkpt>
      <trkpt lat="44.58242" lon="4.32725">
        <ele>407.26</ele>
        <time>2015-09-20T09:04:36Z</time>
      </trkpt>
      <trkpt lat="44.58246" lon="4.32721">
        <ele>407.26</ele>
        <time>2015-09-20T09:04:37Z</time>
      </trkpt>
      <trkpt lat="44.58269" lon="4.32702">
        <ele>406.77</ele>
        <time>2015-09-20T09:04:43Z</time>
      </trkpt>
      <trkpt lat="44.58273" lon="4.327">
        <ele>406.77</ele>
        <time>2015-09-20T09:04:44Z</time>
      </trkpt>
      <trkpt lat="44.58277" lon="4.32696">
        <ele>406.29</ele>
        <time>2015-09-20T09:04:45Z</time>
      </trkpt>
      <trkpt lat="44.58308" lon="4.32687">
        <ele>405.81</ele>
        <time>2015-09-20T09:04:55Z</time>
      </trkpt>
      <trkpt lat="44.58341" lon="4.32695">
        <ele>406.77</ele>
        <time>2015-09-20T09:05:06Z</time>
      </trkpt>
      <trkpt lat="44.58362" lon="4.32692">
        <ele>406.29</ele>
        <time>2015-09-20T09:05:14Z</time>
      </trkpt>
      <trkpt lat="44.5839" lon="4.32686">
        <ele>406.29</ele>
        <time>2015-09-20T09:05:26Z</time>
      </trkpt>
      <trkpt lat="44.58412" lon="4.32682">
        <ele>406.77</ele>
        <time>2015-09-20T09:05:35Z</time>
      </trkpt>
      <trkpt lat="44.58415" lon="4.32682">
        <ele>406.77</ele>
        <time>2015-09-20T09:05:36Z</time>
      </trkpt>
      <trkpt lat="44.58417" lon="4.32682">
        <ele>406.77</ele>
        <time>2015-09-20T09:05:37Z</time>
      </trkpt>
      <trkpt lat="44.58455" lon="4.32672">
        <ele>407.74</ele>
        <time>2015-09-20T09:05:49Z</time>
      </trkpt>
      <trkpt lat="44.5846" lon="4.32669">
        <ele>406.77</ele>
        <time>2015-09-20T09:05:52Z</time>
      </trkpt>
      <trkpt lat="44.5847" lon="4.32668">
        <ele>406.29</ele>
        <time>2015-09-20T09:05:57Z</time>
      </trkpt>
      <trkpt lat="44.58475" lon="4.32667">
        <ele>405.81</ele>
        <time>2015-09-20T09:05:58Z</time>
      </trkpt>
      <trkpt lat="44.58515" lon="4.32643">
        <ele>402.45</ele>
        <time>2015-09-20T09:06:07Z</time>
      </trkpt>
      <trkpt lat="44.58543" lon="4.32633">
        <ele>400.05</ele>
        <time>2015-09-20T09:06:13Z</time>
      </trkpt>
      <trkpt lat="44.58547" lon="4.3263">
        <ele>400.05</ele>
        <time>2015-09-20T09:06:14Z</time>
      </trkpt>
      <trkpt lat="44.58549" lon="4.32627">
        <ele>399.57</ele>
        <time>2015-09-20T09:06:15Z</time>
      </trkpt>
      <trkpt lat="44.58552" lon="4.32624">
        <ele>399.57</ele>
        <time>2015-09-20T09:06:16Z</time>
      </trkpt>
      <trkpt lat="44.58555" lon="4.32621">
        <ele>399.08</ele>
        <time>2015-09-20T09:06:17Z</time>
      </trkpt>
      <trkpt lat="44.58557" lon="4.3262">
        <ele>399.08</ele>
        <time>2015-09-20T09:06:18Z</time>
      </trkpt>
      <trkpt lat="44.58561" lon="4.32617">
        <ele>399.08</ele>
        <time>2015-09-20T09:06:19Z</time>
      </trkpt>
      <trkpt lat="44.58571" lon="4.3261">
        <ele>398.6</ele>
        <time>2015-09-20T09:06:22Z</time>
      </trkpt>
      <trkpt lat="44.58582" lon="4.32602">
        <ele>396.68</ele>
        <time>2015-09-20T09:06:25Z</time>
      </trkpt>
      <trkpt lat="44.58587" lon="4.32601">
        <ele>396.2</ele>
        <time>2015-09-20T09:06:26Z</time>
      </trkpt>
      <trkpt lat="44.5859" lon="4.32599">
        <ele>395.72</ele>
        <time>2015-09-20T09:06:27Z</time>
      </trkpt>
      <trkpt lat="44.58599" lon="4.32592">
        <ele>394.76</ele>
        <time>2015-09-20T09:06:30Z</time>
      </trkpt>
      <trkpt lat="44.58611" lon="4.32591">
        <ele>393.32</ele>
        <time>2015-09-20T09:06:33Z</time>
      </trkpt>
      <trkpt lat="44.58627" lon="4.32589">
        <ele>392.84</ele>
        <time>2015-09-20T09:06:37Z</time>
      </trkpt>
      <trkpt lat="44.58662" lon="4.32591">
        <ele>389.95</ele>
        <time>2015-09-20T09:06:46Z</time>
      </trkpt>
      <trkpt lat="44.58687" lon="4.32601">
        <ele>388.99</ele>
        <time>2015-09-20T09:06:55Z</time>
      </trkpt>
      <trkpt lat="44.58708" lon="4.32623">
        <ele>390.91</ele>
        <time>2015-09-20T09:07:06Z</time>
      </trkpt>
      <trkpt lat="44.58709" lon="4.32625">
        <ele>390.91</ele>
        <time>2015-09-20T09:07:08Z</time>
      </trkpt>
      <trkpt lat="44.58709" lon="4.32628">
        <ele>390.91</ele>
        <time>2015-09-20T09:07:09Z</time>
      </trkpt>
      <trkpt lat="44.5871" lon="4.3263">
        <ele>390.91</ele>
        <time>2015-09-20T09:07:10Z</time>
      </trkpt>
      <trkpt lat="44.58711" lon="4.32631">
        <ele>390.91</ele>
        <time>2015-09-20T09:07:11Z</time>
      </trkpt>
      <trkpt lat="44.58712" lon="4.32633">
        <ele>390.91</ele>
        <time>2015-09-20T09:07:12Z</time>
      </trkpt>
      <trkpt lat="44.58713" lon="4.32634">
        <ele>391.87</ele>
        <time>2015-09-20T09:07:13Z</time>
      </trkpt>
      <trkpt lat="44.58716" lon="4.32638">
        <ele>393.32</ele>
        <time>2015-09-20T09:07:15Z</time>
      </trkpt>
      <trkpt lat="44.58732" lon="4.32653">
        <ele>393.32</ele>
        <time>2015-09-20T09:07:27Z</time>
      </trkpt>
      <trkpt lat="44.58736" lon="4.3266">
        <ele>394.28</ele>
        <time>2015-09-20T09:07:31Z</time>
      </trkpt>
      <trkpt lat="44.58739" lon="4.32683">
        <ele>396.2</ele>
        <time>2015-09-20T09:07:43Z</time>
      </trkpt>
      <trkpt lat="44.58739" lon="4.32684">
        <ele>396.68</ele>
        <time>2015-09-20T09:07:45Z</time>
      </trkpt>
      <trkpt lat="44.58741" lon="4.32685">
        <ele>397.16</ele>
        <time>2015-09-20T09:07:48Z</time>
      </trkpt>
      <trkpt lat="44.58742" lon="4.32692">
        <ele>398.12</ele>
        <time>2015-09-20T09:07:53Z</time>
      </trkpt>
      <trkpt lat="44.58751" lon="4.3271">
        <ele>398.12</ele>
        <time>2015-09-20T09:08:02Z</time>
      </trkpt>
      <trkpt lat="44.58754" lon="4.32714">
        <ele>398.12</ele>
        <time>2015-09-20T09:08:04Z</time>
      </trkpt>
      <trkpt lat="44.5876" lon="4.32718">
        <ele>398.12</ele>
        <time>2015-09-20T09:08:07Z</time>
      </trkpt>
      <trkpt lat="44.58767" lon="4.32728">
        <ele>400.05</ele>
        <time>2015-09-20T09:08:12Z</time>
      </trkpt>
      <trkpt lat="44.58783" lon="4.32749">
        <ele>400.05</ele>
        <time>2015-09-20T09:08:21Z</time>
      </trkpt>
      <trkpt lat="44.58793" lon="4.3276">
        <ele>400.53</ele>
        <time>2015-09-20T09:08:27Z</time>
      </trkpt>
      <trkpt lat="44.58812" lon="4.3278">
        <ele>403.41</ele>
        <time>2015-09-20T09:08:40Z</time>
      </trkpt>
      <trkpt lat="44.58831" lon="4.328">
        <ele>406.29</ele>
        <time>2015-09-20T09:08:55Z</time>
      </trkpt>
      <trkpt lat="44.58843" lon="4.32807">
        <ele>406.77</ele>
        <time>2015-09-20T09:09:02Z</time>
      </trkpt>
      <trkpt lat="44.58851" lon="4.32812">
        <ele>408.7</ele>
        <time>2015-09-20T09:09:09Z</time>
      </trkpt>
      <trkpt lat="44.58856" lon="4.32817">
        <ele>408.7</ele>
        <time>2015-09-20T09:09:12Z</time>
      </trkpt>
      <trkpt lat="44.58862" lon="4.32818">
        <ele>409.18</ele>
        <time>2015-09-20T09:09:15Z</time>
      </trkpt>
      <trkpt lat="44.58878" lon="4.32823">
        <ele>412.06</ele>
        <time>2015-09-20T09:09:26Z</time>
      </trkpt>
      <trkpt lat="44.58902" lon="4.3284">
        <ele>413.02</ele>
        <time>2015-09-20T09:09:39Z</time>
      </trkpt>
      <trkpt lat="44.58905" lon="4.32841">
        <ele>413.5</ele>
        <time>2015-09-20T09:09:41Z</time>
      </trkpt>
      <trkpt lat="44.58912" lon="4.32847">
        <ele>414.95</ele>
        <time>2015-09-20T09:09:45Z</time>
      </trkpt>
      <trkpt lat="44.58936" lon="4.3287">
        <ele>417.35</ele>
        <time>2015-09-20T09:09:58Z</time>
      </trkpt>
      <trkpt lat="44.58949" lon="4.32887">
        <ele>419.27</ele>
        <time>2015-09-20T09:10:08Z</time>
      </trkpt>
      <trkpt lat="44.58955" lon="4.329">
        <ele>420.23</ele>
        <time>2015-09-20T09:10:13Z</time>
      </trkpt>
      <trkpt lat="44.5896" lon="4.32909">
        <ele>420.71</ele>
        <time>2015-09-20T09:10:17Z</time>
      </trkpt>
      <trkpt lat="44.58966" lon="4.32923">
        <ele>421.19</ele>
        <time>2015-09-20T09:10:23Z</time>
      </trkpt>
      <trkpt lat="44.58983" lon="4.32957">
        <ele>420.23</ele>
        <time>2015-09-20T09:10:33Z</time>
      </trkpt>
      <trkpt lat="44.59005" lon="4.33">
        <ele>421.19</ele>
        <time>2015-09-20T09:10:43Z</time>
      </trkpt>
      <trkpt lat="44.59027" lon="4.33029">
        <ele>422.64</ele>
        <time>2015-09-20T09:10:54Z</time>
      </trkpt>
      <trkpt lat="44.59058" lon="4.33056">
        <ele>423.6</ele>
        <time>2015-09-20T09:11:04Z</time>
      </trkpt>
      <trkpt lat="44.59064" lon="4.33063">
        <ele>423.12</ele>
        <time>2015-09-20T09:11:06Z</time>
      </trkpt>
      <trkpt lat="44.59095" lon="4.33092">
        <ele>422.16</ele>
        <time>2015-09-20T09:11:14Z</time>
      </trkpt>
      <trkpt lat="44.591" lon="4.33094">
        <ele>422.16</ele>
        <time>2015-09-20T09:11:15Z</time>
      </trkpt>
      <trkpt lat="44.59104" lon="4.33096">
        <ele>422.16</ele>
        <time>2015-09-20T09:11:16Z</time>
      </trkpt>
      <trkpt lat="44.59115" lon="4.33098">
        <ele>422.16</ele>
        <time>2015-09-20T09:11:18Z</time>
      </trkpt>
      <trkpt lat="44.59119" lon="4.33098">
        <ele>422.64</ele>
        <time>2015-09-20T09:11:19Z</time>
      </trkpt>
      <trkpt lat="44.59123" lon="4.33098">
        <ele>422.16</ele>
        <time>2015-09-20T09:11:20Z</time>
      </trkpt>
      <trkpt lat="44.59128" lon="4.331">
        <ele>422.64</ele>
        <time>2015-09-20T09:11:21Z</time>
      </trkpt>
      <trkpt lat="44.59133" lon="4.33101">
        <ele>422.16</ele>
        <time>2015-09-20T09:11:22Z</time>
      </trkpt>
      <trkpt lat="44.59138" lon="4.33104">
        <ele>422.16</ele>
        <time>2015-09-20T09:11:23Z</time>
      </trkpt>
      <trkpt lat="44.5915" lon="4.33116">
        <ele>421.68</ele>
        <time>2015-09-20T09:11:26Z</time>
      </trkpt>
      <trkpt lat="44.59154" lon="4.33121">
        <ele>421.68</ele>
        <time>2015-09-20T09:11:27Z</time>
      </trkpt>
      <trkpt lat="44.59174" lon="4.33137">
        <ele>421.19</ele>
        <time>2015-09-20T09:11:32Z</time>
      </trkpt>
      <trkpt lat="44.59178" lon="4.33137">
        <ele>421.19</ele>
        <time>2015-09-20T09:11:33Z</time>
      </trkpt>
      <trkpt lat="44.59181" lon="4.33138">
        <ele>420.71</ele>
        <time>2015-09-20T09:11:34Z</time>
      </trkpt>
      <trkpt lat="44.59185" lon="4.33135">
        <ele>421.19</ele>
        <time>2015-09-20T09:11:35Z</time>
      </trkpt>
      <trkpt lat="44.59188" lon="4.33131">
        <ele>420.71</ele>
        <time>2015-09-20T09:11:36Z</time>
      </trkpt>
      <trkpt lat="44.59191" lon="4.33127">
        <ele>420.71</ele>
        <time>2015-09-20T09:11:37Z</time>
      </trkpt>
      <trkpt lat="44.592" lon="4.33124">
        <ele>420.71</ele>
        <time>2015-09-20T09:11:40Z</time>
      </trkpt>
      <trkpt lat="44.59202" lon="4.3312">
        <ele>421.19</ele>
        <time>2015-09-20T09:11:41Z</time>
      </trkpt>
      <trkpt lat="44.59202" lon="4.33115">
        <ele>420.71</ele>
        <time>2015-09-20T09:11:42Z</time>
      </trkpt>
      <trkpt lat="44.59203" lon="4.3311">
        <ele>421.19</ele>
        <time>2015-09-20T09:11:43Z</time>
      </trkpt>
      <trkpt lat="44.59204" lon="4.33104">
        <ele>421.19</ele>
        <time>2015-09-20T09:11:44Z</time>
      </trkpt>
      <trkpt lat="44.59205" lon="4.33098">
        <ele>421.19</ele>
        <time>2015-09-20T09:11:45Z</time>
      </trkpt>
      <trkpt lat="44.59206" lon="4.33091">
        <ele>420.71</ele>
        <time>2015-09-20T09:11:46Z</time>
      </trkpt>
      <trkpt lat="44.59207" lon="4.33084">
        <ele>420.23</ele>
        <time>2015-09-20T09:11:47Z</time>
      </trkpt>
      <trkpt lat="44.5921" lon="4.33046">
        <ele>420.23</ele>
        <time>2015-09-20T09:11:52Z</time>
      </trkpt>
      <trkpt lat="44.59212" lon="4.33017">
        <ele>419.75</ele>
        <time>2015-09-20T09:12:00Z</time>
      </trkpt>
      <trkpt lat="44.59211" lon="4.33015">
        <ele>420.23</ele>
        <time>2015-09-20T09:12:11Z</time>
      </trkpt>
      <trkpt lat="44.59211" lon="4.33013">
        <ele>420.23</ele>
        <time>2015-09-20T09:12:12Z</time>
      </trkpt>
      <trkpt lat="44.59212" lon="4.3301">
        <ele>420.23</ele>
        <time>2015-09-20T09:12:13Z</time>
      </trkpt>
      <trkpt lat="44.59216" lon="4.32989">
        <ele>421.19</ele>
        <time>2015-09-20T09:12:20Z</time>
      </trkpt>
      <trkpt lat="44.59217" lon="4.32965">
        <ele>420.71</ele>
        <time>2015-09-20T09:12:26Z</time>
      </trkpt>
      <trkpt lat="44.59218" lon="4.32962">
        <ele>420.71</ele>
        <time>2015-09-20T09:12:27Z</time>
      </trkpt>
      <trkpt lat="44.5922" lon="4.32958">
        <ele>420.71</ele>
        <time>2015-09-20T09:12:28Z</time>
      </trkpt>
      <trkpt lat="44.59229" lon="4.32919">
        <ele>420.71</ele>
        <time>2015-09-20T09:12:36Z</time>
      </trkpt>
      <trkpt lat="44.5923" lon="4.32916">
        <ele>420.71</ele>
        <time>2015-09-20T09:12:37Z</time>
      </trkpt>
      <trkpt lat="44.59231" lon="4.32912">
        <ele>420.71</ele>
        <time>2015-09-20T09:12:38Z</time>
      </trkpt>
      <trkpt lat="44.59233" lon="4.32908">
        <ele>421.19</ele>
        <time>2015-09-20T09:12:39Z</time>
      </trkpt>
      <trkpt lat="44.59235" lon="4.32904">
        <ele>421.19</ele>
        <time>2015-09-20T09:12:40Z</time>
      </trkpt>
      <trkpt lat="44.59237" lon="4.32899">
        <ele>421.19</ele>
        <time>2015-09-20T09:12:41Z</time>
      </trkpt>
      <trkpt lat="44.59264" lon="4.32861">
        <ele>423.12</ele>
        <time>2015-09-20T09:12:55Z</time>
      </trkpt>
      <trkpt lat="44.59289" lon="4.32835">
        <ele>426.48</ele>
        <time>2015-09-20T09:13:07Z</time>
      </trkpt>
      <trkpt lat="44.59314" lon="4.32803">
        <ele>427.92</ele>
        <time>2015-09-20T09:13:21Z</time>
      </trkpt>
      <trkpt lat="44.59329" lon="4.3279">
        <ele>430.81</ele>
        <time>2015-09-20T09:13:30Z</time>
      </trkpt>
      <trkpt lat="44.5933" lon="4.32789">
        <ele>430.81</ele>
        <time>2015-09-20T09:13:31Z</time>
      </trkpt>
      <trkpt lat="44.59332" lon="4.32788">
        <ele>431.29</ele>
        <time>2015-09-20T09:13:32Z</time>
      </trkpt>
      <trkpt lat="44.59334" lon="4.32786">
        <ele>431.77</ele>
        <time>2015-09-20T09:13:33Z</time>
      </trkpt>
      <trkpt lat="44.59335" lon="4.32785">
        <ele>431.77</ele>
        <time>2015-09-20T09:13:34Z</time>
      </trkpt>
      <trkpt lat="44.59336" lon="4.32784">
        <ele>431.77</ele>
        <time>2015-09-20T09:13:35Z</time>
      </trkpt>
      <trkpt lat="44.59336" lon="4.32783">
        <ele>431.77</ele>
        <time>2015-09-20T09:13:36Z</time>
      </trkpt>
      <trkpt lat="44.59337" lon="4.32781">
        <ele>431.77</ele>
        <time>2015-09-20T09:13:37Z</time>
      </trkpt>
      <trkpt lat="44.59338" lon="4.32778">
        <ele>431.77</ele>
        <time>2015-09-20T09:13:38Z</time>
      </trkpt>
      <trkpt lat="44.59355" lon="4.32747">
        <ele>431.29</ele>
        <time>2015-09-20T09:13:51Z</time>
      </trkpt>
      <trkpt lat="44.59355" lon="4.32746">
        <ele>431.29</ele>
        <time>2015-09-20T09:14:02Z</time>
      </trkpt>
      <trkpt lat="44.59357" lon="4.32745">
        <ele>431.29</ele>
        <time>2015-09-20T09:14:09Z</time>
      </trkpt>
      <trkpt lat="44.59358" lon="4.32745">
        <ele>431.29</ele>
        <time>2015-09-20T09:14:10Z</time>
      </trkpt>
      <trkpt lat="44.59359" lon="4.32745">
        <ele>431.77</ele>
        <time>2015-09-20T09:14:11Z</time>
      </trkpt>
      <trkpt lat="44.59361" lon="4.32745">
        <ele>431.29</ele>
        <time>2015-09-20T09:14:12Z</time>
      </trkpt>
      <trkpt lat="44.59362" lon="4.32744">
        <ele>431.77</ele>
        <time>2015-09-20T09:14:13Z</time>
      </trkpt>
      <trkpt lat="44.59363" lon="4.32744">
        <ele>432.73</ele>
        <time>2015-09-20T09:14:14Z</time>
      </trkpt>
      <trkpt lat="44.59364" lon="4.32743">
        <ele>433.21</ele>
        <time>2015-09-20T09:14:15Z</time>
      </trkpt>
      <trkpt lat="44.59365" lon="4.32743">
        <ele>432.73</ele>
        <time>2015-09-20T09:14:16Z</time>
      </trkpt>
      <trkpt lat="44.59366" lon="4.32742">
        <ele>432.73</ele>
        <time>2015-09-20T09:14:17Z</time>
      </trkpt>
      <trkpt lat="44.59367" lon="4.32741">
        <ele>432.73</ele>
        <time>2015-09-20T09:14:18Z</time>
      </trkpt>
      <trkpt lat="44.59368" lon="4.32741">
        <ele>432.73</ele>
        <time>2015-09-20T09:14:19Z</time>
      </trkpt>
      <trkpt lat="44.59369" lon="4.3274">
        <ele>432.73</ele>
        <time>2015-09-20T09:14:20Z</time>
      </trkpt>
      <trkpt lat="44.5937" lon="4.32739">
        <ele>432.73</ele>
        <time>2015-09-20T09:14:21Z</time>
      </trkpt>
      <trkpt lat="44.59371" lon="4.32738">
        <ele>432.73</ele>
        <time>2015-09-20T09:14:22Z</time>
      </trkpt>
      <trkpt lat="44.59372" lon="4.32737">
        <ele>432.73</ele>
        <time>2015-09-20T09:14:23Z</time>
      </trkpt>
      <trkpt lat="44.59373" lon="4.32736">
        <ele>432.73</ele>
        <time>2015-09-20T09:14:24Z</time>
      </trkpt>
      <trkpt lat="44.59374" lon="4.32735">
        <ele>432.73</ele>
        <time>2015-09-20T09:14:25Z</time>
      </trkpt>
      <trkpt lat="44.59379" lon="4.32726">
        <ele>433.21</ele>
        <time>2015-09-20T09:14:32Z</time>
      </trkpt>
      <trkpt lat="44.59379" lon="4.32723">
        <ele>433.21</ele>
        <time>2015-09-20T09:14:33Z</time>
      </trkpt>
      <trkpt lat="44.5938" lon="4.32721">
        <ele>432.73</ele>
        <time>2015-09-20T09:14:34Z</time>
      </trkpt>
      <trkpt lat="44.59379" lon="4.32719">
        <ele>432.73</ele>
        <time>2015-09-20T09:14:36Z</time>
      </trkpt>
      <trkpt lat="44.59376" lon="4.3272">
        <ele>432.73</ele>
        <time>2015-09-20T09:14:39Z</time>
      </trkpt>
      <trkpt lat="44.59376" lon="4.32722">
        <ele>432.73</ele>
        <time>2015-09-20T09:14:40Z</time>
      </trkpt>
      <trkpt lat="44.59377" lon="4.32723">
        <ele>432.73</ele>
        <time>2015-09-20T09:14:41Z</time>
      </trkpt>
      <trkpt lat="44.59379" lon="4.32723">
        <ele>433.21</ele>
        <time>2015-09-20T09:14:42Z</time>
      </trkpt>
      <trkpt lat="44.5938" lon="4.32722">
        <ele>433.21</ele>
        <time>2015-09-20T09:14:43Z</time>
      </trkpt>
      <trkpt lat="44.59381" lon="4.32722">
        <ele>433.21</ele>
        <time>2015-09-20T09:14:44Z</time>
      </trkpt>
      <trkpt lat="44.59382" lon="4.32721">
        <ele>433.21</ele>
        <time>2015-09-20T09:14:45Z</time>
      </trkpt>
      <trkpt lat="44.59384" lon="4.32717">
        <ele>432.73</ele>
        <time>2015-09-20T09:14:48Z</time>
      </trkpt>
      <trkpt lat="44.59384" lon="4.32716">
        <ele>433.21</ele>
        <time>2015-09-20T09:14:49Z</time>
      </trkpt>
      <trkpt lat="44.59384" lon="4.32714">
        <ele>433.21</ele>
        <time>2015-09-20T09:14:50Z</time>
      </trkpt>
      <trkpt lat="44.59379" lon="4.32713">
        <ele>432.73</ele>
        <time>2015-09-20T09:14:55Z</time>
      </trkpt>
      <trkpt lat="44.59375" lon="4.32723">
        <ele>432.73</ele>
        <time>2015-09-20T09:15:01Z</time>
      </trkpt>
      <trkpt lat="44.59381" lon="4.3272">
        <ele>432.73</ele>
        <time>2015-09-20T09:15:09Z</time>
      </trkpt>
      <trkpt lat="44.59383" lon="4.32718">
        <ele>432.73</ele>
        <time>2015-09-20T09:15:10Z</time>
      </trkpt>
      <trkpt lat="44.5941" lon="4.32695">
        <ele>433.69</ele>
        <time>2015-09-20T09:15:24Z</time>
      </trkpt>
      <trkpt lat="44.59431" lon="4.32727">
        <ele>437.06</ele>
        <time>2015-09-20T09:15:38Z</time>
      </trkpt>
      <trkpt lat="44.59436" lon="4.32735">
        <ele>438.5</ele>
        <time>2015-09-20T09:15:41Z</time>
      </trkpt>
      <trkpt lat="44.59475" lon="4.32763">
        <ele>439.94</ele>
        <time>2015-09-20T09:15:57Z</time>
      </trkpt>
      <trkpt lat="44.59507" lon="4.32789">
        <ele>439.94</ele>
        <time>2015-09-20T09:16:11Z</time>
      </trkpt>
      <trkpt lat="44.59531" lon="4.32808">
        <ele>441.38</ele>
        <time>2015-09-20T09:16:23Z</time>
      </trkpt>
      <trkpt lat="44.59551" lon="4.3283">
        <ele>441.38</ele>
        <time>2015-09-20T09:16:35Z</time>
      </trkpt>
      <trkpt lat="44.59577" lon="4.32847">
        <ele>440.9</ele>
        <time>2015-09-20T09:16:46Z</time>
      </trkpt>
      <trkpt lat="44.5961" lon="4.32869">
        <ele>440.42</ele>
        <time>2015-09-20T09:16:57Z</time>
      </trkpt>
      <trkpt lat="44.59649" lon="4.32911">
        <ele>438.98</ele>
        <time>2015-09-20T09:17:09Z</time>
      </trkpt>
      <trkpt lat="44.59676" lon="4.32947">
        <ele>440.9</ele>
        <time>2015-09-20T09:17:20Z</time>
      </trkpt>
      <trkpt lat="44.59684" lon="4.32959">
        <ele>441.86</ele>
        <time>2015-09-20T09:17:24Z</time>
      </trkpt>
      <trkpt lat="44.59704" lon="4.33">
        <ele>442.82</ele>
        <time>2015-09-20T09:17:36Z</time>
      </trkpt>
      <trkpt lat="44.5972" lon="4.33045">
        <ele>444.75</ele>
        <time>2015-09-20T09:17:47Z</time>
      </trkpt>
      <trkpt lat="44.59739" lon="4.33075">
        <ele>447.63</ele>
        <time>2015-09-20T09:17:58Z</time>
      </trkpt>
      <trkpt lat="44.59752" lon="4.33097">
        <ele>450.52</ele>
        <time>2015-09-20T09:18:07Z</time>
      </trkpt>
      <trkpt lat="44.59772" lon="4.33118">
        <ele>452.44</ele>
        <time>2015-09-20T09:18:19Z</time>
      </trkpt>
      <trkpt lat="44.59793" lon="4.33146">
        <ele>454.36</ele>
        <time>2015-09-20T09:18:31Z</time>
      </trkpt>
      <trkpt lat="44.59813" lon="4.33181">
        <ele>455.8</ele>
        <time>2015-09-20T09:18:43Z</time>
      </trkpt>
      <trkpt lat="44.59833" lon="4.33215">
        <ele>458.69</ele>
        <time>2015-09-20T09:18:57Z</time>
      </trkpt>
      <trkpt lat="44.59851" lon="4.33249">
        <ele>459.65</ele>
        <time>2015-09-20T09:19:09Z</time>
      </trkpt>
      <trkpt lat="44.59868" lon="4.33275">
        <ele>461.09</ele>
        <time>2015-09-20T09:19:19Z</time>
      </trkpt>
      <trkpt lat="44.59895" lon="4.33323">
        <ele>461.57</ele>
        <time>2015-09-20T09:19:31Z</time>
      </trkpt>
      <trkpt lat="44.59915" lon="4.33365">
        <ele>462.05</ele>
        <time>2015-09-20T09:19:43Z</time>
      </trkpt>
      <trkpt lat="44.59934" lon="4.33395">
        <ele>461.57</ele>
        <time>2015-09-20T09:19:53Z</time>
      </trkpt>
      <trkpt lat="44.59955" lon="4.33429">
        <ele>463.49</ele>
        <time>2015-09-20T09:20:05Z</time>
      </trkpt>
      <trkpt lat="44.59967" lon="4.3346">
        <ele>465.42</ele>
        <time>2015-09-20T09:20:15Z</time>
      </trkpt>
      <trkpt lat="44.59969" lon="4.33465">
        <ele>465.42</ele>
        <time>2015-09-20T09:20:17Z</time>
      </trkpt>
      <trkpt lat="44.59971" lon="4.33488">
        <ele>466.38</ele>
        <time>2015-09-20T09:20:26Z</time>
      </trkpt>
      <trkpt lat="44.59959" lon="4.33522">
        <ele>465.42</ele>
        <time>2015-09-20T09:20:38Z</time>
      </trkpt>
      <trkpt lat="44.59954" lon="4.33536">
        <ele>464.93</ele>
        <time>2015-09-20T09:20:49Z</time>
      </trkpt>
      <trkpt lat="44.59954" lon="4.33536">
        <ele>465.42</ele>
        <time>2015-09-20T09:20:55Z</time>
      </trkpt>
      <trkpt lat="44.59954" lon="4.33536">
        <ele>466.38</ele>
        <time>2015-09-20T09:21:12Z</time>
      </trkpt>
      <trkpt lat="44.59948" lon="4.3357">
        <ele>464.93</ele>
        <time>2015-09-20T09:21:20Z</time>
      </trkpt>
      <trkpt lat="44.59944" lon="4.33588">
        <ele>462.53</ele>
        <time>2015-09-20T09:21:22Z</time>
      </trkpt>
      <trkpt lat="44.59938" lon="4.33644">
        <ele>458.69</ele>
        <time>2015-09-20T09:21:27Z</time>
      </trkpt>
      <trkpt lat="44.59937" lon="4.33673">
        <ele>455.8</ele>
        <time>2015-09-20T09:21:33Z</time>
      </trkpt>
      <trkpt lat="44.59939" lon="4.33677">
        <ele>456.28</ele>
        <time>2015-09-20T09:21:34Z</time>
      </trkpt>
      <trkpt lat="44.59941" lon="4.33681">
        <ele>455.8</ele>
        <time>2015-09-20T09:21:35Z</time>
      </trkpt>
      <trkpt lat="44.59945" lon="4.33684">
        <ele>455.8</ele>
        <time>2015-09-20T09:21:36Z</time>
      </trkpt>
      <trkpt lat="44.59949" lon="4.33686">
        <ele>455.8</ele>
        <time>2015-09-20T09:21:37Z</time>
      </trkpt>
      <trkpt lat="44.59954" lon="4.33688">
        <ele>455.8</ele>
        <time>2015-09-20T09:21:38Z</time>
      </trkpt>
      <trkpt lat="44.59959" lon="4.33687">
        <ele>455.32</ele>
        <time>2015-09-20T09:21:39Z</time>
      </trkpt>
      <trkpt lat="44.59963" lon="4.33686">
        <ele>454.84</ele>
        <time>2015-09-20T09:21:40Z</time>
      </trkpt>
      <trkpt lat="44.59988" lon="4.33674">
        <ele>454.36</ele>
        <time>2015-09-20T09:21:47Z</time>
      </trkpt>
      <trkpt lat="44.59992" lon="4.33674">
        <ele>454.36</ele>
        <time>2015-09-20T09:21:48Z</time>
      </trkpt>
      <trkpt lat="44.59997" lon="4.33674">
        <ele>453.88</ele>
        <time>2015-09-20T09:21:49Z</time>
      </trkpt>
      <trkpt lat="44.60001" lon="4.33675">
        <ele>453.4</ele>
        <time>2015-09-20T09:21:50Z</time>
      </trkpt>
      <trkpt lat="44.60005" lon="4.33676">
        <ele>453.4</ele>
        <time>2015-09-20T09:21:51Z</time>
      </trkpt>
      <trkpt lat="44.6001" lon="4.33677">
        <ele>453.4</ele>
        <time>2015-09-20T09:21:52Z</time>
      </trkpt>
      <trkpt lat="44.60049" lon="4.33678">
        <ele>451.96</ele>
        <time>2015-09-20T09:22:02Z</time>
      </trkpt>
      <trkpt lat="44.60053" lon="4.33679">
        <ele>452.44</ele>
        <time>2015-09-20T09:22:03Z</time>
      </trkpt>
      <trkpt lat="44.60057" lon="4.33679">
        <ele>451.96</ele>
        <time>2015-09-20T09:22:04Z</time>
      </trkpt>
      <trkpt lat="44.6009" lon="4.33685">
        <ele>450.03</ele>
        <time>2015-09-20T09:22:14Z</time>
      </trkpt>
      <trkpt lat="44.60131" lon="4.33691">
        <ele>449.07</ele>
        <time>2015-09-20T09:22:25Z</time>
      </trkpt>
      <trkpt lat="44.60173" lon="4.33698">
        <ele>448.59</ele>
        <time>2015-09-20T09:22:36Z</time>
      </trkpt>
      <trkpt lat="44.60197" lon="4.33704">
        <ele>451</ele>
        <time>2015-09-20T09:22:43Z</time>
      </trkpt>
      <trkpt lat="44.60229" lon="4.33719">
        <ele>451.96</ele>
        <time>2015-09-20T09:22:56Z</time>
      </trkpt>
      <trkpt lat="44.60261" lon="4.33728">
        <ele>455.8</ele>
        <time>2015-09-20T09:23:10Z</time>
      </trkpt>
      <trkpt lat="44.60262" lon="4.33728">
        <ele>455.8</ele>
        <time>2015-09-20T09:23:11Z</time>
      </trkpt>
      <trkpt lat="44.60275" lon="4.33733">
        <ele>455.8</ele>
        <time>2015-09-20T09:23:17Z</time>
      </trkpt>
      <trkpt lat="44.60274" lon="4.33751">
        <ele>454.84</ele>
        <time>2015-09-20T09:23:21Z</time>
      </trkpt>
      <trkpt lat="44.60273" lon="4.33761">
        <ele>453.88</ele>
        <time>2015-09-20T09:23:24Z</time>
      </trkpt>
      <trkpt lat="44.60276" lon="4.33767">
        <ele>452.44</ele>
        <time>2015-09-20T09:23:31Z</time>
      </trkpt>
      <trkpt lat="44.60279" lon="4.33771">
        <ele>452.44</ele>
        <time>2015-09-20T09:23:34Z</time>
      </trkpt>
      <trkpt lat="44.60291" lon="4.33787">
        <ele>452.44</ele>
        <time>2015-09-20T09:23:39Z</time>
      </trkpt>
      <trkpt lat="44.60317" lon="4.33804">
        <ele>451.96</ele>
        <time>2015-09-20T09:23:48Z</time>
      </trkpt>
      <trkpt lat="44.60319" lon="4.33812">
        <ele>450.52</ele>
        <time>2015-09-20T09:23:52Z</time>
      </trkpt>
      <trkpt lat="44.60316" lon="4.33829">
        <ele>448.59</ele>
        <time>2015-09-20T09:23:56Z</time>
      </trkpt>
      <trkpt lat="44.60316" lon="4.33834">
        <ele>447.63</ele>
        <time>2015-09-20T09:23:57Z</time>
      </trkpt>
      <trkpt lat="44.60311" lon="4.33854">
        <ele>446.19</ele>
        <time>2015-09-20T09:24:00Z</time>
      </trkpt>
      <trkpt lat="44.60305" lon="4.33893">
        <ele>442.34</ele>
        <time>2015-09-20T09:24:05Z</time>
      </trkpt>
      <trkpt lat="44.60304" lon="4.339">
        <ele>442.82</ele>
        <time>2015-09-20T09:24:06Z</time>
      </trkpt>
      <trkpt lat="44.603" lon="4.33916">
        <ele>441.38</ele>
        <time>2015-09-20T09:24:08Z</time>
      </trkpt>
      <trkpt lat="44.60297" lon="4.33936">
        <ele>439.46</ele>
        <time>2015-09-20T09:24:11Z</time>
      </trkpt>
      <trkpt lat="44.60306" lon="4.3395">
        <ele>437.06</ele>
        <time>2015-09-20T09:24:15Z</time>
      </trkpt>
      <trkpt lat="44.60312" lon="4.33957">
        <ele>436.58</ele>
        <time>2015-09-20T09:24:17Z</time>
      </trkpt>
      <trkpt lat="44.60334" lon="4.33973">
        <ele>434.17</ele>
        <time>2015-09-20T09:24:25Z</time>
      </trkpt>
      <trkpt lat="44.60344" lon="4.33981">
        <ele>434.17</ele>
        <time>2015-09-20T09:24:31Z</time>
      </trkpt>
      <trkpt lat="44.60359" lon="4.3401">
        <ele>432.25</ele>
        <time>2015-09-20T09:24:44Z</time>
      </trkpt>
      <trkpt lat="44.60365" lon="4.34024">
        <ele>430.81</ele>
        <time>2015-09-20T09:24:49Z</time>
      </trkpt>
      <trkpt lat="44.60379" lon="4.34062">
        <ele>429.37</ele>
        <time>2015-09-20T09:24:59Z</time>
      </trkpt>
      <trkpt lat="44.6038" lon="4.34068">
        <ele>428.89</ele>
        <time>2015-09-20T09:25:00Z</time>
      </trkpt>
      <trkpt lat="44.60383" lon="4.34088">
        <ele>427.44</ele>
        <time>2015-09-20T09:25:03Z</time>
      </trkpt>
      <trkpt lat="44.60385" lon="4.34093">
        <ele>426.96</ele>
        <time>2015-09-20T09:25:04Z</time>
      </trkpt>
      <trkpt lat="44.60387" lon="4.34097">
        <ele>425.52</ele>
        <time>2015-09-20T09:25:05Z</time>
      </trkpt>
      <trkpt lat="44.60389" lon="4.341">
        <ele>424.08</ele>
        <time>2015-09-20T09:25:06Z</time>
      </trkpt>
      <trkpt lat="44.60392" lon="4.34102">
        <ele>423.6</ele>
        <time>2015-09-20T09:25:07Z</time>
      </trkpt>
      <trkpt lat="44.60395" lon="4.34105">
        <ele>423.12</ele>
        <time>2015-09-20T09:25:08Z</time>
      </trkpt>
      <trkpt lat="44.60404" lon="4.34112">
        <ele>421.68</ele>
        <time>2015-09-20T09:25:11Z</time>
      </trkpt>
      <trkpt lat="44.6042" lon="4.34132">
        <ele>418.79</ele>
        <time>2015-09-20T09:25:17Z</time>
      </trkpt>
      <trkpt lat="44.60423" lon="4.34138">
        <ele>417.83</ele>
        <time>2015-09-20T09:25:19Z</time>
      </trkpt>
      <trkpt lat="44.60426" lon="4.34144">
        <ele>416.87</ele>
        <time>2015-09-20T09:25:22Z</time>
      </trkpt>
      <trkpt lat="44.60429" lon="4.34148">
        <ele>416.39</ele>
        <time>2015-09-20T09:25:28Z</time>
      </trkpt>
      <trkpt lat="44.6043" lon="4.34153">
        <ele>417.35</ele>
        <time>2015-09-20T09:25:39Z</time>
      </trkpt>
      <trkpt lat="44.6043" lon="4.34153">
        <ele>416.87</ele>
        <time>2015-09-20T09:25:55Z</time>
      </trkpt>
      <trkpt lat="44.6043" lon="4.34153">
        <ele>416.87</ele>
        <time>2015-09-20T09:26:11Z</time>
      </trkpt>
      <trkpt lat="44.60432" lon="4.34157">
        <ele>416.87</ele>
        <time>2015-09-20T09:26:19Z</time>
      </trkpt>
      <trkpt lat="44.60437" lon="4.34162">
        <ele>415.91</ele>
        <time>2015-09-20T09:26:24Z</time>
      </trkpt>
      <trkpt lat="44.60443" lon="4.3417">
        <ele>414.47</ele>
        <time>2015-09-20T09:26:33Z</time>
      </trkpt>
      <trkpt lat="44.6047" lon="4.34195">
        <ele>413.02</ele>
        <time>2015-09-20T09:26:41Z</time>
      </trkpt>
      <trkpt lat="44.60492" lon="4.34214">
        <ele>411.58</ele>
        <time>2015-09-20T09:26:46Z</time>
      </trkpt>
      <trkpt lat="44.60496" lon="4.34217">
        <ele>411.1</ele>
        <time>2015-09-20T09:26:47Z</time>
      </trkpt>
      <trkpt lat="44.60499" lon="4.34221">
        <ele>411.1</ele>
        <time>2015-09-20T09:26:48Z</time>
      </trkpt>
      <trkpt lat="44.60502" lon="4.34225">
        <ele>410.62</ele>
        <time>2015-09-20T09:26:49Z</time>
      </trkpt>
      <trkpt lat="44.60504" lon="4.34229">
        <ele>410.14</ele>
        <time>2015-09-20T09:26:50Z</time>
      </trkpt>
      <trkpt lat="44.60506" lon="4.34235">
        <ele>409.66</ele>
        <time>2015-09-20T09:26:51Z</time>
      </trkpt>
      <trkpt lat="44.60509" lon="4.34241">
        <ele>409.66</ele>
        <time>2015-09-20T09:26:52Z</time>
      </trkpt>
      <trkpt lat="44.60511" lon="4.34247">
        <ele>409.18</ele>
        <time>2015-09-20T09:26:53Z</time>
      </trkpt>
      <trkpt lat="44.60513" lon="4.34253">
        <ele>408.7</ele>
        <time>2015-09-20T09:26:54Z</time>
      </trkpt>
      <trkpt lat="44.60514" lon="4.34259">
        <ele>408.22</ele>
        <time>2015-09-20T09:26:55Z</time>
      </trkpt>
      <trkpt lat="44.60514" lon="4.34265">
        <ele>407.74</ele>
        <time>2015-09-20T09:26:56Z</time>
      </trkpt>
      <trkpt lat="44.60515" lon="4.34282">
        <ele>405.81</ele>
        <time>2015-09-20T09:26:59Z</time>
      </trkpt>
      <trkpt lat="44.60514" lon="4.34287">
        <ele>405.33</ele>
        <time>2015-09-20T09:27:00Z</time>
      </trkpt>
      <trkpt lat="44.60513" lon="4.34293">
        <ele>405.33</ele>
        <time>2015-09-20T09:27:01Z</time>
      </trkpt>
      <trkpt lat="44.60513" lon="4.34313">
        <ele>404.85</ele>
        <time>2015-09-20T09:27:10Z</time>
      </trkpt>
      <trkpt lat="44.60514" lon="4.34313">
        <ele>402.93</ele>
        <time>2015-09-20T09:27:26Z</time>
      </trkpt>
      <trkpt lat="44.60514" lon="4.34315">
        <ele>403.41</ele>
        <time>2015-09-20T09:27:33Z</time>
      </trkpt>
      <trkpt lat="44.60514" lon="4.34317">
        <ele>403.41</ele>
        <time>2015-09-20T09:27:34Z</time>
      </trkpt>
      <trkpt lat="44.60513" lon="4.34319">
        <ele>403.89</ele>
        <time>2015-09-20T09:27:35Z</time>
      </trkpt>
      <trkpt lat="44.60513" lon="4.34323">
        <ele>403.89</ele>
        <time>2015-09-20T09:27:36Z</time>
      </trkpt>
      <trkpt lat="44.60513" lon="4.34326">
        <ele>404.37</ele>
        <time>2015-09-20T09:27:37Z</time>
      </trkpt>
      <trkpt lat="44.60509" lon="4.34366">
        <ele>404.37</ele>
        <time>2015-09-20T09:27:48Z</time>
      </trkpt>
      <trkpt lat="44.60503" lon="4.34405">
        <ele>405.33</ele>
        <time>2015-09-20T09:27:57Z</time>
      </trkpt>
      <trkpt lat="44.60493" lon="4.34435">
        <ele>408.22</ele>
        <time>2015-09-20T09:28:05Z</time>
      </trkpt>
      <trkpt lat="44.60491" lon="4.34438">
        <ele>408.7</ele>
        <time>2015-09-20T09:28:06Z</time>
      </trkpt>
      <trkpt lat="44.60467" lon="4.3447">
        <ele>410.14</ele>
        <time>2015-09-20T09:28:17Z</time>
      </trkpt>
      <trkpt lat="44.60459" lon="4.34473">
        <ele>410.62</ele>
        <time>2015-09-20T09:28:20Z</time>
      </trkpt>
      <trkpt lat="44.60457" lon="4.34474">
        <ele>410.62</ele>
        <time>2015-09-20T09:28:21Z</time>
      </trkpt>
      <trkpt lat="44.60456" lon="4.34475">
        <ele>410.62</ele>
        <time>2015-09-20T09:28:22Z</time>
      </trkpt>
      <trkpt lat="44.60454" lon="4.34477">
        <ele>410.62</ele>
        <time>2015-09-20T09:28:23Z</time>
      </trkpt>
      <trkpt lat="44.60449" lon="4.34483">
        <ele>410.62</ele>
        <time>2015-09-20T09:28:26Z</time>
      </trkpt>
      <trkpt lat="44.60428" lon="4.3448">
        <ele>410.62</ele>
        <time>2015-09-20T09:28:35Z</time>
      </trkpt>
      <trkpt lat="44.60425" lon="4.3448">
        <ele>410.62</ele>
        <time>2015-09-20T09:28:36Z</time>
      </trkpt>
      <trkpt lat="44.60425" lon="4.34483">
        <ele>410.62</ele>
        <time>2015-09-20T09:28:37Z</time>
      </trkpt>
      <trkpt lat="44.60403" lon="4.34485">
        <ele>412.06</ele>
        <time>2015-09-20T09:28:47Z</time>
      </trkpt>
      <trkpt lat="44.60398" lon="4.34483">
        <ele>411.58</ele>
        <time>2015-09-20T09:28:49Z</time>
      </trkpt>
      <trkpt lat="44.60379" lon="4.34453">
        <ele>412.54</ele>
        <time>2015-09-20T09:29:00Z</time>
      </trkpt>
      <trkpt lat="44.6038" lon="4.34428">
        <ele>413.02</ele>
        <time>2015-09-20T09:29:05Z</time>
      </trkpt>
      <trkpt lat="44.60381" lon="4.34422">
        <ele>412.54</ele>
        <time>2015-09-20T09:29:06Z</time>
      </trkpt>
      <trkpt lat="44.60381" lon="4.34416">
        <ele>412.06</ele>
        <time>2015-09-20T09:29:07Z</time>
      </trkpt>
      <trkpt lat="44.60381" lon="4.34411">
        <ele>412.54</ele>
        <time>2015-09-20T09:29:08Z</time>
      </trkpt>
      <trkpt lat="44.60381" lon="4.34406">
        <ele>412.54</ele>
        <time>2015-09-20T09:29:09Z</time>
      </trkpt>
      <trkpt lat="44.60381" lon="4.34402">
        <ele>412.06</ele>
        <time>2015-09-20T09:29:10Z</time>
      </trkpt>
      <trkpt lat="44.6038" lon="4.34398">
        <ele>412.06</ele>
        <time>2015-09-20T09:29:11Z</time>
      </trkpt>
      <trkpt lat="44.60367" lon="4.34351">
        <ele>413.02</ele>
        <time>2015-09-20T09:29:21Z</time>
      </trkpt>
      <trkpt lat="44.60347" lon="4.34299">
        <ele>413.02</ele>
        <time>2015-09-20T09:29:29Z</time>
      </trkpt>
      <trkpt lat="44.60336" lon="4.34282">
        <ele>412.06</ele>
        <time>2015-09-20T09:29:32Z</time>
      </trkpt>
      <trkpt lat="44.60331" lon="4.34277">
        <ele>411.58</ele>
        <time>2015-09-20T09:29:33Z</time>
      </trkpt>
      <trkpt lat="44.60327" lon="4.34272">
        <ele>411.1</ele>
        <time>2015-09-20T09:29:34Z</time>
      </trkpt>
      <trkpt lat="44.60321" lon="4.34264">
        <ele>410.62</ele>
        <time>2015-09-20T09:29:36Z</time>
      </trkpt>
      <trkpt lat="44.60317" lon="4.3426">
        <ele>410.14</ele>
        <time>2015-09-20T09:29:37Z</time>
      </trkpt>
      <trkpt lat="44.60287" lon="4.3424">
        <ele>408.7</ele>
        <time>2015-09-20T09:29:45Z</time>
      </trkpt>
      <trkpt lat="44.60275" lon="4.3421">
        <ele>408.22</ele>
        <time>2015-09-20T09:29:51Z</time>
      </trkpt>
      <trkpt lat="44.60272" lon="4.34205">
        <ele>408.22</ele>
        <time>2015-09-20T09:29:52Z</time>
      </trkpt>
      <trkpt lat="44.60269" lon="4.34201">
        <ele>407.26</ele>
        <time>2015-09-20T09:29:53Z</time>
      </trkpt>
      <trkpt lat="44.60265" lon="4.34198">
        <ele>406.29</ele>
        <time>2015-09-20T09:29:54Z</time>
      </trkpt>
      <trkpt lat="44.6026" lon="4.34195">
        <ele>406.77</ele>
        <time>2015-09-20T09:29:55Z</time>
      </trkpt>
      <trkpt lat="44.60255" lon="4.34193">
        <ele>406.77</ele>
        <time>2015-09-20T09:29:56Z</time>
      </trkpt>
      <trkpt lat="44.6025" lon="4.34191">
        <ele>406.29</ele>
        <time>2015-09-20T09:29:57Z</time>
      </trkpt>
      <trkpt lat="44.60237" lon="4.34184">
        <ele>405.33</ele>
        <time>2015-09-20T09:30:00Z</time>
      </trkpt>
      <trkpt lat="44.60223" lon="4.34178">
        <ele>404.37</ele>
        <time>2015-09-20T09:30:03Z</time>
      </trkpt>
      <trkpt lat="44.60217" lon="4.34176">
        <ele>403.89</ele>
        <time>2015-09-20T09:30:04Z</time>
      </trkpt>
      <trkpt lat="44.60205" lon="4.34172">
        <ele>402.93</ele>
        <time>2015-09-20T09:30:06Z</time>
      </trkpt>
      <trkpt lat="44.60198" lon="4.34172">
        <ele>402.45</ele>
        <time>2015-09-20T09:30:07Z</time>
      </trkpt>
      <trkpt lat="44.60191" lon="4.34172">
        <ele>401.97</ele>
        <time>2015-09-20T09:30:08Z</time>
      </trkpt>
      <trkpt lat="44.60177" lon="4.34177">
        <ele>400.05</ele>
        <time>2015-09-20T09:30:11Z</time>
      </trkpt>
      <trkpt lat="44.60172" lon="4.34181">
        <ele>400.05</ele>
        <time>2015-09-20T09:30:13Z</time>
      </trkpt>
      <trkpt lat="44.60171" lon="4.34182">
        <ele>400.53</ele>
        <time>2015-09-20T09:30:14Z</time>
      </trkpt>
      <trkpt lat="44.60172" lon="4.34186">
        <ele>401.01</ele>
        <time>2015-09-20T09:30:15Z</time>
      </trkpt>
      <trkpt lat="44.60183" lon="4.34226">
        <ele>403.89</ele>
        <time>2015-09-20T09:30:25Z</time>
      </trkpt>
      <trkpt lat="44.60186" lon="4.34236">
        <ele>404.37</ele>
        <time>2015-09-20T09:30:27Z</time>
      </trkpt>
      <trkpt lat="44.60188" lon="4.34241">
        <ele>404.85</ele>
        <time>2015-09-20T09:30:28Z</time>
      </trkpt>
      <trkpt lat="44.6019" lon="4.34246">
        <ele>405.33</ele>
        <time>2015-09-20T09:30:29Z</time>
      </trkpt>
      <trkpt lat="44.60215" lon="4.34296">
        <ele>407.26</ele>
        <time>2015-09-20T09:30:42Z</time>
      </trkpt>
      <trkpt lat="44.60231" lon="4.34335">
        <ele>410.14</ele>
        <time>2015-09-20T09:30:53Z</time>
      </trkpt>
      <trkpt lat="44.60233" lon="4.34342">
        <ele>410.62</ele>
        <time>2015-09-20T09:30:56Z</time>
      </trkpt>
      <trkpt lat="44.60234" lon="4.34344">
        <ele>410.62</ele>
        <time>2015-09-20T09:30:57Z</time>
      </trkpt>
      <trkpt lat="44.60234" lon="4.34346">
        <ele>410.62</ele>
        <time>2015-09-20T09:30:58Z</time>
      </trkpt>
      <trkpt lat="44.60234" lon="4.34348">
        <ele>410.62</ele>
        <time>2015-09-20T09:30:59Z</time>
      </trkpt>
      <trkpt lat="44.60234" lon="4.3435">
        <ele>411.1</ele>
        <time>2015-09-20T09:31:00Z</time>
      </trkpt>
      <trkpt lat="44.60234" lon="4.34352">
        <ele>410.62</ele>
        <time>2015-09-20T09:31:01Z</time>
      </trkpt>
      <trkpt lat="44.60234" lon="4.34354">
        <ele>410.62</ele>
        <time>2015-09-20T09:31:02Z</time>
      </trkpt>
      <trkpt lat="44.60224" lon="4.34378">
        <ele>410.14</ele>
        <time>2015-09-20T09:31:13Z</time>
      </trkpt>
      <trkpt lat="44.60211" lon="4.34411">
        <ele>407.74</ele>
        <time>2015-09-20T09:31:24Z</time>
      </trkpt>
      <trkpt lat="44.60193" lon="4.34456">
        <ele>406.77</ele>
        <time>2015-09-20T09:31:36Z</time>
      </trkpt>
      <trkpt lat="44.60189" lon="4.34469">
        <ele>408.7</ele>
        <time>2015-09-20T09:31:39Z</time>
      </trkpt>
      <trkpt lat="44.60187" lon="4.34472">
        <ele>409.18</ele>
        <time>2015-09-20T09:31:40Z</time>
      </trkpt>
      <trkpt lat="44.60173" lon="4.34509">
        <ele>407.74</ele>
        <time>2015-09-20T09:31:50Z</time>
      </trkpt>
      <trkpt lat="44.60166" lon="4.3457">
        <ele>408.22</ele>
        <time>2015-09-20T09:32:02Z</time>
      </trkpt>
      <trkpt lat="44.60163" lon="4.3459">
        <ele>409.66</ele>
        <time>2015-09-20T09:32:06Z</time>
      </trkpt>
      <trkpt lat="44.60153" lon="4.34636">
        <ele>411.58</ele>
        <time>2015-09-20T09:32:17Z</time>
      </trkpt>
      <trkpt lat="44.60131" lon="4.34658">
        <ele>412.54</ele>
        <time>2015-09-20T09:32:26Z</time>
      </trkpt>
      <trkpt lat="44.60129" lon="4.3466">
        <ele>412.54</ele>
        <time>2015-09-20T09:32:27Z</time>
      </trkpt>
      <trkpt lat="44.60127" lon="4.3466">
        <ele>412.06</ele>
        <time>2015-09-20T09:32:28Z</time>
      </trkpt>
      <trkpt lat="44.60124" lon="4.3466">
        <ele>412.54</ele>
        <time>2015-09-20T09:32:29Z</time>
      </trkpt>
      <trkpt lat="44.60122" lon="4.3466">
        <ele>413.02</ele>
        <time>2015-09-20T09:32:30Z</time>
      </trkpt>
      <trkpt lat="44.6012" lon="4.34661">
        <ele>413.02</ele>
        <time>2015-09-20T09:32:31Z</time>
      </trkpt>
      <trkpt lat="44.60117" lon="4.3466">
        <ele>413.02</ele>
        <time>2015-09-20T09:32:32Z</time>
      </trkpt>
      <trkpt lat="44.60115" lon="4.3466">
        <ele>413.02</ele>
        <time>2015-09-20T09:32:33Z</time>
      </trkpt>
      <trkpt lat="44.60091" lon="4.34656">
        <ele>413.98</ele>
        <time>2015-09-20T09:32:44Z</time>
      </trkpt>
      <trkpt lat="44.60061" lon="4.34649">
        <ele>412.54</ele>
        <time>2015-09-20T09:32:54Z</time>
      </trkpt>
      <trkpt lat="44.60052" lon="4.34654">
        <ele>413.02</ele>
        <time>2015-09-20T09:32:57Z</time>
      </trkpt>
      <trkpt lat="44.6005" lon="4.34657">
        <ele>413.98</ele>
        <time>2015-09-20T09:32:58Z</time>
      </trkpt>
      <trkpt lat="44.60049" lon="4.3466">
        <ele>414.47</ele>
        <time>2015-09-20T09:32:59Z</time>
      </trkpt>
      <trkpt lat="44.60047" lon="4.34663">
        <ele>414.95</ele>
        <time>2015-09-20T09:33:00Z</time>
      </trkpt>
      <trkpt lat="44.60046" lon="4.34666">
        <ele>414.47</ele>
        <time>2015-09-20T09:33:01Z</time>
      </trkpt>
      <trkpt lat="44.60046" lon="4.34669">
        <ele>414.95</ele>
        <time>2015-09-20T09:33:02Z</time>
      </trkpt>
      <trkpt lat="44.60045" lon="4.34672">
        <ele>414.95</ele>
        <time>2015-09-20T09:33:03Z</time>
      </trkpt>
      <trkpt lat="44.60044" lon="4.34676">
        <ele>414.95</ele>
        <time>2015-09-20T09:33:04Z</time>
      </trkpt>
      <trkpt lat="44.60043" lon="4.34679">
        <ele>414.95</ele>
        <time>2015-09-20T09:33:05Z</time>
      </trkpt>
      <trkpt lat="44.60041" lon="4.34682">
        <ele>415.43</ele>
        <time>2015-09-20T09:33:06Z</time>
      </trkpt>
      <trkpt lat="44.6004" lon="4.34686">
        <ele>415.43</ele>
        <time>2015-09-20T09:33:07Z</time>
      </trkpt>
      <trkpt lat="44.60025" lon="4.34722">
        <ele>416.39</ele>
        <time>2015-09-20T09:33:18Z</time>
      </trkpt>
      <trkpt lat="44.60015" lon="4.34743">
        <ele>417.35</ele>
        <time>2015-09-20T09:33:26Z</time>
      </trkpt>
      <trkpt lat="44.60021" lon="4.34752">
        <ele>419.75</ele>
        <time>2015-09-20T09:33:31Z</time>
      </trkpt>
      <trkpt lat="44.60031" lon="4.34747">
        <ele>419.27</ele>
        <time>2015-09-20T09:33:39Z</time>
      </trkpt>
      <trkpt lat="44.60034" lon="4.34739">
        <ele>421.19</ele>
        <time>2015-09-20T09:33:43Z</time>
      </trkpt>
      <trkpt lat="44.60035" lon="4.34737">
        <ele>421.19</ele>
        <time>2015-09-20T09:33:44Z</time>
      </trkpt>
      <trkpt lat="44.60035" lon="4.34731">
        <ele>421.19</ele>
        <time>2015-09-20T09:33:46Z</time>
      </trkpt>
      <trkpt lat="44.6004" lon="4.34701">
        <ele>422.64</ele>
        <time>2015-09-20T09:34:00Z</time>
      </trkpt>
      <trkpt lat="44.6004" lon="4.34696">
        <ele>422.64</ele>
        <time>2015-09-20T09:34:02Z</time>
      </trkpt>
      <trkpt lat="44.60041" lon="4.34681">
        <ele>424.08</ele>
        <time>2015-09-20T09:34:08Z</time>
      </trkpt>
      <trkpt lat="44.60042" lon="4.34668">
        <ele>426.96</ele>
        <time>2015-09-20T09:34:14Z</time>
      </trkpt>
      <trkpt lat="44.60042" lon="4.34661">
        <ele>428.4</ele>
        <time>2015-09-20T09:34:17Z</time>
      </trkpt>
      <trkpt lat="44.60042" lon="4.34654">
        <ele>428.89</ele>
        <time>2015-09-20T09:34:20Z</time>
      </trkpt>
      <trkpt lat="44.60038" lon="4.34634">
        <ele>427.44</ele>
        <time>2015-09-20T09:34:27Z</time>
      </trkpt>
      <trkpt lat="44.60032" lon="4.34611">
        <ele>428.89</ele>
        <time>2015-09-20T09:34:36Z</time>
      </trkpt>
      <trkpt lat="44.60024" lon="4.34587">
        <ele>431.77</ele>
        <time>2015-09-20T09:34:46Z</time>
      </trkpt>
      <trkpt lat="44.60017" lon="4.3457">
        <ele>433.69</ele>
        <time>2015-09-20T09:34:52Z</time>
      </trkpt>
      <trkpt lat="44.60013" lon="4.34562">
        <ele>434.65</ele>
        <time>2015-09-20T09:34:56Z</time>
      </trkpt>
      <trkpt lat="44.5999" lon="4.34544">
        <ele>434.65</ele>
        <time>2015-09-20T09:35:09Z</time>
      </trkpt>
      <trkpt lat="44.59972" lon="4.34526">
        <ele>438.02</ele>
        <time>2015-09-20T09:35:21Z</time>
      </trkpt>
      <trkpt lat="44.59959" lon="4.3451">
        <ele>440.42</ele>
        <time>2015-09-20T09:35:32Z</time>
      </trkpt>
      <trkpt lat="44.59956" lon="4.34508">
        <ele>440.9</ele>
        <time>2015-09-20T09:35:34Z</time>
      </trkpt>
      <trkpt lat="44.59935" lon="4.34483">
        <ele>443.31</ele>
        <time>2015-09-20T09:35:51Z</time>
      </trkpt>
      <trkpt lat="44.59919" lon="4.34481">
        <ele>444.75</ele>
        <time>2015-09-20T09:36:02Z</time>
      </trkpt>
      <trkpt lat="44.59915" lon="4.34479">
        <ele>445.23</ele>
        <time>2015-09-20T09:36:06Z</time>
      </trkpt>
      <trkpt lat="44.59907" lon="4.34479">
        <ele>445.71</ele>
        <time>2015-09-20T09:36:13Z</time>
      </trkpt>
      <trkpt lat="44.59863" lon="4.34457">
        <ele>448.11</ele>
        <time>2015-09-20T09:36:25Z</time>
      </trkpt>
      <trkpt lat="44.59834" lon="4.34453">
        <ele>449.55</ele>
        <time>2015-09-20T09:36:38Z</time>
      </trkpt>
      <trkpt lat="44.59826" lon="4.34453">
        <ele>450.52</ele>
        <time>2015-09-20T09:36:42Z</time>
      </trkpt>
      <trkpt lat="44.59812" lon="4.34452">
        <ele>451.48</ele>
        <time>2015-09-20T09:36:52Z</time>
      </trkpt>
      <trkpt lat="44.59798" lon="4.34451">
        <ele>453.4</ele>
        <time>2015-09-20T09:37:03Z</time>
      </trkpt>
      <trkpt lat="44.59782" lon="4.34451">
        <ele>453.88</ele>
        <time>2015-09-20T09:37:11Z</time>
      </trkpt>
      <trkpt lat="44.5977" lon="4.34446">
        <ele>455.32</ele>
        <time>2015-09-20T09:37:19Z</time>
      </trkpt>
      <trkpt lat="44.59768" lon="4.3444">
        <ele>456.76</ele>
        <time>2015-09-20T09:37:30Z</time>
      </trkpt>
      <trkpt lat="44.59765" lon="4.3442">
        <ele>459.17</ele>
        <time>2015-09-20T09:37:43Z</time>
      </trkpt>
      <trkpt lat="44.59774" lon="4.34383">
        <ele>462.05</ele>
        <time>2015-09-20T09:38:01Z</time>
      </trkpt>
      <trkpt lat="44.59773" lon="4.34359">
        <ele>465.42</ele>
        <time>2015-09-20T09:38:11Z</time>
      </trkpt>
      <trkpt lat="44.59774" lon="4.34348">
        <ele>464.93</ele>
        <time>2015-09-20T09:38:16Z</time>
      </trkpt>
      <trkpt lat="44.5977" lon="4.34311">
        <ele>467.34</ele>
        <time>2015-09-20T09:38:31Z</time>
      </trkpt>
      <trkpt lat="44.59771" lon="4.34279">
        <ele>468.78</ele>
        <time>2015-09-20T09:38:44Z</time>
      </trkpt>
      <trkpt lat="44.59777" lon="4.34256">
        <ele>467.34</ele>
        <time>2015-09-20T09:38:54Z</time>
      </trkpt>
      <trkpt lat="44.59785" lon="4.34227">
        <ele>469.74</ele>
        <time>2015-09-20T09:39:05Z</time>
      </trkpt>
      <trkpt lat="44.59785" lon="4.34197">
        <ele>470.22</ele>
        <time>2015-09-20T09:39:15Z</time>
      </trkpt>
      <trkpt lat="44.59782" lon="4.34177">
        <ele>469.74</ele>
        <time>2015-09-20T09:39:21Z</time>
      </trkpt>
      <trkpt lat="44.59763" lon="4.34156">
        <ele>471.66</ele>
        <time>2015-09-20T09:39:33Z</time>
      </trkpt>
      <trkpt lat="44.59748" lon="4.34136">
        <ele>472.63</ele>
        <time>2015-09-20T09:39:45Z</time>
      </trkpt>
      <trkpt lat="44.59743" lon="4.34133">
        <ele>472.14</ele>
        <time>2015-09-20T09:39:49Z</time>
      </trkpt>
      <trkpt lat="44.59737" lon="4.34125">
        <ele>472.63</ele>
        <time>2015-09-20T09:39:54Z</time>
      </trkpt>
      <trkpt lat="44.59726" lon="4.34113">
        <ele>472.63</ele>
        <time>2015-09-20T09:40:02Z</time>
      </trkpt>
      <trkpt lat="44.59694" lon="4.34086">
        <ele>472.14</ele>
        <time>2015-09-20T09:40:16Z</time>
      </trkpt>
      <trkpt lat="44.59662" lon="4.34053">
        <ele>472.63</ele>
        <time>2015-09-20T09:40:31Z</time>
      </trkpt>
      <trkpt lat="44.59628" lon="4.34019">
        <ele>473.59</ele>
        <time>2015-09-20T09:40:47Z</time>
      </trkpt>
      <trkpt lat="44.59622" lon="4.34007">
        <ele>474.07</ele>
        <time>2015-09-20T09:40:52Z</time>
      </trkpt>
      <trkpt lat="44.59611" lon="4.33952">
        <ele>473.59</ele>
        <time>2015-09-20T09:41:08Z</time>
      </trkpt>
      <trkpt lat="44.59598" lon="4.33895">
        <ele>475.51</ele>
        <time>2015-09-20T09:41:23Z</time>
      </trkpt>
      <trkpt lat="44.59588" lon="4.33881">
        <ele>476.47</ele>
        <time>2015-09-20T09:41:28Z</time>
      </trkpt>
      <trkpt lat="44.59584" lon="4.33872">
        <ele>476.47</ele>
        <time>2015-09-20T09:41:31Z</time>
      </trkpt>
      <trkpt lat="44.59576" lon="4.33864">
        <ele>476.47</ele>
        <time>2015-09-20T09:41:36Z</time>
      </trkpt>
      <trkpt lat="44.59568" lon="4.33857">
        <ele>476.47</ele>
        <time>2015-09-20T09:41:40Z</time>
      </trkpt>
      <trkpt lat="44.59551" lon="4.33832">
        <ele>477.43</ele>
        <time>2015-09-20T09:41:51Z</time>
      </trkpt>
      <trkpt lat="44.59547" lon="4.33834">
        <ele>477.91</ele>
        <time>2015-09-20T09:41:54Z</time>
      </trkpt>
      <trkpt lat="44.59545" lon="4.33837">
        <ele>478.39</ele>
        <time>2015-09-20T09:41:57Z</time>
      </trkpt>
      <trkpt lat="44.59555" lon="4.33846">
        <ele>478.87</ele>
        <time>2015-09-20T09:42:03Z</time>
      </trkpt>
      <trkpt lat="44.59579" lon="4.33882">
        <ele>476.95</ele>
        <time>2015-09-20T09:42:13Z</time>
      </trkpt>
      <trkpt lat="44.59589" lon="4.33904">
        <ele>477.43</ele>
        <time>2015-09-20T09:42:17Z</time>
      </trkpt>
      <trkpt lat="44.59593" lon="4.33916">
        <ele>475.99</ele>
        <time>2015-09-20T09:42:19Z</time>
      </trkpt>
      <trkpt lat="44.59595" lon="4.33922">
        <ele>475.51</ele>
        <time>2015-09-20T09:42:20Z</time>
      </trkpt>
      <trkpt lat="44.5962" lon="4.34009">
        <ele>475.51</ele>
        <time>2015-09-20T09:42:34Z</time>
      </trkpt>
      <trkpt lat="44.59624" lon="4.34019">
        <ele>475.03</ele>
        <time>2015-09-20T09:42:36Z</time>
      </trkpt>
      <trkpt lat="44.5968" lon="4.34079">
        <ele>473.59</ele>
        <time>2015-09-20T09:42:49Z</time>
      </trkpt>
      <trkpt lat="44.59684" lon="4.34083">
        <ele>472.63</ele>
        <time>2015-09-20T09:42:50Z</time>
      </trkpt>
      <trkpt lat="44.59692" lon="4.34093">
        <ele>472.14</ele>
        <time>2015-09-20T09:42:52Z</time>
      </trkpt>
      <trkpt lat="44.59749" lon="4.34145">
        <ele>472.14</ele>
        <time>2015-09-20T09:43:07Z</time>
      </trkpt>
      <trkpt lat="44.59769" lon="4.34167">
        <ele>469.74</ele>
        <time>2015-09-20T09:43:14Z</time>
      </trkpt>
      <trkpt lat="44.59772" lon="4.34172">
        <ele>469.26</ele>
        <time>2015-09-20T09:43:15Z</time>
      </trkpt>
      <trkpt lat="44.59775" lon="4.34179">
        <ele>468.78</ele>
        <time>2015-09-20T09:43:16Z</time>
      </trkpt>
      <trkpt lat="44.59776" lon="4.34184">
        <ele>468.3</ele>
        <time>2015-09-20T09:43:17Z</time>
      </trkpt>
      <trkpt lat="44.59775" lon="4.34188">
        <ele>468.3</ele>
        <time>2015-09-20T09:43:18Z</time>
      </trkpt>
      <trkpt lat="44.59774" lon="4.34193">
        <ele>468.3</ele>
        <time>2015-09-20T09:43:19Z</time>
      </trkpt>
      <trkpt lat="44.59773" lon="4.34198">
        <ele>468.3</ele>
        <time>2015-09-20T09:43:20Z</time>
      </trkpt>
      <trkpt lat="44.59766" lon="4.34219">
        <ele>468.78</ele>
        <time>2015-09-20T09:43:24Z</time>
      </trkpt>
      <trkpt lat="44.59765" lon="4.34224">
        <ele>468.78</ele>
        <time>2015-09-20T09:43:25Z</time>
      </trkpt>
      <trkpt lat="44.59764" lon="4.34231">
        <ele>468.3</ele>
        <time>2015-09-20T09:43:26Z</time>
      </trkpt>
      <trkpt lat="44.59758" lon="4.34264">
        <ele>465.9</ele>
        <time>2015-09-20T09:43:35Z</time>
      </trkpt>
      <trkpt lat="44.59757" lon="4.34268">
        <ele>465.9</ele>
        <time>2015-09-20T09:43:36Z</time>
      </trkpt>
      <trkpt lat="44.59752" lon="4.34308">
        <ele>463.97</ele>
        <time>2015-09-20T09:43:44Z</time>
      </trkpt>
      <trkpt lat="44.59753" lon="4.34369">
        <ele>462.05</ele>
        <time>2015-09-20T09:43:53Z</time>
      </trkpt>
      <trkpt lat="44.59752" lon="4.34375">
        <ele>461.57</ele>
        <time>2015-09-20T09:43:54Z</time>
      </trkpt>
      <trkpt lat="44.59749" lon="4.3439">
        <ele>459.17</ele>
        <time>2015-09-20T09:43:58Z</time>
      </trkpt>
      <trkpt lat="44.59745" lon="4.34392">
        <ele>459.17</ele>
        <time>2015-09-20T09:44:00Z</time>
      </trkpt>
      <trkpt lat="44.59741" lon="4.34393">
        <ele>459.17</ele>
        <time>2015-09-20T09:44:03Z</time>
      </trkpt>
      <trkpt lat="44.59739" lon="4.34392">
        <ele>459.65</ele>
        <time>2015-09-20T09:44:04Z</time>
      </trkpt>
      <trkpt lat="44.59737" lon="4.34392">
        <ele>460.13</ele>
        <time>2015-09-20T09:44:05Z</time>
      </trkpt>
      <trkpt lat="44.59718" lon="4.34402">
        <ele>461.57</ele>
        <time>2015-09-20T09:44:16Z</time>
      </trkpt>
      <trkpt lat="44.59705" lon="4.34399">
        <ele>461.57</ele>
        <time>2015-09-20T09:44:22Z</time>
      </trkpt>
      <trkpt lat="44.59703" lon="4.34397">
        <ele>462.05</ele>
        <time>2015-09-20T09:44:23Z</time>
      </trkpt>
      <trkpt lat="44.59692" lon="4.34386">
        <ele>463.01</ele>
        <time>2015-09-20T09:44:28Z</time>
      </trkpt>
      <trkpt lat="44.59661" lon="4.34383">
        <ele>461.09</ele>
        <time>2015-09-20T09:44:38Z</time>
      </trkpt>
      <trkpt lat="44.59651" lon="4.34383">
        <ele>459.65</ele>
        <time>2015-09-20T09:44:40Z</time>
      </trkpt>
      <trkpt lat="44.59623" lon="4.34379">
        <ele>458.69</ele>
        <time>2015-09-20T09:44:45Z</time>
      </trkpt>
      <trkpt lat="44.59615" lon="4.34381">
        <ele>458.21</ele>
        <time>2015-09-20T09:44:46Z</time>
      </trkpt>
      <trkpt lat="44.59602" lon="4.34383">
        <ele>458.21</ele>
        <time>2015-09-20T09:44:48Z</time>
      </trkpt>
      <trkpt lat="44.59588" lon="4.34383">
        <ele>457.24</ele>
        <time>2015-09-20T09:44:50Z</time>
      </trkpt>
      <trkpt lat="44.59582" lon="4.34382">
        <ele>456.76</ele>
        <time>2015-09-20T09:44:51Z</time>
      </trkpt>
      <trkpt lat="44.59575" lon="4.34382">
        <ele>456.28</ele>
        <time>2015-09-20T09:44:52Z</time>
      </trkpt>
      <trkpt lat="44.59568" lon="4.34384">
        <ele>456.28</ele>
        <time>2015-09-20T09:44:53Z</time>
      </trkpt>
      <trkpt lat="44.59562" lon="4.34386">
        <ele>456.28</ele>
        <time>2015-09-20T09:44:54Z</time>
      </trkpt>
      <trkpt lat="44.5955" lon="4.34391">
        <ele>455.8</ele>
        <time>2015-09-20T09:44:56Z</time>
      </trkpt>
      <trkpt lat="44.59542" lon="4.34391">
        <ele>455.8</ele>
        <time>2015-09-20T09:44:57Z</time>
      </trkpt>
      <trkpt lat="44.59525" lon="4.34394">
        <ele>455.32</ele>
        <time>2015-09-20T09:45:00Z</time>
      </trkpt>
      <trkpt lat="44.59507" lon="4.344">
        <ele>454.36</ele>
        <time>2015-09-20T09:45:03Z</time>
      </trkpt>
      <trkpt lat="44.59497" lon="4.34402">
        <ele>453.4</ele>
        <time>2015-09-20T09:45:05Z</time>
      </trkpt>
      <trkpt lat="44.59475" lon="4.3441">
        <ele>451.48</ele>
        <time>2015-09-20T09:45:10Z</time>
      </trkpt>
      <trkpt lat="44.5947" lon="4.3441">
        <ele>451.48</ele>
        <time>2015-09-20T09:45:11Z</time>
      </trkpt>
      <trkpt lat="44.59465" lon="4.34409">
        <ele>451.48</ele>
        <time>2015-09-20T09:45:12Z</time>
      </trkpt>
      <trkpt lat="44.59462" lon="4.34407">
        <ele>451.48</ele>
        <time>2015-09-20T09:45:13Z</time>
      </trkpt>
      <trkpt lat="44.59459" lon="4.34405">
        <ele>451.48</ele>
        <time>2015-09-20T09:45:14Z</time>
      </trkpt>
      <trkpt lat="44.59456" lon="4.34403">
        <ele>451</ele>
        <time>2015-09-20T09:45:15Z</time>
      </trkpt>
      <trkpt lat="44.59453" lon="4.344">
        <ele>451</ele>
        <time>2015-09-20T09:45:16Z</time>
      </trkpt>
      <trkpt lat="44.5945" lon="4.34399">
        <ele>450.52</ele>
        <time>2015-09-20T09:45:17Z</time>
      </trkpt>
      <trkpt lat="44.5942" lon="4.3438">
        <ele>450.52</ele>
        <time>2015-09-20T09:45:27Z</time>
      </trkpt>
      <trkpt lat="44.59392" lon="4.34382">
        <ele>451</ele>
        <time>2015-09-20T09:45:36Z</time>
      </trkpt>
      <trkpt lat="44.59389" lon="4.34382">
        <ele>451</ele>
        <time>2015-09-20T09:45:37Z</time>
      </trkpt>
      <trkpt lat="44.59386" lon="4.34381">
        <ele>451</ele>
        <time>2015-09-20T09:45:38Z</time>
      </trkpt>
      <trkpt lat="44.59383" lon="4.3438">
        <ele>451.48</ele>
        <time>2015-09-20T09:45:39Z</time>
      </trkpt>
      <trkpt lat="44.59381" lon="4.34379">
        <ele>451.48</ele>
        <time>2015-09-20T09:45:40Z</time>
      </trkpt>
      <trkpt lat="44.59378" lon="4.3438">
        <ele>451.96</ele>
        <time>2015-09-20T09:45:41Z</time>
      </trkpt>
      <trkpt lat="44.59358" lon="4.34384">
        <ele>451.48</ele>
        <time>2015-09-20T09:45:48Z</time>
      </trkpt>
      <trkpt lat="44.59349" lon="4.34385">
        <ele>451.48</ele>
        <time>2015-09-20T09:45:51Z</time>
      </trkpt>
      <trkpt lat="44.59345" lon="4.34385">
        <ele>451.48</ele>
        <time>2015-09-20T09:45:52Z</time>
      </trkpt>
      <trkpt lat="44.59341" lon="4.34384">
        <ele>451.48</ele>
        <time>2015-09-20T09:45:53Z</time>
      </trkpt>
      <trkpt lat="44.59309" lon="4.34377">
        <ele>451</ele>
        <time>2015-09-20T09:46:01Z</time>
      </trkpt>
      <trkpt lat="44.59303" lon="4.34376">
        <ele>450.52</ele>
        <time>2015-09-20T09:46:03Z</time>
      </trkpt>
      <trkpt lat="44.5928" lon="4.34346">
        <ele>450.03</ele>
        <time>2015-09-20T09:46:13Z</time>
      </trkpt>
      <trkpt lat="44.59267" lon="4.34306">
        <ele>450.03</ele>
        <time>2015-09-20T09:46:24Z</time>
      </trkpt>
      <trkpt lat="44.59265" lon="4.34262">
        <ele>449.55</ele>
        <time>2015-09-20T09:46:33Z</time>
      </trkpt>
      <trkpt lat="44.59257" lon="4.34237">
        <ele>449.07</ele>
        <time>2015-09-20T09:46:41Z</time>
      </trkpt>
      <trkpt lat="44.59253" lon="4.34233">
        <ele>449.07</ele>
        <time>2015-09-20T09:46:44Z</time>
      </trkpt>
      <trkpt lat="44.5924" lon="4.34199">
        <ele>448.59</ele>
        <time>2015-09-20T09:46:54Z</time>
      </trkpt>
      <trkpt lat="44.59232" lon="4.34186">
        <ele>448.11</ele>
        <time>2015-09-20T09:46:58Z</time>
      </trkpt>
      <trkpt lat="44.5923" lon="4.34183">
        <ele>447.63</ele>
        <time>2015-09-20T09:46:59Z</time>
      </trkpt>
      <trkpt lat="44.59224" lon="4.34173">
        <ele>446.67</ele>
        <time>2015-09-20T09:47:09Z</time>
      </trkpt>
      <trkpt lat="44.59224" lon="4.34172">
        <ele>446.67</ele>
        <time>2015-09-20T09:47:10Z</time>
      </trkpt>
      <trkpt lat="44.59222" lon="4.34169">
        <ele>447.15</ele>
        <time>2015-09-20T09:47:12Z</time>
      </trkpt>
      <trkpt lat="44.59209" lon="4.34167">
        <ele>447.15</ele>
        <time>2015-09-20T09:47:18Z</time>
      </trkpt>
      <trkpt lat="44.59206" lon="4.34164">
        <ele>447.63</ele>
        <time>2015-09-20T09:47:21Z</time>
      </trkpt>
      <trkpt lat="44.59186" lon="4.3415">
        <ele>448.11</ele>
        <time>2015-09-20T09:47:30Z</time>
      </trkpt>
      <trkpt lat="44.59157" lon="4.34132">
        <ele>447.63</ele>
        <time>2015-09-20T09:47:39Z</time>
      </trkpt>
      <trkpt lat="44.59128" lon="4.341">
        <ele>447.15</ele>
        <time>2015-09-20T09:47:49Z</time>
      </trkpt>
      <trkpt lat="44.59122" lon="4.34093">
        <ele>446.67</ele>
        <time>2015-09-20T09:47:51Z</time>
      </trkpt>
      <trkpt lat="44.5912" lon="4.34088">
        <ele>446.67</ele>
        <time>2015-09-20T09:47:52Z</time>
      </trkpt>
      <trkpt lat="44.59116" lon="4.34077">
        <ele>446.19</ele>
        <time>2015-09-20T09:47:54Z</time>
      </trkpt>
      <trkpt lat="44.59124" lon="4.34061">
        <ele>445.71</ele>
        <time>2015-09-20T09:47:57Z</time>
      </trkpt>
      <trkpt lat="44.59126" lon="4.34056">
        <ele>445.71</ele>
        <time>2015-09-20T09:47:58Z</time>
      </trkpt>
      <trkpt lat="44.5913" lon="4.34045">
        <ele>445.71</ele>
        <time>2015-09-20T09:48:00Z</time>
      </trkpt>
      <trkpt lat="44.59116" lon="4.34004">
        <ele>445.23</ele>
        <time>2015-09-20T09:48:08Z</time>
      </trkpt>
      <trkpt lat="44.59101" lon="4.33987">
        <ele>445.23</ele>
        <time>2015-09-20T09:48:13Z</time>
      </trkpt>
      <trkpt lat="44.59092" lon="4.33967">
        <ele>444.75</ele>
        <time>2015-09-20T09:48:17Z</time>
      </trkpt>
      <trkpt lat="44.59089" lon="4.33962">
        <ele>444.75</ele>
        <time>2015-09-20T09:48:18Z</time>
      </trkpt>
      <trkpt lat="44.59086" lon="4.33957">
        <ele>444.75</ele>
        <time>2015-09-20T09:48:19Z</time>
      </trkpt>
      <trkpt lat="44.59083" lon="4.33952">
        <ele>444.27</ele>
        <time>2015-09-20T09:48:20Z</time>
      </trkpt>
      <trkpt lat="44.59082" lon="4.33947">
        <ele>444.27</ele>
        <time>2015-09-20T09:48:21Z</time>
      </trkpt>
      <trkpt lat="44.5908" lon="4.33943">
        <ele>444.27</ele>
        <time>2015-09-20T09:48:22Z</time>
      </trkpt>
      <trkpt lat="44.59075" lon="4.33937">
        <ele>443.79</ele>
        <time>2015-09-20T09:48:24Z</time>
      </trkpt>
      <trkpt lat="44.5907" lon="4.33936">
        <ele>443.79</ele>
        <time>2015-09-20T09:48:25Z</time>
      </trkpt>
      <trkpt lat="44.5906" lon="4.33936">
        <ele>443.79</ele>
        <time>2015-09-20T09:48:27Z</time>
      </trkpt>
      <trkpt lat="44.59056" lon="4.33935">
        <ele>444.27</ele>
        <time>2015-09-20T09:48:28Z</time>
      </trkpt>
      <trkpt lat="44.59024" lon="4.33919">
        <ele>444.27</ele>
        <time>2015-09-20T09:48:39Z</time>
      </trkpt>
      <trkpt lat="44.59006" lon="4.33895">
        <ele>443.31</ele>
        <time>2015-09-20T09:48:46Z</time>
      </trkpt>
      <trkpt lat="44.59001" lon="4.33881">
        <ele>443.79</ele>
        <time>2015-09-20T09:48:49Z</time>
      </trkpt>
      <trkpt lat="44.5899" lon="4.33853">
        <ele>447.15</ele>
        <time>2015-09-20T09:49:00Z</time>
      </trkpt>
      <trkpt lat="44.58986" lon="4.33839">
        <ele>447.15</ele>
        <time>2015-09-20T09:49:05Z</time>
      </trkpt>
      <trkpt lat="44.58969" lon="4.33811">
        <ele>448.59</ele>
        <time>2015-09-20T09:49:20Z</time>
      </trkpt>
      <trkpt lat="44.58967" lon="4.33808">
        <ele>449.07</ele>
        <time>2015-09-20T09:49:22Z</time>
      </trkpt>
      <trkpt lat="44.58963" lon="4.33801">
        <ele>450.03</ele>
        <time>2015-09-20T09:49:25Z</time>
      </trkpt>
      <trkpt lat="44.58951" lon="4.33785">
        <ele>451.48</ele>
        <time>2015-09-20T09:49:32Z</time>
      </trkpt>
      <trkpt lat="44.58949" lon="4.33784">
        <ele>451.48</ele>
        <time>2015-09-20T09:49:33Z</time>
      </trkpt>
      <trkpt lat="44.5894" lon="4.33776">
        <ele>452.44</ele>
        <time>2015-09-20T09:49:38Z</time>
      </trkpt>
      <trkpt lat="44.58935" lon="4.33769">
        <ele>452.44</ele>
        <time>2015-09-20T09:49:41Z</time>
      </trkpt>
      <trkpt lat="44.58933" lon="4.33766">
        <ele>452.92</ele>
        <time>2015-09-20T09:49:42Z</time>
      </trkpt>
      <trkpt lat="44.5893" lon="4.33761">
        <ele>453.4</ele>
        <time>2015-09-20T09:49:45Z</time>
      </trkpt>
      <trkpt lat="44.58928" lon="4.33759">
        <ele>453.88</ele>
        <time>2015-09-20T09:49:46Z</time>
      </trkpt>
      <trkpt lat="44.58922" lon="4.33754">
        <ele>454.36</ele>
        <time>2015-09-20T09:49:51Z</time>
      </trkpt>
      <trkpt lat="44.58918" lon="4.3375">
        <ele>454.84</ele>
        <time>2015-09-20T09:49:53Z</time>
      </trkpt>
      <trkpt lat="44.58912" lon="4.33746">
        <ele>455.8</ele>
        <time>2015-09-20T09:49:57Z</time>
      </trkpt>
      <trkpt lat="44.58903" lon="4.33731">
        <ele>456.76</ele>
        <time>2015-09-20T09:50:04Z</time>
      </trkpt>
      <trkpt lat="44.589" lon="4.33728">
        <ele>456.76</ele>
        <time>2015-09-20T09:50:06Z</time>
      </trkpt>
      <trkpt lat="44.58896" lon="4.33716">
        <ele>458.21</ele>
        <time>2015-09-20T09:50:12Z</time>
      </trkpt>
      <trkpt lat="44.58884" lon="4.33699">
        <ele>460.13</ele>
        <time>2015-09-20T09:50:22Z</time>
      </trkpt>
      <trkpt lat="44.58882" lon="4.33694">
        <ele>460.61</ele>
        <time>2015-09-20T09:50:25Z</time>
      </trkpt>
      <trkpt lat="44.58877" lon="4.33686">
        <ele>461.57</ele>
        <time>2015-09-20T09:50:29Z</time>
      </trkpt>
      <trkpt lat="44.58876" lon="4.33678">
        <ele>462.05</ele>
        <time>2015-09-20T09:50:33Z</time>
      </trkpt>
      <trkpt lat="44.58872" lon="4.33658">
        <ele>462.05</ele>
        <time>2015-09-20T09:50:43Z</time>
      </trkpt>
      <trkpt lat="44.58872" lon="4.33656">
        <ele>462.53</ele>
        <time>2015-09-20T09:50:44Z</time>
      </trkpt>
      <trkpt lat="44.5887" lon="4.33648">
        <ele>462.53</ele>
        <time>2015-09-20T09:50:47Z</time>
      </trkpt>
      <trkpt lat="44.58866" lon="4.33643">
        <ele>462.53</ele>
        <time>2015-09-20T09:50:50Z</time>
      </trkpt>
      <trkpt lat="44.5886" lon="4.33641">
        <ele>463.01</ele>
        <time>2015-09-20T09:50:54Z</time>
      </trkpt>
      <trkpt lat="44.58847" lon="4.33634">
        <ele>463.97</ele>
        <time>2015-09-20T09:51:06Z</time>
      </trkpt>
      <trkpt lat="44.58846" lon="4.33632">
        <ele>463.97</ele>
        <time>2015-09-20T09:51:08Z</time>
      </trkpt>
      <trkpt lat="44.58832" lon="4.33634">
        <ele>463.97</ele>
        <time>2015-09-20T09:51:22Z</time>
      </trkpt>
      <trkpt lat="44.58832" lon="4.33634">
        <ele>463.97</ele>
        <time>2015-09-20T09:51:43Z</time>
      </trkpt>
      <trkpt lat="44.58829" lon="4.33634">
        <ele>463.97</ele>
        <time>2015-09-20T09:51:57Z</time>
      </trkpt>
      <trkpt lat="44.58832" lon="4.33632">
        <ele>464.45</ele>
        <time>2015-09-20T09:52:01Z</time>
      </trkpt>
      <trkpt lat="44.58836" lon="4.33634">
        <ele>465.42</ele>
        <time>2015-09-20T09:52:11Z</time>
      </trkpt>
      <trkpt lat="44.58836" lon="4.33635">
        <ele>465.9</ele>
        <time>2015-09-20T09:52:17Z</time>
      </trkpt>
      <trkpt lat="44.5884" lon="4.33632">
        <ele>466.38</ele>
        <time>2015-09-20T09:52:26Z</time>
      </trkpt>
      <trkpt lat="44.58844" lon="4.3363">
        <ele>466.38</ele>
        <time>2015-09-20T09:52:37Z</time>
      </trkpt>
      <trkpt lat="44.58855" lon="4.33621">
        <ele>466.86</ele>
        <time>2015-09-20T09:52:45Z</time>
      </trkpt>
      <trkpt lat="44.58868" lon="4.33619">
        <ele>467.34</ele>
        <time>2015-09-20T09:52:57Z</time>
      </trkpt>
      <trkpt lat="44.58869" lon="4.33636">
        <ele>468.78</ele>
        <time>2015-09-20T09:53:09Z</time>
      </trkpt>
      <trkpt lat="44.5887" lon="4.33642">
        <ele>468.3</ele>
        <time>2015-09-20T09:53:14Z</time>
      </trkpt>
      <trkpt lat="44.58869" lon="4.33645">
        <ele>470.22</ele>
        <time>2015-09-20T09:53:17Z</time>
      </trkpt>
      <trkpt lat="44.58873" lon="4.33648">
        <ele>472.14</ele>
        <time>2015-09-20T09:53:20Z</time>
      </trkpt>
      <trkpt lat="44.58878" lon="4.33653">
        <ele>470.7</ele>
        <time>2015-09-20T09:53:25Z</time>
      </trkpt>
      <trkpt lat="44.58884" lon="4.33661">
        <ele>471.66</ele>
        <time>2015-09-20T09:53:28Z</time>
      </trkpt>
      <trkpt lat="44.58899" lon="4.33665">
        <ele>471.66</ele>
        <time>2015-09-20T09:53:36Z</time>
      </trkpt>
      <trkpt lat="44.58904" lon="4.33667">
        <ele>472.14</ele>
        <time>2015-09-20T09:53:40Z</time>
      </trkpt>
      <trkpt lat="44.58907" lon="4.33668">
        <ele>473.11</ele>
        <time>2015-09-20T09:53:42Z</time>
      </trkpt>
      <trkpt lat="44.58925" lon="4.33684">
        <ele>475.99</ele>
        <time>2015-09-20T09:53:54Z</time>
      </trkpt>
      <trkpt lat="44.58937" lon="4.33693">
        <ele>477.43</ele>
        <time>2015-09-20T09:54:02Z</time>
      </trkpt>
      <trkpt lat="44.58941" lon="4.33697">
        <ele>477.91</ele>
        <time>2015-09-20T09:54:05Z</time>
      </trkpt>
      <trkpt lat="44.58943" lon="4.33699">
        <ele>477.91</ele>
        <time>2015-09-20T09:54:07Z</time>
      </trkpt>
      <trkpt lat="44.58961" lon="4.33708">
        <ele>478.39</ele>
        <time>2015-09-20T09:54:18Z</time>
      </trkpt>
      <trkpt lat="44.58978" lon="4.33715">
        <ele>479.84</ele>
        <time>2015-09-20T09:54:29Z</time>
      </trkpt>
      <trkpt lat="44.58992" lon="4.33722">
        <ele>481.28</ele>
        <time>2015-09-20T09:54:38Z</time>
      </trkpt>
      <trkpt lat="44.59005" lon="4.33729">
        <ele>481.76</ele>
        <time>2015-09-20T09:54:47Z</time>
      </trkpt>
      <trkpt lat="44.59008" lon="4.33732">
        <ele>482.24</ele>
        <time>2015-09-20T09:54:50Z</time>
      </trkpt>
      <trkpt lat="44.59016" lon="4.33733">
        <ele>482.72</ele>
        <time>2015-09-20T09:54:54Z</time>
      </trkpt>
      <trkpt lat="44.59026" lon="4.33737">
        <ele>482.72</ele>
        <time>2015-09-20T09:55:01Z</time>
      </trkpt>
      <trkpt lat="44.59048" lon="4.33748">
        <ele>483.68</ele>
        <time>2015-09-20T09:55:10Z</time>
      </trkpt>
      <trkpt lat="44.5907" lon="4.33757">
        <ele>485.6</ele>
        <time>2015-09-20T09:55:22Z</time>
      </trkpt>
      <trkpt lat="44.59075" lon="4.3376">
        <ele>486.08</ele>
        <time>2015-09-20T09:55:25Z</time>
      </trkpt>
      <trkpt lat="44.5908" lon="4.33761">
        <ele>486.56</ele>
        <time>2015-09-20T09:55:28Z</time>
      </trkpt>
      <trkpt lat="44.59096" lon="4.33768">
        <ele>488.49</ele>
        <time>2015-09-20T09:55:39Z</time>
      </trkpt>
      <trkpt lat="44.59105" lon="4.33772">
        <ele>489.45</ele>
        <time>2015-09-20T09:55:44Z</time>
      </trkpt>
      <trkpt lat="44.59118" lon="4.33777">
        <ele>490.89</ele>
        <time>2015-09-20T09:55:51Z</time>
      </trkpt>
      <trkpt lat="44.59125" lon="4.33777">
        <ele>491.85</ele>
        <time>2015-09-20T09:55:56Z</time>
      </trkpt>
      <trkpt lat="44.59128" lon="4.33775">
        <ele>491.85</ele>
        <time>2015-09-20T09:55:58Z</time>
      </trkpt>
      <trkpt lat="44.59138" lon="4.33768">
        <ele>493.29</ele>
        <time>2015-09-20T09:56:04Z</time>
      </trkpt>
      <trkpt lat="44.59148" lon="4.3376">
        <ele>494.74</ele>
        <time>2015-09-20T09:56:10Z</time>
      </trkpt>
      <trkpt lat="44.59161" lon="4.33757">
        <ele>495.7</ele>
        <time>2015-09-20T09:56:17Z</time>
      </trkpt>
      <trkpt lat="44.59172" lon="4.33751">
        <ele>496.66</ele>
        <time>2015-09-20T09:56:24Z</time>
      </trkpt>
      <trkpt lat="44.59173" lon="4.33745">
        <ele>496.66</ele>
        <time>2015-09-20T09:56:27Z</time>
      </trkpt>
      <trkpt lat="44.59176" lon="4.33734">
        <ele>497.62</ele>
        <time>2015-09-20T09:56:32Z</time>
      </trkpt>
      <trkpt lat="44.59172" lon="4.33729">
        <ele>497.62</ele>
        <time>2015-09-20T09:56:36Z</time>
      </trkpt>
      <trkpt lat="44.59165" lon="4.33724">
        <ele>498.1</ele>
        <time>2015-09-20T09:56:41Z</time>
      </trkpt>
      <trkpt lat="44.59163" lon="4.3372">
        <ele>498.1</ele>
        <time>2015-09-20T09:56:45Z</time>
      </trkpt>
      <trkpt lat="44.59159" lon="4.33715">
        <ele>498.1</ele>
        <time>2015-09-20T09:57:02Z</time>
      </trkpt>
      <trkpt lat="44.59157" lon="4.33711">
        <ele>498.58</ele>
        <time>2015-09-20T09:57:14Z</time>
      </trkpt>
      <trkpt lat="44.59143" lon="4.3369">
        <ele>498.58</ele>
        <time>2015-09-20T09:57:23Z</time>
      </trkpt>
      <trkpt lat="44.59124" lon="4.33662">
        <ele>499.54</ele>
        <time>2015-09-20T09:57:34Z</time>
      </trkpt>
      <trkpt lat="44.59103" lon="4.33626">
        <ele>500.02</ele>
        <time>2015-09-20T09:57:46Z</time>
      </trkpt>
      <trkpt lat="44.59083" lon="4.33603">
        <ele>501.46</ele>
        <time>2015-09-20T09:57:56Z</time>
      </trkpt>
      <trkpt lat="44.59075" lon="4.33576">
        <ele>501.46</ele>
        <time>2015-09-20T09:58:04Z</time>
      </trkpt>
      <trkpt lat="44.59072" lon="4.33556">
        <ele>501.95</ele>
        <time>2015-09-20T09:58:14Z</time>
      </trkpt>
      <trkpt lat="44.59071" lon="4.33554">
        <ele>502.43</ele>
        <time>2015-09-20T09:58:24Z</time>
      </trkpt>
      <trkpt lat="44.59066" lon="4.33534">
        <ele>501.46</ele>
        <time>2015-09-20T09:58:30Z</time>
      </trkpt>
      <trkpt lat="44.59031" lon="4.33504">
        <ele>500.02</ele>
        <time>2015-09-20T09:58:40Z</time>
      </trkpt>
      <trkpt lat="44.59027" lon="4.33501">
        <ele>500.02</ele>
        <time>2015-09-20T09:58:41Z</time>
      </trkpt>
      <trkpt lat="44.59019" lon="4.33493">
        <ele>499.54</ele>
        <time>2015-09-20T09:58:43Z</time>
      </trkpt>
      <trkpt lat="44.59005" lon="4.33484">
        <ele>499.06</ele>
        <time>2015-09-20T09:58:46Z</time>
      </trkpt>
      <trkpt lat="44.58959" lon="4.33462">
        <ele>498.58</ele>
        <time>2015-09-20T09:58:56Z</time>
      </trkpt>
      <trkpt lat="44.5893" lon="4.33441">
        <ele>499.54</ele>
        <time>2015-09-20T09:59:05Z</time>
      </trkpt>
      <trkpt lat="44.58929" lon="4.33438">
        <ele>500.02</ele>
        <time>2015-09-20T09:59:06Z</time>
      </trkpt>
      <trkpt lat="44.58927" lon="4.33434">
        <ele>500.02</ele>
        <time>2015-09-20T09:59:07Z</time>
      </trkpt>
      <trkpt lat="44.58925" lon="4.33432">
        <ele>500.02</ele>
        <time>2015-09-20T09:59:08Z</time>
      </trkpt>
      <trkpt lat="44.58923" lon="4.3343">
        <ele>500.02</ele>
        <time>2015-09-20T09:59:09Z</time>
      </trkpt>
      <trkpt lat="44.58921" lon="4.33429">
        <ele>500.02</ele>
        <time>2015-09-20T09:59:10Z</time>
      </trkpt>
      <trkpt lat="44.58919" lon="4.3343">
        <ele>500.5</ele>
        <time>2015-09-20T09:59:11Z</time>
      </trkpt>
      <trkpt lat="44.58917" lon="4.33431">
        <ele>500.5</ele>
        <time>2015-09-20T09:59:12Z</time>
      </trkpt>
      <trkpt lat="44.58913" lon="4.33431">
        <ele>500.5</ele>
        <time>2015-09-20T09:59:13Z</time>
      </trkpt>
      <trkpt lat="44.58879" lon="4.3343">
        <ele>500.98</ele>
        <time>2015-09-20T09:59:23Z</time>
      </trkpt>
      <trkpt lat="44.58875" lon="4.33431">
        <ele>500.98</ele>
        <time>2015-09-20T09:59:24Z</time>
      </trkpt>
      <trkpt lat="44.58837" lon="4.33429">
        <ele>500.5</ele>
        <time>2015-09-20T09:59:36Z</time>
      </trkpt>
      <trkpt lat="44.58814" lon="4.33429">
        <ele>499.54</ele>
        <time>2015-09-20T09:59:40Z</time>
      </trkpt>
      <trkpt lat="44.58805" lon="4.33428">
        <ele>498.58</ele>
        <time>2015-09-20T09:59:42Z</time>
      </trkpt>
      <trkpt lat="44.58763" lon="4.33414">
        <ele>496.18</ele>
        <time>2015-09-20T09:59:53Z</time>
      </trkpt>
      <trkpt lat="44.58743" lon="4.33395">
        <ele>497.14</ele>
        <time>2015-09-20T10:00:02Z</time>
      </trkpt>
      <trkpt lat="44.5874" lon="4.33391">
        <ele>499.06</ele>
        <time>2015-09-20T10:00:09Z</time>
      </trkpt>
      <trkpt lat="44.58729" lon="4.33381">
        <ele>499.06</ele>
        <time>2015-09-20T10:00:15Z</time>
      </trkpt>
      <trkpt lat="44.58721" lon="4.33375">
        <ele>498.58</ele>
        <time>2015-09-20T10:00:18Z</time>
      </trkpt>
      <trkpt lat="44.58717" lon="4.33374">
        <ele>497.62</ele>
        <time>2015-09-20T10:00:21Z</time>
      </trkpt>
      <trkpt lat="44.58705" lon="4.33367">
        <ele>497.62</ele>
        <time>2015-09-20T10:00:30Z</time>
      </trkpt>
      <trkpt lat="44.58687" lon="4.33363">
        <ele>497.62</ele>
        <time>2015-09-20T10:00:42Z</time>
      </trkpt>
      <trkpt lat="44.58688" lon="4.33364">
        <ele>498.58</ele>
        <time>2015-09-20T10:00:58Z</time>
      </trkpt>
      <trkpt lat="44.58687" lon="4.33364">
        <ele>499.06</ele>
        <time>2015-09-20T10:01:06Z</time>
      </trkpt>
      <trkpt lat="44.58666" lon="4.33354">
        <ele>500.02</ele>
        <time>2015-09-20T10:01:17Z</time>
      </trkpt>
      <trkpt lat="44.58659" lon="4.33346">
        <ele>501.95</ele>
        <time>2015-09-20T10:01:29Z</time>
      </trkpt>
      <trkpt lat="44.58651" lon="4.3334">
        <ele>503.87</ele>
        <time>2015-09-20T10:01:34Z</time>
      </trkpt>
      <trkpt lat="44.58648" lon="4.33337">
        <ele>505.31</ele>
        <time>2015-09-20T10:01:44Z</time>
      </trkpt>
      <trkpt lat="44.58648" lon="4.33335">
        <ele>505.79</ele>
        <time>2015-09-20T10:01:47Z</time>
      </trkpt>
      <trkpt lat="44.58652" lon="4.33317">
        <ele>507.23</ele>
        <time>2015-09-20T10:01:55Z</time>
      </trkpt>
      <trkpt lat="44.58649" lon="4.33308">
        <ele>507.71</ele>
        <time>2015-09-20T10:01:58Z</time>
      </trkpt>
      <trkpt lat="44.58649" lon="4.33298">
        <ele>508.19</ele>
        <time>2015-09-20T10:02:01Z</time>
      </trkpt>
      <trkpt lat="44.58648" lon="4.33286">
        <ele>507.71</ele>
        <time>2015-09-20T10:02:05Z</time>
      </trkpt>
      <trkpt lat="44.58643" lon="4.33271">
        <ele>507.71</ele>
        <time>2015-09-20T10:02:13Z</time>
      </trkpt>
      <trkpt lat="44.5864" lon="4.33267">
        <ele>505.31</ele>
        <time>2015-09-20T10:02:25Z</time>
      </trkpt>
      <trkpt lat="44.5864" lon="4.33267">
        <ele>505.31</ele>
        <time>2015-09-20T10:02:46Z</time>
      </trkpt>
      <trkpt lat="44.5864" lon="4.33268">
        <ele>504.83</ele>
        <time>2015-09-20T10:03:11Z</time>
      </trkpt>
      <trkpt lat="44.5864" lon="4.33268">
        <ele>505.31</ele>
        <time>2015-09-20T10:03:38Z</time>
      </trkpt>
      <trkpt lat="44.5864" lon="4.33268">
        <ele>504.35</ele>
        <time>2015-09-20T10:03:56Z</time>
      </trkpt>
      <trkpt lat="44.5864" lon="4.33268">
        <ele>506.27</ele>
        <time>2015-09-20T10:04:20Z</time>
      </trkpt>
      <trkpt lat="44.58639" lon="4.33268">
        <ele>504.83</ele>
        <time>2015-09-20T10:04:35Z</time>
      </trkpt>
      <trkpt lat="44.5864" lon="4.33266">
        <ele>505.79</ele>
        <time>2015-09-20T10:04:54Z</time>
      </trkpt>
      <trkpt lat="44.58643" lon="4.33256">
        <ele>505.31</ele>
        <time>2015-09-20T10:04:59Z</time>
      </trkpt>
      <trkpt lat="44.58624" lon="4.33211">
        <ele>505.31</ele>
        <time>2015-09-20T10:05:12Z</time>
      </trkpt>
      <trkpt lat="44.58606" lon="4.33181">
        <ele>504.83</ele>
        <time>2015-09-20T10:05:21Z</time>
      </trkpt>
      <trkpt lat="44.58588" lon="4.33156">
        <ele>504.83</ele>
        <time>2015-09-20T10:05:30Z</time>
      </trkpt>
      <trkpt lat="44.5857" lon="4.33128">
        <ele>504.35</ele>
        <time>2015-09-20T10:05:39Z</time>
      </trkpt>
      <trkpt lat="44.58552" lon="4.33095">
        <ele>504.35</ele>
        <time>2015-09-20T10:05:48Z</time>
      </trkpt>
      <trkpt lat="44.58544" lon="4.33074">
        <ele>504.83</ele>
        <time>2015-09-20T10:05:53Z</time>
      </trkpt>
      <trkpt lat="44.58539" lon="4.33053">
        <ele>504.35</ele>
        <time>2015-09-20T10:05:59Z</time>
      </trkpt>
      <trkpt lat="44.58536" lon="4.33044">
        <ele>504.35</ele>
        <time>2015-09-20T10:06:01Z</time>
      </trkpt>
      <trkpt lat="44.58521" lon="4.3302">
        <ele>503.87</ele>
        <time>2015-09-20T10:06:06Z</time>
      </trkpt>
      <trkpt lat="44.58476" lon="4.32978">
        <ele>499.54</ele>
        <time>2015-09-20T10:06:16Z</time>
      </trkpt>
      <trkpt lat="44.58457" lon="4.32962">
        <ele>495.7</ele>
        <time>2015-09-20T10:06:20Z</time>
      </trkpt>
      <trkpt lat="44.58446" lon="4.32952">
        <ele>494.26</ele>
        <time>2015-09-20T10:06:22Z</time>
      </trkpt>
      <trkpt lat="44.58424" lon="4.32928">
        <ele>490.89</ele>
        <time>2015-09-20T10:06:27Z</time>
      </trkpt>
      <trkpt lat="44.58419" lon="4.32925">
        <ele>490.41</ele>
        <time>2015-09-20T10:06:28Z</time>
      </trkpt>
      <trkpt lat="44.58414" lon="4.32923">
        <ele>489.93</ele>
        <time>2015-09-20T10:06:29Z</time>
      </trkpt>
      <trkpt lat="44.58408" lon="4.32921">
        <ele>489.45</ele>
        <time>2015-09-20T10:06:30Z</time>
      </trkpt>
      <trkpt lat="44.58403" lon="4.32919">
        <ele>489.45</ele>
        <time>2015-09-20T10:06:31Z</time>
      </trkpt>
      <trkpt lat="44.58378" lon="4.32907">
        <ele>486.08</ele>
        <time>2015-09-20T10:06:36Z</time>
      </trkpt>
      <trkpt lat="44.58362" lon="4.32899">
        <ele>483.2</ele>
        <time>2015-09-20T10:06:40Z</time>
      </trkpt>
      <trkpt lat="44.58338" lon="4.32889">
        <ele>479.84</ele>
        <time>2015-09-20T10:06:48Z</time>
      </trkpt>
      <trkpt lat="44.58335" lon="4.32889">
        <ele>479.35</ele>
        <time>2015-09-20T10:06:49Z</time>
      </trkpt>
      <trkpt lat="44.58331" lon="4.32889">
        <ele>478.87</ele>
        <time>2015-09-20T10:06:50Z</time>
      </trkpt>
      <trkpt lat="44.58327" lon="4.3289">
        <ele>478.87</ele>
        <time>2015-09-20T10:06:51Z</time>
      </trkpt>
      <trkpt lat="44.58323" lon="4.32891">
        <ele>478.87</ele>
        <time>2015-09-20T10:06:52Z</time>
      </trkpt>
      <trkpt lat="44.58318" lon="4.32893">
        <ele>478.39</ele>
        <time>2015-09-20T10:06:53Z</time>
      </trkpt>
      <trkpt lat="44.58302" lon="4.32901">
        <ele>476.47</ele>
        <time>2015-09-20T10:07:01Z</time>
      </trkpt>
      <trkpt lat="44.58301" lon="4.32901">
        <ele>476.47</ele>
        <time>2015-09-20T10:07:02Z</time>
      </trkpt>
      <trkpt lat="44.58298" lon="4.32902">
        <ele>475.99</ele>
        <time>2015-09-20T10:07:05Z</time>
      </trkpt>
      <trkpt lat="44.58295" lon="4.32901">
        <ele>475.99</ele>
        <time>2015-09-20T10:07:06Z</time>
      </trkpt>
      <trkpt lat="44.58293" lon="4.32902">
        <ele>475.99</ele>
        <time>2015-09-20T10:07:07Z</time>
      </trkpt>
      <trkpt lat="44.5829" lon="4.32903">
        <ele>475.51</ele>
        <time>2015-09-20T10:07:08Z</time>
      </trkpt>
      <trkpt lat="44.58288" lon="4.32904">
        <ele>475.51</ele>
        <time>2015-09-20T10:07:09Z</time>
      </trkpt>
      <trkpt lat="44.58285" lon="4.32903">
        <ele>475.51</ele>
        <time>2015-09-20T10:07:10Z</time>
      </trkpt>
      <trkpt lat="44.5828" lon="4.32903">
        <ele>475.03</ele>
        <time>2015-09-20T10:07:11Z</time>
      </trkpt>
      <trkpt lat="44.58254" lon="4.32909">
        <ele>472.63</ele>
        <time>2015-09-20T10:07:19Z</time>
      </trkpt>
      <trkpt lat="44.5823" lon="4.32912">
        <ele>469.26</ele>
        <time>2015-09-20T10:07:27Z</time>
      </trkpt>
      <trkpt lat="44.58226" lon="4.32913">
        <ele>467.82</ele>
        <time>2015-09-20T10:07:29Z</time>
      </trkpt>
      <trkpt lat="44.58226" lon="4.32913">
        <ele>467.34</ele>
        <time>2015-09-20T10:07:54Z</time>
      </trkpt>
      <trkpt lat="44.58226" lon="4.32913">
        <ele>467.34</ele>
        <time>2015-09-20T10:07:55Z</time>
      </trkpt>
      <trkpt lat="44.58214" lon="4.3292">
        <ele>464.93</ele>
        <time>2015-09-20T10:08:00Z</time>
      </trkpt>
      <trkpt lat="44.58198" lon="4.32934">
        <ele>461.09</ele>
        <time>2015-09-20T10:08:06Z</time>
      </trkpt>
      <trkpt lat="44.5818" lon="4.32937">
        <ele>457.72</ele>
        <time>2015-09-20T10:08:12Z</time>
      </trkpt>
      <trkpt lat="44.58169" lon="4.32933">
        <ele>456.28</ele>
        <time>2015-09-20T10:08:17Z</time>
      </trkpt>
      <trkpt lat="44.58159" lon="4.32927">
        <ele>455.8</ele>
        <time>2015-09-20T10:08:22Z</time>
      </trkpt>
      <trkpt lat="44.58153" lon="4.32925">
        <ele>455.32</ele>
        <time>2015-09-20T10:08:25Z</time>
      </trkpt>
      <trkpt lat="44.58149" lon="4.32919">
        <ele>454.84</ele>
        <time>2015-09-20T10:08:28Z</time>
      </trkpt>
      <trkpt lat="44.58116" lon="4.32898">
        <ele>452.44</ele>
        <time>2015-09-20T10:08:39Z</time>
      </trkpt>
      <trkpt lat="44.58101" lon="4.32888">
        <ele>451.96</ele>
        <time>2015-09-20T10:08:44Z</time>
      </trkpt>
      <trkpt lat="44.58093" lon="4.32885">
        <ele>451.48</ele>
        <time>2015-09-20T10:08:49Z</time>
      </trkpt>
      <trkpt lat="44.58084" lon="4.32871">
        <ele>450.52</ele>
        <time>2015-09-20T10:08:56Z</time>
      </trkpt>
      <trkpt lat="44.58069" lon="4.32851">
        <ele>450.03</ele>
        <time>2015-09-20T10:09:08Z</time>
      </trkpt>
      <trkpt lat="44.58063" lon="4.3284">
        <ele>448.59</ele>
        <time>2015-09-20T10:09:12Z</time>
      </trkpt>
      <trkpt lat="44.58031" lon="4.32818">
        <ele>445.23</ele>
        <time>2015-09-20T10:09:24Z</time>
      </trkpt>
      <trkpt lat="44.58011" lon="4.32817">
        <ele>442.82</ele>
        <time>2015-09-20T10:09:30Z</time>
      </trkpt>
      <trkpt lat="44.57995" lon="4.32814">
        <ele>439.46</ele>
        <time>2015-09-20T10:09:38Z</time>
      </trkpt>
      <trkpt lat="44.57993" lon="4.32812">
        <ele>439.46</ele>
        <time>2015-09-20T10:09:50Z</time>
      </trkpt>
      <trkpt lat="44.57993" lon="4.32812">
        <ele>439.46</ele>
        <time>2015-09-20T10:10:18Z</time>
      </trkpt>
      <trkpt lat="44.57989" lon="4.32812">
        <ele>438.98</ele>
        <time>2015-09-20T10:10:48Z</time>
      </trkpt>
      <trkpt lat="44.57987" lon="4.32811">
        <ele>438.5</ele>
        <time>2015-09-20T10:11:21Z</time>
      </trkpt>
      <trkpt lat="44.57985" lon="4.32812">
        <ele>437.54</ele>
        <time>2015-09-20T10:11:30Z</time>
      </trkpt>
      <trkpt lat="44.57982" lon="4.32813">
        <ele>437.06</ele>
        <time>2015-09-20T10:11:31Z</time>
      </trkpt>
      <trkpt lat="44.57961" lon="4.32814">
        <ele>436.1</ele>
        <time>2015-09-20T10:11:39Z</time>
      </trkpt>
      <trkpt lat="44.57935" lon="4.3281">
        <ele>435.61</ele>
        <time>2015-09-20T10:11:48Z</time>
      </trkpt>
      <trkpt lat="44.57925" lon="4.32821">
        <ele>435.61</ele>
        <time>2015-09-20T10:11:53Z</time>
      </trkpt>
      <trkpt lat="44.57925" lon="4.32824">
        <ele>435.61</ele>
        <time>2015-09-20T10:11:54Z</time>
      </trkpt>
      <trkpt lat="44.57925" lon="4.32827">
        <ele>435.61</ele>
        <time>2015-09-20T10:11:55Z</time>
      </trkpt>
      <trkpt lat="44.57925" lon="4.3283">
        <ele>436.1</ele>
        <time>2015-09-20T10:11:56Z</time>
      </trkpt>
      <trkpt lat="44.57924" lon="4.32832">
        <ele>435.61</ele>
        <time>2015-09-20T10:11:57Z</time>
      </trkpt>
      <trkpt lat="44.57924" lon="4.32837">
        <ele>436.1</ele>
        <time>2015-09-20T10:12:00Z</time>
      </trkpt>
      <trkpt lat="44.57924" lon="4.3284">
        <ele>436.58</ele>
        <time>2015-09-20T10:12:01Z</time>
      </trkpt>
      <trkpt lat="44.57924" lon="4.32844">
        <ele>436.1</ele>
        <time>2015-09-20T10:12:02Z</time>
      </trkpt>
      <trkpt lat="44.57925" lon="4.32849">
        <ele>436.58</ele>
        <time>2015-09-20T10:12:03Z</time>
      </trkpt>
      <trkpt lat="44.57926" lon="4.32854">
        <ele>436.58</ele>
        <time>2015-09-20T10:12:04Z</time>
      </trkpt>
      <trkpt lat="44.57939" lon="4.32883">
        <ele>438.5</ele>
        <time>2015-09-20T10:12:14Z</time>
      </trkpt>
      <trkpt lat="44.57941" lon="4.32883">
        <ele>438.98</ele>
        <time>2015-09-20T10:12:15Z</time>
      </trkpt>
      <trkpt lat="44.57946" lon="4.32881">
        <ele>439.46</ele>
        <time>2015-09-20T10:12:18Z</time>
      </trkpt>
      <trkpt lat="44.57947" lon="4.32881">
        <ele>439.46</ele>
        <time>2015-09-20T10:12:22Z</time>
      </trkpt>
      <trkpt lat="44.57946" lon="4.32881">
        <ele>439.46</ele>
        <time>2015-09-20T10:12:23Z</time>
      </trkpt>
      <trkpt lat="44.57944" lon="4.32882">
        <ele>439.46</ele>
        <time>2015-09-20T10:12:24Z</time>
      </trkpt>
      <trkpt lat="44.57943" lon="4.32882">
        <ele>439.46</ele>
        <time>2015-09-20T10:12:25Z</time>
      </trkpt>
      <trkpt lat="44.57941" lon="4.32883">
        <ele>438.98</ele>
        <time>2015-09-20T10:12:26Z</time>
      </trkpt>
      <trkpt lat="44.5794" lon="4.32885">
        <ele>438.98</ele>
        <time>2015-09-20T10:12:27Z</time>
      </trkpt>
      <trkpt lat="44.5794" lon="4.32887">
        <ele>438.98</ele>
        <time>2015-09-20T10:12:28Z</time>
      </trkpt>
      <trkpt lat="44.5794" lon="4.3289">
        <ele>438.98</ele>
        <time>2015-09-20T10:12:29Z</time>
      </trkpt>
      <trkpt lat="44.57941" lon="4.32893">
        <ele>439.46</ele>
        <time>2015-09-20T10:12:30Z</time>
      </trkpt>
      <trkpt lat="44.57941" lon="4.32897">
        <ele>439.46</ele>
        <time>2015-09-20T10:12:31Z</time>
      </trkpt>
      <trkpt lat="44.57941" lon="4.32901">
        <ele>439.94</ele>
        <time>2015-09-20T10:12:32Z</time>
      </trkpt>
      <trkpt lat="44.57941" lon="4.32905">
        <ele>439.94</ele>
        <time>2015-09-20T10:12:33Z</time>
      </trkpt>
      <trkpt lat="44.5794" lon="4.32907">
        <ele>440.42</ele>
        <time>2015-09-20T10:12:34Z</time>
      </trkpt>
      <trkpt lat="44.57939" lon="4.32909">
        <ele>440.9</ele>
        <time>2015-09-20T10:12:35Z</time>
      </trkpt>
      <trkpt lat="44.57937" lon="4.32911">
        <ele>440.9</ele>
        <time>2015-09-20T10:12:36Z</time>
      </trkpt>
      <trkpt lat="44.57935" lon="4.32913">
        <ele>441.38</ele>
        <time>2015-09-20T10:12:37Z</time>
      </trkpt>
      <trkpt lat="44.57933" lon="4.32915">
        <ele>441.38</ele>
        <time>2015-09-20T10:12:38Z</time>
      </trkpt>
      <trkpt lat="44.57931" lon="4.32917">
        <ele>441.38</ele>
        <time>2015-09-20T10:12:39Z</time>
      </trkpt>
      <trkpt lat="44.5793" lon="4.3292">
        <ele>441.86</ele>
        <time>2015-09-20T10:12:40Z</time>
      </trkpt>
      <trkpt lat="44.57929" lon="4.32922">
        <ele>441.86</ele>
        <time>2015-09-20T10:12:41Z</time>
      </trkpt>
      <trkpt lat="44.57928" lon="4.32924">
        <ele>441.86</ele>
        <time>2015-09-20T10:12:42Z</time>
      </trkpt>
      <trkpt lat="44.57927" lon="4.32926">
        <ele>441.86</ele>
        <time>2015-09-20T10:12:43Z</time>
      </trkpt>
      <trkpt lat="44.57927" lon="4.32928">
        <ele>442.34</ele>
        <time>2015-09-20T10:12:44Z</time>
      </trkpt>
      <trkpt lat="44.57928" lon="4.32931">
        <ele>442.34</ele>
        <time>2015-09-20T10:12:45Z</time>
      </trkpt>
      <trkpt lat="44.57929" lon="4.32934">
        <ele>442.34</ele>
        <time>2015-09-20T10:12:46Z</time>
      </trkpt>
      <trkpt lat="44.5793" lon="4.32936">
        <ele>442.82</ele>
        <time>2015-09-20T10:12:47Z</time>
      </trkpt>
      <trkpt lat="44.57931" lon="4.32939">
        <ele>443.31</ele>
        <time>2015-09-20T10:12:48Z</time>
      </trkpt>
      <trkpt lat="44.57931" lon="4.32942">
        <ele>443.79</ele>
        <time>2015-09-20T10:12:49Z</time>
      </trkpt>
      <trkpt lat="44.5793" lon="4.32944">
        <ele>443.79</ele>
        <time>2015-09-20T10:12:50Z</time>
      </trkpt>
      <trkpt lat="44.5793" lon="4.32947">
        <ele>444.27</ele>
        <time>2015-09-20T10:12:51Z</time>
      </trkpt>
      <trkpt lat="44.57929" lon="4.32949">
        <ele>444.75</ele>
        <time>2015-09-20T10:12:52Z</time>
      </trkpt>
      <trkpt lat="44.57928" lon="4.3295">
        <ele>444.27</ele>
        <time>2015-09-20T10:12:53Z</time>
      </trkpt>
      <trkpt lat="44.57926" lon="4.32951">
        <ele>444.75</ele>
        <time>2015-09-20T10:12:54Z</time>
      </trkpt>
      <trkpt lat="44.57924" lon="4.32952">
        <ele>444.75</ele>
        <time>2015-09-20T10:12:55Z</time>
      </trkpt>
      <trkpt lat="44.57922" lon="4.32951">
        <ele>444.75</ele>
        <time>2015-09-20T10:12:56Z</time>
      </trkpt>
      <trkpt lat="44.57919" lon="4.32951">
        <ele>444.75</ele>
        <time>2015-09-20T10:12:57Z</time>
      </trkpt>
      <trkpt lat="44.57908" lon="4.32943">
        <ele>445.23</ele>
        <time>2015-09-20T10:13:02Z</time>
      </trkpt>
      <trkpt lat="44.57885" lon="4.32932">
        <ele>446.67</ele>
        <time>2015-09-20T10:13:11Z</time>
      </trkpt>
      <trkpt lat="44.57851" lon="4.32935">
        <ele>448.59</ele>
        <time>2015-09-20T10:13:23Z</time>
      </trkpt>
      <trkpt lat="44.57821" lon="4.32943">
        <ele>450.52</ele>
        <time>2015-09-20T10:13:34Z</time>
      </trkpt>
      <trkpt lat="44.57799" lon="4.32964">
        <ele>452.92</ele>
        <time>2015-09-20T10:13:46Z</time>
      </trkpt>
      <trkpt lat="44.57782" lon="4.32976">
        <ele>454.36</ele>
        <time>2015-09-20T10:13:55Z</time>
      </trkpt>
      <trkpt lat="44.5778" lon="4.32976">
        <ele>454.84</ele>
        <time>2015-09-20T10:13:56Z</time>
      </trkpt>
      <trkpt lat="44.57778" lon="4.32977">
        <ele>454.84</ele>
        <time>2015-09-20T10:13:57Z</time>
      </trkpt>
      <trkpt lat="44.5776" lon="4.32979">
        <ele>456.28</ele>
        <time>2015-09-20T10:14:08Z</time>
      </trkpt>
      <trkpt lat="44.5774" lon="4.32975">
        <ele>458.21</ele>
        <time>2015-09-20T10:14:17Z</time>
      </trkpt>
      <trkpt lat="44.57727" lon="4.32978">
        <ele>458.69</ele>
        <time>2015-09-20T10:14:24Z</time>
      </trkpt>
      <trkpt lat="44.57726" lon="4.32979">
        <ele>459.17</ele>
        <time>2015-09-20T10:14:25Z</time>
      </trkpt>
      <trkpt lat="44.57705" lon="4.32982">
        <ele>461.09</ele>
        <time>2015-09-20T10:14:35Z</time>
      </trkpt>
      <trkpt lat="44.57697" lon="4.32981">
        <ele>462.05</ele>
        <time>2015-09-20T10:14:44Z</time>
      </trkpt>
      <trkpt lat="44.57695" lon="4.32981">
        <ele>462.05</ele>
        <time>2015-09-20T10:14:45Z</time>
      </trkpt>
      <trkpt lat="44.57693" lon="4.32982">
        <ele>462.53</ele>
        <time>2015-09-20T10:14:46Z</time>
      </trkpt>
      <trkpt lat="44.57676" lon="4.32986">
        <ele>463.97</ele>
        <time>2015-09-20T10:14:54Z</time>
      </trkpt>
      <trkpt lat="44.57671" lon="4.32988">
        <ele>463.97</ele>
        <time>2015-09-20T10:14:56Z</time>
      </trkpt>
      <trkpt lat="44.57658" lon="4.32995">
        <ele>465.42</ele>
        <time>2015-09-20T10:15:03Z</time>
      </trkpt>
      <trkpt lat="44.57656" lon="4.32997">
        <ele>465.9</ele>
        <time>2015-09-20T10:15:04Z</time>
      </trkpt>
      <trkpt lat="44.57648" lon="4.32997">
        <ele>466.38</ele>
        <time>2015-09-20T10:15:08Z</time>
      </trkpt>
      <trkpt lat="44.57639" lon="4.33002">
        <ele>467.34</ele>
        <time>2015-09-20T10:15:13Z</time>
      </trkpt>
      <trkpt lat="44.57626" lon="4.33006">
        <ele>468.3</ele>
        <time>2015-09-20T10:15:18Z</time>
      </trkpt>
      <trkpt lat="44.57605" lon="4.33012">
        <ele>470.22</ele>
        <time>2015-09-20T10:15:32Z</time>
      </trkpt>
      <trkpt lat="44.57583" lon="4.33013">
        <ele>471.66</ele>
        <time>2015-09-20T10:15:41Z</time>
      </trkpt>
      <trkpt lat="44.57549" lon="4.33015">
        <ele>472.63</ele>
        <time>2015-09-20T10:15:53Z</time>
      </trkpt>
      <trkpt lat="44.57518" lon="4.33021">
        <ele>475.51</ele>
        <time>2015-09-20T10:16:07Z</time>
      </trkpt>
      <trkpt lat="44.57515" lon="4.33022">
        <ele>475.51</ele>
        <time>2015-09-20T10:16:08Z</time>
      </trkpt>
      <trkpt lat="44.57501" lon="4.33024">
        <ele>476.95</ele>
        <time>2015-09-20T10:16:14Z</time>
      </trkpt>
      <trkpt lat="44.57491" lon="4.33034">
        <ele>478.39</ele>
        <time>2015-09-20T10:16:20Z</time>
      </trkpt>
      <trkpt lat="44.5748" lon="4.33073">
        <ele>480.32</ele>
        <time>2015-09-20T10:16:33Z</time>
      </trkpt>
      <trkpt lat="44.57475" lon="4.33103">
        <ele>482.24</ele>
        <time>2015-09-20T10:16:44Z</time>
      </trkpt>
      <trkpt lat="44.57459" lon="4.33099">
        <ele>481.28</ele>
        <time>2015-09-20T10:16:50Z</time>
      </trkpt>
      <trkpt lat="44.57454" lon="4.33098">
        <ele>481.28</ele>
        <time>2015-09-20T10:16:51Z</time>
      </trkpt>
      <trkpt lat="44.57446" lon="4.33096">
        <ele>480.8</ele>
        <time>2015-09-20T10:16:53Z</time>
      </trkpt>
      <trkpt lat="44.57441" lon="4.33096">
        <ele>480.32</ele>
        <time>2015-09-20T10:16:54Z</time>
      </trkpt>
      <trkpt lat="44.57431" lon="4.33098">
        <ele>479.84</ele>
        <time>2015-09-20T10:16:56Z</time>
      </trkpt>
      <trkpt lat="44.57408" lon="4.33102">
        <ele>479.35</ele>
        <time>2015-09-20T10:17:01Z</time>
      </trkpt>
      <trkpt lat="44.57404" lon="4.331">
        <ele>478.87</ele>
        <time>2015-09-20T10:17:02Z</time>
      </trkpt>
      <trkpt lat="44.57391" lon="4.33096">
        <ele>478.39</ele>
        <time>2015-09-20T10:17:05Z</time>
      </trkpt>
      <trkpt lat="44.57384" lon="4.33094">
        <ele>477.91</ele>
        <time>2015-09-20T10:17:08Z</time>
      </trkpt>
      <trkpt lat="44.57381" lon="4.33097">
        <ele>478.39</ele>
        <time>2015-09-20T10:17:10Z</time>
      </trkpt>
      <trkpt lat="44.57386" lon="4.33105">
        <ele>477.91</ele>
        <time>2015-09-20T10:17:13Z</time>
      </trkpt>
      <trkpt lat="44.5739" lon="4.33107">
        <ele>478.39</ele>
        <time>2015-09-20T10:17:16Z</time>
      </trkpt>
      <trkpt lat="44.57391" lon="4.33108">
        <ele>478.87</ele>
        <time>2015-09-20T10:17:17Z</time>
      </trkpt>
      <trkpt lat="44.57392" lon="4.33109">
        <ele>478.87</ele>
        <time>2015-09-20T10:17:18Z</time>
      </trkpt>
      <trkpt lat="44.57407" lon="4.33114">
        <ele>478.39</ele>
        <time>2015-09-20T10:17:28Z</time>
      </trkpt>
      <trkpt lat="44.57408" lon="4.33113">
        <ele>478.39</ele>
        <time>2015-09-20T10:17:29Z</time>
      </trkpt>
      <trkpt lat="44.57408" lon="4.33112">
        <ele>478.39</ele>
        <time>2015-09-20T10:17:30Z</time>
      </trkpt>
      <trkpt lat="44.57406" lon="4.33111">
        <ele>477.91</ele>
        <time>2015-09-20T10:17:31Z</time>
      </trkpt>
      <trkpt lat="44.57404" lon="4.3311">
        <ele>478.39</ele>
        <time>2015-09-20T10:17:32Z</time>
      </trkpt>
      <trkpt lat="44.57401" lon="4.33108">
        <ele>477.91</ele>
        <time>2015-09-20T10:17:33Z</time>
      </trkpt>
      <trkpt lat="44.57398" lon="4.33107">
        <ele>477.91</ele>
        <time>2015-09-20T10:17:34Z</time>
      </trkpt>
      <trkpt lat="44.57393" lon="4.33105">
        <ele>477.91</ele>
        <time>2015-09-20T10:17:35Z</time>
      </trkpt>
      <trkpt lat="44.57389" lon="4.33105">
        <ele>477.91</ele>
        <time>2015-09-20T10:17:36Z</time>
      </trkpt>
      <trkpt lat="44.57384" lon="4.33106">
        <ele>477.91</ele>
        <time>2015-09-20T10:17:37Z</time>
      </trkpt>
      <trkpt lat="44.57375" lon="4.33111">
        <ele>476.95</ele>
        <time>2015-09-20T10:17:39Z</time>
      </trkpt>
      <trkpt lat="44.57373" lon="4.33115">
        <ele>476.47</ele>
        <time>2015-09-20T10:17:40Z</time>
      </trkpt>
      <trkpt lat="44.57371" lon="4.33121">
        <ele>475.99</ele>
        <time>2015-09-20T10:17:41Z</time>
      </trkpt>
      <trkpt lat="44.5737" lon="4.33128">
        <ele>475.51</ele>
        <time>2015-09-20T10:17:42Z</time>
      </trkpt>
      <trkpt lat="44.5737" lon="4.33136">
        <ele>475.03</ele>
        <time>2015-09-20T10:17:43Z</time>
      </trkpt>
      <trkpt lat="44.5737" lon="4.33143">
        <ele>474.55</ele>
        <time>2015-09-20T10:17:44Z</time>
      </trkpt>
      <trkpt lat="44.57369" lon="4.3315">
        <ele>473.11</ele>
        <time>2015-09-20T10:17:45Z</time>
      </trkpt>
      <trkpt lat="44.57369" lon="4.33156">
        <ele>472.63</ele>
        <time>2015-09-20T10:17:46Z</time>
      </trkpt>
      <trkpt lat="44.57368" lon="4.33163">
        <ele>472.14</ele>
        <time>2015-09-20T10:17:47Z</time>
      </trkpt>
      <trkpt lat="44.57367" lon="4.33168">
        <ele>472.14</ele>
        <time>2015-09-20T10:17:48Z</time>
      </trkpt>
      <trkpt lat="44.57362" lon="4.33196">
        <ele>468.78</ele>
        <time>2015-09-20T10:17:54Z</time>
      </trkpt>
      <trkpt lat="44.5736" lon="4.33202">
        <ele>467.82</ele>
        <time>2015-09-20T10:17:57Z</time>
      </trkpt>
      <trkpt lat="44.57359" lon="4.33203">
        <ele>467.34</ele>
        <time>2015-09-20T10:17:58Z</time>
      </trkpt>
      <trkpt lat="44.57358" lon="4.33204">
        <ele>467.34</ele>
        <time>2015-09-20T10:17:59Z</time>
      </trkpt>
      <trkpt lat="44.57344" lon="4.33206">
        <ele>466.38</ele>
        <time>2015-09-20T10:18:10Z</time>
      </trkpt>
      <trkpt lat="44.57343" lon="4.33206">
        <ele>466.38</ele>
        <time>2015-09-20T10:18:11Z</time>
      </trkpt>
      <trkpt lat="44.57342" lon="4.33206">
        <ele>466.38</ele>
        <time>2015-09-20T10:18:12Z</time>
      </trkpt>
      <trkpt lat="44.57341" lon="4.33206">
        <ele>465.9</ele>
        <time>2015-09-20T10:18:21Z</time>
      </trkpt>
      <trkpt lat="44.5734" lon="4.33205">
        <ele>465.9</ele>
        <time>2015-09-20T10:18:22Z</time>
      </trkpt>
      <trkpt lat="44.57338" lon="4.33205">
        <ele>466.38</ele>
        <time>2015-09-20T10:18:23Z</time>
      </trkpt>
      <trkpt lat="44.57336" lon="4.33204">
        <ele>465.9</ele>
        <time>2015-09-20T10:18:24Z</time>
      </trkpt>
      <trkpt lat="44.57334" lon="4.33203">
        <ele>465.9</ele>
        <time>2015-09-20T10:18:25Z</time>
      </trkpt>
      <trkpt lat="44.57332" lon="4.33202">
        <ele>465.9</ele>
        <time>2015-09-20T10:18:26Z</time>
      </trkpt>
      <trkpt lat="44.57329" lon="4.332">
        <ele>465.9</ele>
        <time>2015-09-20T10:18:27Z</time>
      </trkpt>
      <trkpt lat="44.57326" lon="4.33199">
        <ele>465.9</ele>
        <time>2015-09-20T10:18:28Z</time>
      </trkpt>
      <trkpt lat="44.57322" lon="4.33198">
        <ele>465.9</ele>
        <time>2015-09-20T10:18:29Z</time>
      </trkpt>
      <trkpt lat="44.57319" lon="4.33197">
        <ele>465.42</ele>
        <time>2015-09-20T10:18:30Z</time>
      </trkpt>
      <trkpt lat="44.57274" lon="4.33183">
        <ele>465.9</ele>
        <time>2015-09-20T10:18:42Z</time>
      </trkpt>
      <trkpt lat="44.57243" lon="4.33202">
        <ele>465.42</ele>
        <time>2015-09-20T10:18:51Z</time>
      </trkpt>
      <trkpt lat="44.57241" lon="4.33208">
        <ele>465.9</ele>
        <time>2015-09-20T10:18:52Z</time>
      </trkpt>
      <trkpt lat="44.57239" lon="4.33215">
        <ele>465.42</ele>
        <time>2015-09-20T10:18:53Z</time>
      </trkpt>
      <trkpt lat="44.57235" lon="4.33223">
        <ele>464.93</ele>
        <time>2015-09-20T10:18:54Z</time>
      </trkpt>
      <trkpt lat="44.57231" lon="4.33231">
        <ele>464.93</ele>
        <time>2015-09-20T10:18:55Z</time>
      </trkpt>
      <trkpt lat="44.57229" lon="4.3324">
        <ele>464.93</ele>
        <time>2015-09-20T10:18:56Z</time>
      </trkpt>
      <trkpt lat="44.57226" lon="4.33248">
        <ele>464.45</ele>
        <time>2015-09-20T10:18:57Z</time>
      </trkpt>
      <trkpt lat="44.57222" lon="4.33264">
        <ele>463.97</ele>
        <time>2015-09-20T10:18:59Z</time>
      </trkpt>
      <trkpt lat="44.57216" lon="4.33289">
        <ele>462.05</ele>
        <time>2015-09-20T10:19:02Z</time>
      </trkpt>
      <trkpt lat="44.57202" lon="4.33334">
        <ele>461.09</ele>
        <time>2015-09-20T10:19:07Z</time>
      </trkpt>
      <trkpt lat="44.5718" lon="4.33427">
        <ele>458.69</ele>
        <time>2015-09-20T10:19:19Z</time>
      </trkpt>
      <trkpt lat="44.57179" lon="4.33442">
        <ele>459.17</ele>
        <time>2015-09-20T10:19:22Z</time>
      </trkpt>
      <trkpt lat="44.57177" lon="4.33446">
        <ele>458.69</ele>
        <time>2015-09-20T10:19:23Z</time>
      </trkpt>
      <trkpt lat="44.57175" lon="4.33449">
        <ele>457.72</ele>
        <time>2015-09-20T10:19:24Z</time>
      </trkpt>
      <trkpt lat="44.57165" lon="4.33478">
        <ele>458.21</ele>
        <time>2015-09-20T10:19:35Z</time>
      </trkpt>
      <trkpt lat="44.57151" lon="4.33516">
        <ele>458.21</ele>
        <time>2015-09-20T10:19:48Z</time>
      </trkpt>
      <trkpt lat="44.57149" lon="4.33538">
        <ele>457.24</ele>
        <time>2015-09-20T10:19:59Z</time>
      </trkpt>
      <trkpt lat="44.57161" lon="4.33556">
        <ele>458.69</ele>
        <time>2015-09-20T10:20:06Z</time>
      </trkpt>
      <trkpt lat="44.57165" lon="4.33567">
        <ele>458.69</ele>
        <time>2015-09-20T10:20:11Z</time>
      </trkpt>
      <trkpt lat="44.5717" lon="4.33576">
        <ele>458.21</ele>
        <time>2015-09-20T10:20:15Z</time>
      </trkpt>
      <trkpt lat="44.57205" lon="4.33585">
        <ele>456.76</ele>
        <time>2015-09-20T10:20:27Z</time>
      </trkpt>
      <trkpt lat="44.57211" lon="4.33588">
        <ele>455.8</ele>
        <time>2015-09-20T10:20:29Z</time>
      </trkpt>
      <trkpt lat="44.57212" lon="4.33599">
        <ele>452.92</ele>
        <time>2015-09-20T10:20:33Z</time>
      </trkpt>
      <trkpt lat="44.57206" lon="4.33615">
        <ele>451.96</ele>
        <time>2015-09-20T10:20:37Z</time>
      </trkpt>
      <trkpt lat="44.57199" lon="4.33637">
        <ele>449.55</ele>
        <time>2015-09-20T10:20:41Z</time>
      </trkpt>
      <trkpt lat="44.57196" lon="4.33648">
        <ele>449.07</ele>
        <time>2015-09-20T10:20:43Z</time>
      </trkpt>
      <trkpt lat="44.57191" lon="4.3366">
        <ele>447.63</ele>
        <time>2015-09-20T10:20:45Z</time>
      </trkpt>
      <trkpt lat="44.57186" lon="4.33673">
        <ele>447.15</ele>
        <time>2015-09-20T10:20:47Z</time>
      </trkpt>
      <trkpt lat="44.57174" lon="4.33714">
        <ele>444.75</ele>
        <time>2015-09-20T10:20:52Z</time>
      </trkpt>
      <trkpt lat="44.5717" lon="4.33728">
        <ele>443.31</ele>
        <time>2015-09-20T10:20:54Z</time>
      </trkpt>
      <trkpt lat="44.57158" lon="4.33775">
        <ele>441.86</ele>
        <time>2015-09-20T10:21:04Z</time>
      </trkpt>
      <trkpt lat="44.57154" lon="4.33797">
        <ele>439.94</ele>
        <time>2015-09-20T10:21:15Z</time>
      </trkpt>
      <trkpt lat="44.57155" lon="4.33797">
        <ele>439.94</ele>
        <time>2015-09-20T10:21:16Z</time>
      </trkpt>
      <trkpt lat="44.57153" lon="4.33806">
        <ele>439.46</ele>
        <time>2015-09-20T10:21:20Z</time>
      </trkpt>
      <trkpt lat="44.57151" lon="4.33822">
        <ele>438.5</ele>
        <time>2015-09-20T10:21:23Z</time>
      </trkpt>
      <trkpt lat="44.57148" lon="4.33854">
        <ele>434.65</ele>
        <time>2015-09-20T10:21:28Z</time>
      </trkpt>
      <trkpt lat="44.57147" lon="4.33883">
        <ele>429.85</ele>
        <time>2015-09-20T10:21:34Z</time>
      </trkpt>
      <trkpt lat="44.57145" lon="4.33909">
        <ele>425.04</ele>
        <time>2015-09-20T10:21:39Z</time>
      </trkpt>
      <trkpt lat="44.57143" lon="4.33939">
        <ele>422.16</ele>
        <time>2015-09-20T10:21:44Z</time>
      </trkpt>
      <trkpt lat="44.57142" lon="4.33952">
        <ele>420.71</ele>
        <time>2015-09-20T10:21:46Z</time>
      </trkpt>
      <trkpt lat="44.57135" lon="4.33986">
        <ele>416.87</ele>
        <time>2015-09-20T10:21:51Z</time>
      </trkpt>
      <trkpt lat="44.57132" lon="4.34002">
        <ele>414.47</ele>
        <time>2015-09-20T10:21:54Z</time>
      </trkpt>
      <trkpt lat="44.57128" lon="4.34014">
        <ele>412.06</ele>
        <time>2015-09-20T10:21:56Z</time>
      </trkpt>
      <trkpt lat="44.57117" lon="4.34063">
        <ele>408.22</ele>
        <time>2015-09-20T10:22:05Z</time>
      </trkpt>
      <trkpt lat="44.57101" lon="4.34092">
        <ele>408.22</ele>
        <time>2015-09-20T10:22:13Z</time>
      </trkpt>
      <trkpt lat="44.57097" lon="4.34101">
        <ele>407.26</ele>
        <time>2015-09-20T10:22:15Z</time>
      </trkpt>
      <trkpt lat="44.57085" lon="4.34128">
        <ele>405.33</ele>
        <time>2015-09-20T10:22:21Z</time>
      </trkpt>
      <trkpt lat="44.57081" lon="4.34132">
        <ele>405.33</ele>
        <time>2015-09-20T10:22:22Z</time>
      </trkpt>
      <trkpt lat="44.57068" lon="4.34151">
        <ele>403.89</ele>
        <time>2015-09-20T10:22:26Z</time>
      </trkpt>
      <trkpt lat="44.57054" lon="4.34173">
        <ele>402.93</ele>
        <time>2015-09-20T10:22:30Z</time>
      </trkpt>
      <trkpt lat="44.57051" lon="4.3418">
        <ele>402.93</ele>
        <time>2015-09-20T10:22:31Z</time>
      </trkpt>
      <trkpt lat="44.57045" lon="4.34193">
        <ele>401.97</ele>
        <time>2015-09-20T10:22:33Z</time>
      </trkpt>
      <trkpt lat="44.57041" lon="4.34197">
        <ele>401.49</ele>
        <time>2015-09-20T10:22:34Z</time>
      </trkpt>
      <trkpt lat="44.57037" lon="4.34201">
        <ele>401.49</ele>
        <time>2015-09-20T10:22:35Z</time>
      </trkpt>
      <trkpt lat="44.57033" lon="4.34204">
        <ele>401.01</ele>
        <time>2015-09-20T10:22:36Z</time>
      </trkpt>
      <trkpt lat="44.5703" lon="4.34207">
        <ele>400.53</ele>
        <time>2015-09-20T10:22:37Z</time>
      </trkpt>
      <trkpt lat="44.57027" lon="4.3421">
        <ele>400.53</ele>
        <time>2015-09-20T10:22:38Z</time>
      </trkpt>
      <trkpt lat="44.57024" lon="4.34212">
        <ele>400.05</ele>
        <time>2015-09-20T10:22:39Z</time>
      </trkpt>
      <trkpt lat="44.57021" lon="4.34214">
        <ele>399.57</ele>
        <time>2015-09-20T10:22:40Z</time>
      </trkpt>
      <trkpt lat="44.57017" lon="4.34215">
        <ele>399.57</ele>
        <time>2015-09-20T10:22:41Z</time>
      </trkpt>
      <trkpt lat="44.57013" lon="4.34217">
        <ele>399.57</ele>
        <time>2015-09-20T10:22:42Z</time>
      </trkpt>
      <trkpt lat="44.57009" lon="4.34221">
        <ele>399.08</ele>
        <time>2015-09-20T10:22:43Z</time>
      </trkpt>
      <trkpt lat="44.57001" lon="4.34228">
        <ele>399.08</ele>
        <time>2015-09-20T10:22:45Z</time>
      </trkpt>
      <trkpt lat="44.56992" lon="4.34234">
        <ele>399.08</ele>
        <time>2015-09-20T10:22:47Z</time>
      </trkpt>
      <trkpt lat="44.56987" lon="4.34235">
        <ele>399.08</ele>
        <time>2015-09-20T10:22:48Z</time>
      </trkpt>
      <trkpt lat="44.56984" lon="4.34238">
        <ele>398.6</ele>
        <time>2015-09-20T10:22:49Z</time>
      </trkpt>
      <trkpt lat="44.56975" lon="4.34247">
        <ele>398.12</ele>
        <time>2015-09-20T10:22:52Z</time>
      </trkpt>
      <trkpt lat="44.56971" lon="4.34249">
        <ele>397.64</ele>
        <time>2015-09-20T10:22:53Z</time>
      </trkpt>
      <trkpt lat="44.56967" lon="4.3425">
        <ele>397.16</ele>
        <time>2015-09-20T10:22:54Z</time>
      </trkpt>
      <trkpt lat="44.56959" lon="4.34256">
        <ele>396.2</ele>
        <time>2015-09-20T10:22:58Z</time>
      </trkpt>
      <trkpt lat="44.56962" lon="4.34269">
        <ele>396.68</ele>
        <time>2015-09-20T10:23:12Z</time>
      </trkpt>
      <trkpt lat="44.56962" lon="4.34269">
        <ele>396.68</ele>
        <time>2015-09-20T10:23:19Z</time>
      </trkpt>
      <trkpt lat="44.56961" lon="4.34268">
        <ele>397.16</ele>
        <time>2015-09-20T10:23:21Z</time>
      </trkpt>
      <trkpt lat="44.56957" lon="4.34269">
        <ele>397.16</ele>
        <time>2015-09-20T10:23:33Z</time>
      </trkpt>
      <trkpt lat="44.56957" lon="4.34269">
        <ele>396.68</ele>
        <time>2015-09-20T10:23:44Z</time>
      </trkpt>
      <trkpt lat="44.56956" lon="4.34272">
        <ele>397.64</ele>
        <time>2015-09-20T10:23:59Z</time>
      </trkpt>
      <trkpt lat="44.56953" lon="4.34269">
        <ele>398.12</ele>
        <time>2015-09-20T10:24:02Z</time>
      </trkpt>
      <trkpt lat="44.56928" lon="4.34242">
        <ele>398.6</ele>
        <time>2015-09-20T10:24:16Z</time>
      </trkpt>
      <trkpt lat="44.56912" lon="4.34209">
        <ele>400.53</ele>
        <time>2015-09-20T10:24:27Z</time>
      </trkpt>
      <trkpt lat="44.56897" lon="4.34169">
        <ele>399.57</ele>
        <time>2015-09-20T10:24:37Z</time>
      </trkpt>
      <trkpt lat="44.5688" lon="4.34132">
        <ele>398.6</ele>
        <time>2015-09-20T10:24:46Z</time>
      </trkpt>
      <trkpt lat="44.56862" lon="4.3406">
        <ele>398.12</ele>
        <time>2015-09-20T10:24:58Z</time>
      </trkpt>
      <trkpt lat="44.56823" lon="4.34037">
        <ele>401.01</ele>
        <time>2015-09-20T10:25:05Z</time>
      </trkpt>
      <trkpt lat="44.56798" lon="4.34025">
        <ele>401.97</ele>
        <time>2015-09-20T10:25:10Z</time>
      </trkpt>
      <trkpt lat="44.5677" lon="4.34008">
        <ele>399.57</ele>
        <time>2015-09-20T10:25:18Z</time>
      </trkpt>
      <trkpt lat="44.5676" lon="4.33997">
        <ele>397.16</ele>
        <time>2015-09-20T10:25:22Z</time>
      </trkpt>
      <trkpt lat="44.56751" lon="4.33981">
        <ele>393.32</ele>
        <time>2015-09-20T10:25:27Z</time>
      </trkpt>
      <trkpt lat="44.56749" lon="4.33979">
        <ele>393.32</ele>
        <time>2015-09-20T10:25:28Z</time>
      </trkpt>
      <trkpt lat="44.56738" lon="4.33968">
        <ele>390.91</ele>
        <time>2015-09-20T10:25:32Z</time>
      </trkpt>
      <trkpt lat="44.56725" lon="4.33956">
        <ele>386.11</ele>
        <time>2015-09-20T10:25:38Z</time>
      </trkpt>
      <trkpt lat="44.56723" lon="4.33954">
        <ele>385.15</ele>
        <time>2015-09-20T10:25:39Z</time>
      </trkpt>
      <trkpt lat="44.56713" lon="4.33941">
        <ele>380.82</ele>
        <time>2015-09-20T10:25:45Z</time>
      </trkpt>
      <trkpt lat="44.56711" lon="4.33935">
        <ele>378.9</ele>
        <time>2015-09-20T10:25:47Z</time>
      </trkpt>
      <trkpt lat="44.56707" lon="4.33925">
        <ele>376.01</ele>
        <time>2015-09-20T10:25:50Z</time>
      </trkpt>
      <trkpt lat="44.56704" lon="4.33911">
        <ele>372.65</ele>
        <time>2015-09-20T10:25:54Z</time>
      </trkpt>
      <trkpt lat="44.56698" lon="4.33903">
        <ele>369.28</ele>
        <time>2015-09-20T10:25:57Z</time>
      </trkpt>
      <trkpt lat="44.56687" lon="4.33898">
        <ele>366.88</ele>
        <time>2015-09-20T10:26:01Z</time>
      </trkpt>
      <trkpt lat="44.56681" lon="4.33885">
        <ele>363.52</ele>
        <time>2015-09-20T10:26:05Z</time>
      </trkpt>
      <trkpt lat="44.56685" lon="4.33872">
        <ele>359.67</ele>
        <time>2015-09-20T10:26:11Z</time>
      </trkpt>
      <trkpt lat="44.5668" lon="4.33867">
        <ele>359.67</ele>
        <time>2015-09-20T10:26:20Z</time>
      </trkpt>
      <trkpt lat="44.5668" lon="4.33865">
        <ele>359.67</ele>
        <time>2015-09-20T10:26:27Z</time>
      </trkpt>
      <trkpt lat="44.56681" lon="4.33865">
        <ele>360.15</ele>
        <time>2015-09-20T10:26:38Z</time>
      </trkpt>
      <trkpt lat="44.56681" lon="4.33865">
        <ele>360.15</ele>
        <time>2015-09-20T10:26:57Z</time>
      </trkpt>
      <trkpt lat="44.56682" lon="4.33867">
        <ele>361.11</ele>
        <time>2015-09-20T10:27:08Z</time>
      </trkpt>
      <trkpt lat="44.56687" lon="4.33868">
        <ele>362.07</ele>
        <time>2015-09-20T10:27:13Z</time>
      </trkpt>
      <trkpt lat="44.56691" lon="4.33869">
        <ele>363.04</ele>
        <time>2015-09-20T10:27:17Z</time>
      </trkpt>
      <trkpt lat="44.56702" lon="4.33878">
        <ele>365.44</ele>
        <time>2015-09-20T10:27:30Z</time>
      </trkpt>
      <trkpt lat="44.56711" lon="4.3388">
        <ele>366.88</ele>
        <time>2015-09-20T10:27:36Z</time>
      </trkpt>
      <trkpt lat="44.56726" lon="4.33884">
        <ele>368.8</ele>
        <time>2015-09-20T10:27:46Z</time>
      </trkpt>
      <trkpt lat="44.5674" lon="4.33877">
        <ele>372.17</ele>
        <time>2015-09-20T10:27:59Z</time>
      </trkpt>
      <trkpt lat="44.56747" lon="4.33878">
        <ele>372.65</ele>
        <time>2015-09-20T10:28:02Z</time>
      </trkpt>
      <trkpt lat="44.56767" lon="4.33869">
        <ele>375.05</ele>
        <time>2015-09-20T10:28:14Z</time>
      </trkpt>
      <trkpt lat="44.5677" lon="4.33868">
        <ele>375.53</ele>
        <time>2015-09-20T10:28:16Z</time>
      </trkpt>
      <trkpt lat="44.56781" lon="4.33863">
        <ele>376.49</ele>
        <time>2015-09-20T10:28:21Z</time>
      </trkpt>
      <trkpt lat="44.56785" lon="4.3386">
        <ele>376.49</ele>
        <time>2015-09-20T10:28:23Z</time>
      </trkpt>
      <trkpt lat="44.56791" lon="4.33851">
        <ele>376.97</ele>
        <time>2015-09-20T10:28:28Z</time>
      </trkpt>
      <trkpt lat="44.56797" lon="4.33848">
        <ele>376.97</ele>
        <time>2015-09-20T10:28:32Z</time>
      </trkpt>
      <trkpt lat="44.56812" lon="4.33819">
        <ele>378.9</ele>
        <time>2015-09-20T10:28:44Z</time>
      </trkpt>
      <trkpt lat="44.56825" lon="4.33791">
        <ele>381.3</ele>
        <time>2015-09-20T10:28:57Z</time>
      </trkpt>
      <trkpt lat="44.56829" lon="4.33783">
        <ele>382.74</ele>
        <time>2015-09-20T10:29:02Z</time>
      </trkpt>
      <trkpt lat="44.56836" lon="4.33772">
        <ele>382.74</ele>
        <time>2015-09-20T10:29:09Z</time>
      </trkpt>
      <trkpt lat="44.56813" lon="4.33756">
        <ele>383.22</ele>
        <time>2015-09-20T10:29:20Z</time>
      </trkpt>
      <trkpt lat="44.56803" lon="4.33734">
        <ele>383.22</ele>
        <time>2015-09-20T10:29:27Z</time>
      </trkpt>
      <trkpt lat="44.56812" lon="4.33732">
        <ele>385.15</ele>
        <time>2015-09-20T10:29:37Z</time>
      </trkpt>
      <trkpt lat="44.56816" lon="4.33743">
        <ele>386.59</ele>
        <time>2015-09-20T10:29:44Z</time>
      </trkpt>
      <trkpt lat="44.56818" lon="4.33725">
        <ele>389.95</ele>
        <time>2015-09-20T10:29:56Z</time>
      </trkpt>
      <trkpt lat="44.56811" lon="4.33702">
        <ele>390.91</ele>
        <time>2015-09-20T10:30:07Z</time>
      </trkpt>
      <trkpt lat="44.56808" lon="4.33691">
        <ele>392.84</ele>
        <time>2015-09-20T10:30:12Z</time>
      </trkpt>
      <trkpt lat="44.56805" lon="4.33686">
        <ele>393.32</ele>
        <time>2015-09-20T10:30:15Z</time>
      </trkpt>
      <trkpt lat="44.56799" lon="4.33672">
        <ele>393.8</ele>
        <time>2015-09-20T10:30:22Z</time>
      </trkpt>
      <trkpt lat="44.56785" lon="4.33658">
        <ele>396.2</ele>
        <time>2015-09-20T10:30:33Z</time>
      </trkpt>
      <trkpt lat="44.56783" lon="4.33657">
        <ele>396.68</ele>
        <time>2015-09-20T10:30:34Z</time>
      </trkpt>
      <trkpt lat="44.56771" lon="4.33637">
        <ele>398.6</ele>
        <time>2015-09-20T10:30:47Z</time>
      </trkpt>
      <trkpt lat="44.5677" lon="4.33635">
        <ele>398.6</ele>
        <time>2015-09-20T10:30:48Z</time>
      </trkpt>
      <trkpt lat="44.56769" lon="4.33629">
        <ele>398.6</ele>
        <time>2015-09-20T10:30:52Z</time>
      </trkpt>
      <trkpt lat="44.56767" lon="4.33607">
        <ele>399.08</ele>
        <time>2015-09-20T10:31:01Z</time>
      </trkpt>
      <trkpt lat="44.56766" lon="4.33588">
        <ele>400.05</ele>
        <time>2015-09-20T10:31:09Z</time>
      </trkpt>
      <trkpt lat="44.56767" lon="4.33547">
        <ele>402.93</ele>
        <time>2015-09-20T10:31:26Z</time>
      </trkpt>
      <trkpt lat="44.56775" lon="4.3352">
        <ele>403.41</ele>
        <time>2015-09-20T10:31:38Z</time>
      </trkpt>
      <trkpt lat="44.56778" lon="4.33514">
        <ele>404.85</ele>
        <time>2015-09-20T10:31:41Z</time>
      </trkpt>
      <trkpt lat="44.56783" lon="4.33501">
        <ele>405.81</ele>
        <time>2015-09-20T10:31:48Z</time>
      </trkpt>
      <trkpt lat="44.56796" lon="4.33486">
        <ele>407.74</ele>
        <time>2015-09-20T10:31:59Z</time>
      </trkpt>
      <trkpt lat="44.56802" lon="4.33483">
        <ele>408.22</ele>
        <time>2015-09-20T10:32:03Z</time>
      </trkpt>
      <trkpt lat="44.5682" lon="4.33461">
        <ele>411.58</ele>
        <time>2015-09-20T10:32:17Z</time>
      </trkpt>
      <trkpt lat="44.56828" lon="4.33454">
        <ele>412.54</ele>
        <time>2015-09-20T10:32:24Z</time>
      </trkpt>
      <trkpt lat="44.56842" lon="4.33439">
        <ele>413.98</ele>
        <time>2015-09-20T10:32:35Z</time>
      </trkpt>
      <trkpt lat="44.5685" lon="4.33431">
        <ele>413.5</ele>
        <time>2015-09-20T10:32:41Z</time>
      </trkpt>
      <trkpt lat="44.56872" lon="4.33416">
        <ele>416.87</ele>
        <time>2015-09-20T10:32:56Z</time>
      </trkpt>
      <trkpt lat="44.56876" lon="4.33413">
        <ele>416.87</ele>
        <time>2015-09-20T10:32:58Z</time>
      </trkpt>
      <trkpt lat="44.5689" lon="4.33401">
        <ele>418.31</ele>
        <time>2015-09-20T10:33:09Z</time>
      </trkpt>
      <trkpt lat="44.569" lon="4.33388">
        <ele>419.27</ele>
        <time>2015-09-20T10:33:18Z</time>
      </trkpt>
      <trkpt lat="44.5691" lon="4.33378">
        <ele>420.23</ele>
        <time>2015-09-20T10:33:25Z</time>
      </trkpt>
      <trkpt lat="44.56917" lon="4.33359">
        <ele>421.19</ele>
        <time>2015-09-20T10:33:33Z</time>
      </trkpt>
      <trkpt lat="44.56914" lon="4.33343">
        <ele>421.68</ele>
        <time>2015-09-20T10:33:41Z</time>
      </trkpt>
      <trkpt lat="44.56914" lon="4.33337">
        <ele>422.16</ele>
        <time>2015-09-20T10:33:43Z</time>
      </trkpt>
      <trkpt lat="44.56913" lon="4.33332">
        <ele>422.16</ele>
        <time>2015-09-20T10:33:46Z</time>
      </trkpt>
      <trkpt lat="44.56899" lon="4.33305">
        <ele>423.12</ele>
        <time>2015-09-20T10:33:58Z</time>
      </trkpt>
      <trkpt lat="44.56875" lon="4.33292">
        <ele>424.08</ele>
        <time>2015-09-20T10:34:11Z</time>
      </trkpt>
      <trkpt lat="44.5687" lon="4.33288">
        <ele>424.56</ele>
        <time>2015-09-20T10:34:14Z</time>
      </trkpt>
      <trkpt lat="44.56865" lon="4.3328">
        <ele>425.04</ele>
        <time>2015-09-20T10:34:18Z</time>
      </trkpt>
      <trkpt lat="44.56853" lon="4.33252">
        <ele>425.52</ele>
        <time>2015-09-20T10:34:30Z</time>
      </trkpt>
      <trkpt lat="44.56835" lon="4.33229">
        <ele>424.08</ele>
        <time>2015-09-20T10:34:39Z</time>
      </trkpt>
      <trkpt lat="44.56826" lon="4.33221">
        <ele>421.68</ele>
        <time>2015-09-20T10:34:42Z</time>
      </trkpt>
      <trkpt lat="44.56817" lon="4.33216">
        <ele>419.75</ele>
        <time>2015-09-20T10:34:46Z</time>
      </trkpt>
      <trkpt lat="44.56813" lon="4.33216">
        <ele>419.75</ele>
        <time>2015-09-20T10:35:02Z</time>
      </trkpt>
      <trkpt lat="44.56813" lon="4.33216">
        <ele>418.79</ele>
        <time>2015-09-20T10:35:25Z</time>
      </trkpt>
      <trkpt lat="44.56813" lon="4.33216">
        <ele>419.27</ele>
        <time>2015-09-20T10:35:27Z</time>
      </trkpt>
      <trkpt lat="44.56808" lon="4.33217">
        <ele>419.27</ele>
        <time>2015-09-20T10:35:30Z</time>
      </trkpt>
      <trkpt lat="44.56802" lon="4.33218">
        <ele>417.83</ele>
        <time>2015-09-20T10:35:32Z</time>
      </trkpt>
      <trkpt lat="44.56794" lon="4.33219">
        <ele>418.31</ele>
        <time>2015-09-20T10:35:33Z</time>
      </trkpt>
      <trkpt lat="44.56786" lon="4.33221">
        <ele>417.83</ele>
        <time>2015-09-20T10:35:34Z</time>
      </trkpt>
      <trkpt lat="44.5678" lon="4.33224">
        <ele>417.83</ele>
        <time>2015-09-20T10:35:35Z</time>
      </trkpt>
      <trkpt lat="44.56772" lon="4.33225">
        <ele>417.35</ele>
        <time>2015-09-20T10:35:36Z</time>
      </trkpt>
      <trkpt lat="44.56757" lon="4.33229">
        <ele>416.87</ele>
        <time>2015-09-20T10:35:38Z</time>
      </trkpt>
      <trkpt lat="44.56737" lon="4.33231">
        <ele>415.91</ele>
        <time>2015-09-20T10:35:41Z</time>
      </trkpt>
      <trkpt lat="44.56666" lon="4.33252">
        <ele>412.54</ele>
        <time>2015-09-20T10:35:51Z</time>
      </trkpt>
      <trkpt lat="44.56645" lon="4.33257">
        <ele>411.1</ele>
        <time>2015-09-20T10:35:54Z</time>
      </trkpt>
      <trkpt lat="44.56612" lon="4.33269">
        <ele>409.66</ele>
        <time>2015-09-20T10:35:58Z</time>
      </trkpt>
      <trkpt lat="44.56606" lon="4.3327">
        <ele>407.26</ele>
        <time>2015-09-20T10:35:59Z</time>
      </trkpt>
      <trkpt lat="44.56601" lon="4.33271">
        <ele>406.29</ele>
        <time>2015-09-20T10:36:00Z</time>
      </trkpt>
      <trkpt lat="44.56598" lon="4.33271">
        <ele>405.81</ele>
        <time>2015-09-20T10:36:01Z</time>
      </trkpt>
      <trkpt lat="44.56594" lon="4.33271">
        <ele>405.33</ele>
        <time>2015-09-20T10:36:02Z</time>
      </trkpt>
      <trkpt lat="44.56578" lon="4.33271">
        <ele>402.45</ele>
        <time>2015-09-20T10:36:08Z</time>
      </trkpt>
      <trkpt lat="44.56569" lon="4.33269">
        <ele>401.01</ele>
        <time>2015-09-20T10:36:11Z</time>
      </trkpt>
      <trkpt lat="44.56565" lon="4.3327">
        <ele>400.53</ele>
        <time>2015-09-20T10:36:12Z</time>
      </trkpt>
      <trkpt lat="44.56561" lon="4.33271">
        <ele>400.53</ele>
        <time>2015-09-20T10:36:13Z</time>
      </trkpt>
      <trkpt lat="44.56558" lon="4.3327">
        <ele>400.05</ele>
        <time>2015-09-20T10:36:14Z</time>
      </trkpt>
      <trkpt lat="44.56554" lon="4.33269">
        <ele>399.08</ele>
        <time>2015-09-20T10:36:15Z</time>
      </trkpt>
      <trkpt lat="44.5655" lon="4.33266">
        <ele>398.6</ele>
        <time>2015-09-20T10:36:16Z</time>
      </trkpt>
      <trkpt lat="44.56546" lon="4.33263">
        <ele>397.64</ele>
        <time>2015-09-20T10:36:17Z</time>
      </trkpt>
      <trkpt lat="44.56543" lon="4.3326">
        <ele>397.16</ele>
        <time>2015-09-20T10:36:18Z</time>
      </trkpt>
      <trkpt lat="44.5654" lon="4.33257">
        <ele>396.68</ele>
        <time>2015-09-20T10:36:19Z</time>
      </trkpt>
      <trkpt lat="44.56538" lon="4.33254">
        <ele>395.72</ele>
        <time>2015-09-20T10:36:20Z</time>
      </trkpt>
      <trkpt lat="44.56536" lon="4.33251">
        <ele>395.24</ele>
        <time>2015-09-20T10:36:21Z</time>
      </trkpt>
      <trkpt lat="44.56534" lon="4.33248">
        <ele>395.24</ele>
        <time>2015-09-20T10:36:22Z</time>
      </trkpt>
      <trkpt lat="44.56531" lon="4.33244">
        <ele>394.76</ele>
        <time>2015-09-20T10:36:23Z</time>
      </trkpt>
      <trkpt lat="44.56528" lon="4.33238">
        <ele>394.28</ele>
        <time>2015-09-20T10:36:24Z</time>
      </trkpt>
      <trkpt lat="44.56525" lon="4.33232">
        <ele>393.8</ele>
        <time>2015-09-20T10:36:25Z</time>
      </trkpt>
      <trkpt lat="44.56521" lon="4.33218">
        <ele>392.36</ele>
        <time>2015-09-20T10:36:27Z</time>
      </trkpt>
      <trkpt lat="44.56519" lon="4.33212">
        <ele>391.87</ele>
        <time>2015-09-20T10:36:28Z</time>
      </trkpt>
      <trkpt lat="44.56517" lon="4.33207">
        <ele>391.39</ele>
        <time>2015-09-20T10:36:29Z</time>
      </trkpt>
      <trkpt lat="44.56505" lon="4.33194">
        <ele>389.47</ele>
        <time>2015-09-20T10:36:32Z</time>
      </trkpt>
      <trkpt lat="44.565" lon="4.33191">
        <ele>388.51</ele>
        <time>2015-09-20T10:36:33Z</time>
      </trkpt>
      <trkpt lat="44.56496" lon="4.3319">
        <ele>388.03</ele>
        <time>2015-09-20T10:36:34Z</time>
      </trkpt>
      <trkpt lat="44.56491" lon="4.33189">
        <ele>387.55</ele>
        <time>2015-09-20T10:36:35Z</time>
      </trkpt>
      <trkpt lat="44.56486" lon="4.33187">
        <ele>386.59</ele>
        <time>2015-09-20T10:36:36Z</time>
      </trkpt>
      <trkpt lat="44.56481" lon="4.33185">
        <ele>385.63</ele>
        <time>2015-09-20T10:36:37Z</time>
      </trkpt>
      <trkpt lat="44.56476" lon="4.33182">
        <ele>385.15</ele>
        <time>2015-09-20T10:36:38Z</time>
      </trkpt>
      <trkpt lat="44.56473" lon="4.33179">
        <ele>384.18</ele>
        <time>2015-09-20T10:36:39Z</time>
      </trkpt>
      <trkpt lat="44.5647" lon="4.33176">
        <ele>383.7</ele>
        <time>2015-09-20T10:36:40Z</time>
      </trkpt>
      <trkpt lat="44.56467" lon="4.33174">
        <ele>383.7</ele>
        <time>2015-09-20T10:36:41Z</time>
      </trkpt>
      <trkpt lat="44.56463" lon="4.33172">
        <ele>383.22</ele>
        <time>2015-09-20T10:36:42Z</time>
      </trkpt>
      <trkpt lat="44.56458" lon="4.33172">
        <ele>383.22</ele>
        <time>2015-09-20T10:36:43Z</time>
      </trkpt>
      <trkpt lat="44.56454" lon="4.33173">
        <ele>382.26</ele>
        <time>2015-09-20T10:36:44Z</time>
      </trkpt>
      <trkpt lat="44.56449" lon="4.33175">
        <ele>382.26</ele>
        <time>2015-09-20T10:36:45Z</time>
      </trkpt>
      <trkpt lat="44.56444" lon="4.33177">
        <ele>381.78</ele>
        <time>2015-09-20T10:36:46Z</time>
      </trkpt>
      <trkpt lat="44.56439" lon="4.33178">
        <ele>381.78</ele>
        <time>2015-09-20T10:36:47Z</time>
      </trkpt>
      <trkpt lat="44.56435" lon="4.3318">
        <ele>381.78</ele>
        <time>2015-09-20T10:36:48Z</time>
      </trkpt>
      <trkpt lat="44.56411" lon="4.33188">
        <ele>378.9</ele>
        <time>2015-09-20T10:36:53Z</time>
      </trkpt>
      <trkpt lat="44.56406" lon="4.33191">
        <ele>378.42</ele>
        <time>2015-09-20T10:36:54Z</time>
      </trkpt>
      <trkpt lat="44.56386" lon="4.33205">
        <ele>375.05</ele>
        <time>2015-09-20T10:36:58Z</time>
      </trkpt>
      <trkpt lat="44.56382" lon="4.33209">
        <ele>373.61</ele>
        <time>2015-09-20T10:36:59Z</time>
      </trkpt>
      <trkpt lat="44.56378" lon="4.33213">
        <ele>372.17</ele>
        <time>2015-09-20T10:37:00Z</time>
      </trkpt>
      <trkpt lat="44.56363" lon="4.33227">
        <ele>368.32</ele>
        <time>2015-09-20T10:37:04Z</time>
      </trkpt>
      <trkpt lat="44.56353" lon="4.33237">
        <ele>365.92</ele>
        <time>2015-09-20T10:37:07Z</time>
      </trkpt>
      <trkpt lat="44.56334" lon="4.3325">
        <ele>361.11</ele>
        <time>2015-09-20T10:37:13Z</time>
      </trkpt>
      <trkpt lat="44.56329" lon="4.33253">
        <ele>359.19</ele>
        <time>2015-09-20T10:37:15Z</time>
      </trkpt>
      <trkpt lat="44.56331" lon="4.33259">
        <ele>357.75</ele>
        <time>2015-09-20T10:37:24Z</time>
      </trkpt>
      <trkpt lat="44.56331" lon="4.33259">
        <ele>358.23</ele>
        <time>2015-09-20T10:37:29Z</time>
      </trkpt>
      <trkpt lat="44.5633" lon="4.33259">
        <ele>357.75</ele>
        <time>2015-09-20T10:37:33Z</time>
      </trkpt>
      <trkpt lat="44.56316" lon="4.33252">
        <ele>356.31</ele>
        <time>2015-09-20T10:37:38Z</time>
      </trkpt>
      <trkpt lat="44.56307" lon="4.3323">
        <ele>353.42</ele>
        <time>2015-09-20T10:37:43Z</time>
      </trkpt>
      <trkpt lat="44.563" lon="4.33196">
        <ele>350.06</ele>
        <time>2015-09-20T10:37:49Z</time>
      </trkpt>
      <trkpt lat="44.56297" lon="4.33187">
        <ele>348.62</ele>
        <time>2015-09-20T10:37:51Z</time>
      </trkpt>
      <trkpt lat="44.56287" lon="4.33178">
        <ele>346.69</ele>
        <time>2015-09-20T10:37:55Z</time>
      </trkpt>
      <trkpt lat="44.5628" lon="4.33175">
        <ele>345.25</ele>
        <time>2015-09-20T10:37:59Z</time>
      </trkpt>
      <trkpt lat="44.56278" lon="4.33173">
        <ele>345.25</ele>
        <time>2015-09-20T10:38:00Z</time>
      </trkpt>
      <trkpt lat="44.56274" lon="4.33161">
        <ele>345.73</ele>
        <time>2015-09-20T10:38:05Z</time>
      </trkpt>
      <trkpt lat="44.56265" lon="4.33111">
        <ele>342.37</ele>
        <time>2015-09-20T10:38:14Z</time>
      </trkpt>
      <trkpt lat="44.56254" lon="4.3309">
        <ele>339</ele>
        <time>2015-09-20T10:38:20Z</time>
      </trkpt>
      <trkpt lat="44.56243" lon="4.33074">
        <ele>336.12</ele>
        <time>2015-09-20T10:38:26Z</time>
      </trkpt>
      <trkpt lat="44.56228" lon="4.33053">
        <ele>334.68</ele>
        <time>2015-09-20T10:38:34Z</time>
      </trkpt>
      <trkpt lat="44.56221" lon="4.33038">
        <ele>332.75</ele>
        <time>2015-09-20T10:38:37Z</time>
      </trkpt>
      <trkpt lat="44.56218" lon="4.33036">
        <ele>332.27</ele>
        <time>2015-09-20T10:38:38Z</time>
      </trkpt>
      <trkpt lat="44.56216" lon="4.33036">
        <ele>331.31</ele>
        <time>2015-09-20T10:38:39Z</time>
      </trkpt>
      <trkpt lat="44.5621" lon="4.33039">
        <ele>330.35</ele>
        <time>2015-09-20T10:38:41Z</time>
      </trkpt>
      <trkpt lat="44.56192" lon="4.33036">
        <ele>328.91</ele>
        <time>2015-09-20T10:38:46Z</time>
      </trkpt>
      <trkpt lat="44.56188" lon="4.33035">
        <ele>328.43</ele>
        <time>2015-09-20T10:38:47Z</time>
      </trkpt>
      <trkpt lat="44.56183" lon="4.33034">
        <ele>327.95</ele>
        <time>2015-09-20T10:38:48Z</time>
      </trkpt>
      <trkpt lat="44.56155" lon="4.33027">
        <ele>325.06</ele>
        <time>2015-09-20T10:38:55Z</time>
      </trkpt>
      <trkpt lat="44.56132" lon="4.33022">
        <ele>321.7</ele>
        <time>2015-09-20T10:39:01Z</time>
      </trkpt>
      <trkpt lat="44.56128" lon="4.3302">
        <ele>321.22</ele>
        <time>2015-09-20T10:39:03Z</time>
      </trkpt>
      <trkpt lat="44.56127" lon="4.3302">
        <ele>320.74</ele>
        <time>2015-09-20T10:39:04Z</time>
      </trkpt>
      <trkpt lat="44.56125" lon="4.3302">
        <ele>320.74</ele>
        <time>2015-09-20T10:39:05Z</time>
      </trkpt>
      <trkpt lat="44.56119" lon="4.33012">
        <ele>319.78</ele>
        <time>2015-09-20T10:39:12Z</time>
      </trkpt>
      <trkpt lat="44.56116" lon="4.3301">
        <ele>319.78</ele>
        <time>2015-09-20T10:39:13Z</time>
      </trkpt>
      <trkpt lat="44.56113" lon="4.33009">
        <ele>319.3</ele>
        <time>2015-09-20T10:39:14Z</time>
      </trkpt>
      <trkpt lat="44.56109" lon="4.33009">
        <ele>319.3</ele>
        <time>2015-09-20T10:39:15Z</time>
      </trkpt>
      <trkpt lat="44.56106" lon="4.33009">
        <ele>319.3</ele>
        <time>2015-09-20T10:39:16Z</time>
      </trkpt>
      <trkpt lat="44.56104" lon="4.33008">
        <ele>318.81</ele>
        <time>2015-09-20T10:39:18Z</time>
      </trkpt>
      <trkpt lat="44.56098" lon="4.3301">
        <ele>318.81</ele>
        <time>2015-09-20T10:39:24Z</time>
      </trkpt>
      <trkpt lat="44.56094" lon="4.33011">
        <ele>318.81</ele>
        <time>2015-09-20T10:39:25Z</time>
      </trkpt>
      <trkpt lat="44.56092" lon="4.33013">
        <ele>319.3</ele>
        <time>2015-09-20T10:39:26Z</time>
      </trkpt>
      <trkpt lat="44.5609" lon="4.33015">
        <ele>319.3</ele>
        <time>2015-09-20T10:39:27Z</time>
      </trkpt>
      <trkpt lat="44.56089" lon="4.33017">
        <ele>319.78</ele>
        <time>2015-09-20T10:39:28Z</time>
      </trkpt>
      <trkpt lat="44.56088" lon="4.33019">
        <ele>319.3</ele>
        <time>2015-09-20T10:39:29Z</time>
      </trkpt>
      <trkpt lat="44.56088" lon="4.33021">
        <ele>319.78</ele>
        <time>2015-09-20T10:39:30Z</time>
      </trkpt>
      <trkpt lat="44.56088" lon="4.33059">
        <ele>321.22</ele>
        <time>2015-09-20T10:39:41Z</time>
      </trkpt>
      <trkpt lat="44.56087" lon="4.33062">
        <ele>321.22</ele>
        <time>2015-09-20T10:39:42Z</time>
      </trkpt>
      <trkpt lat="44.56085" lon="4.33064">
        <ele>321.22</ele>
        <time>2015-09-20T10:39:43Z</time>
      </trkpt>
      <trkpt lat="44.56083" lon="4.33065">
        <ele>321.22</ele>
        <time>2015-09-20T10:39:44Z</time>
      </trkpt>
      <trkpt lat="44.56081" lon="4.33065">
        <ele>321.22</ele>
        <time>2015-09-20T10:39:45Z</time>
      </trkpt>
      <trkpt lat="44.56079" lon="4.33065">
        <ele>321.22</ele>
        <time>2015-09-20T10:39:46Z</time>
      </trkpt>
      <trkpt lat="44.56076" lon="4.33065">
        <ele>321.22</ele>
        <time>2015-09-20T10:39:47Z</time>
      </trkpt>
      <trkpt lat="44.56073" lon="4.33063">
        <ele>321.22</ele>
        <time>2015-09-20T10:39:48Z</time>
      </trkpt>
      <trkpt lat="44.5607" lon="4.33062">
        <ele>320.74</ele>
        <time>2015-09-20T10:39:49Z</time>
      </trkpt>
      <trkpt lat="44.56045" lon="4.33053">
        <ele>317.85</ele>
        <time>2015-09-20T10:39:55Z</time>
      </trkpt>
      <trkpt lat="44.56041" lon="4.33051">
        <ele>316.89</ele>
        <time>2015-09-20T10:39:56Z</time>
      </trkpt>
      <trkpt lat="44.5603" lon="4.3304">
        <ele>314.97</ele>
        <time>2015-09-20T10:40:01Z</time>
      </trkpt>
      <trkpt lat="44.56031" lon="4.33035">
        <ele>314.49</ele>
        <time>2015-09-20T10:40:02Z</time>
      </trkpt>
      <trkpt lat="44.56031" lon="4.33016">
        <ele>313.53</ele>
        <time>2015-09-20T10:40:05Z</time>
      </trkpt>
      <trkpt lat="44.56031" lon="4.3301">
        <ele>312.57</ele>
        <time>2015-09-20T10:40:06Z</time>
      </trkpt>
      <trkpt lat="44.56028" lon="4.33006">
        <ele>312.09</ele>
        <time>2015-09-20T10:40:07Z</time>
      </trkpt>
      <trkpt lat="44.56022" lon="4.32997">
        <ele>310.64</ele>
        <time>2015-09-20T10:40:09Z</time>
      </trkpt>
      <trkpt lat="44.56019" lon="4.32992">
        <ele>310.16</ele>
        <time>2015-09-20T10:40:10Z</time>
      </trkpt>
      <trkpt lat="44.56016" lon="4.32988">
        <ele>309.68</ele>
        <time>2015-09-20T10:40:11Z</time>
      </trkpt>
      <trkpt lat="44.56012" lon="4.32986">
        <ele>308.72</ele>
        <time>2015-09-20T10:40:12Z</time>
      </trkpt>
      <trkpt lat="44.56007" lon="4.32984">
        <ele>308.72</ele>
        <time>2015-09-20T10:40:13Z</time>
      </trkpt>
      <trkpt lat="44.56001" lon="4.32984">
        <ele>307.76</ele>
        <time>2015-09-20T10:40:14Z</time>
      </trkpt>
      <trkpt lat="44.55994" lon="4.32983">
        <ele>307.28</ele>
        <time>2015-09-20T10:40:15Z</time>
      </trkpt>
      <trkpt lat="44.55987" lon="4.32984">
        <ele>306.8</ele>
        <time>2015-09-20T10:40:16Z</time>
      </trkpt>
      <trkpt lat="44.55965" lon="4.32984">
        <ele>305.36</ele>
        <time>2015-09-20T10:40:19Z</time>
      </trkpt>
      <trkpt lat="44.55958" lon="4.32982">
        <ele>304.88</ele>
        <time>2015-09-20T10:40:20Z</time>
      </trkpt>
      <trkpt lat="44.55942" lon="4.32978">
        <ele>303.91</ele>
        <time>2015-09-20T10:40:22Z</time>
      </trkpt>
      <trkpt lat="44.55926" lon="4.32977">
        <ele>301.51</ele>
        <time>2015-09-20T10:40:24Z</time>
      </trkpt>
      <trkpt lat="44.55919" lon="4.32979">
        <ele>300.07</ele>
        <time>2015-09-20T10:40:25Z</time>
      </trkpt>
      <trkpt lat="44.55914" lon="4.3298">
        <ele>299.59</ele>
        <time>2015-09-20T10:40:26Z</time>
      </trkpt>
      <trkpt lat="44.5591" lon="4.3298">
        <ele>298.63</ele>
        <time>2015-09-20T10:40:27Z</time>
      </trkpt>
      <trkpt lat="44.55906" lon="4.32977">
        <ele>297.67</ele>
        <time>2015-09-20T10:40:28Z</time>
      </trkpt>
      <trkpt lat="44.55903" lon="4.32972">
        <ele>297.67</ele>
        <time>2015-09-20T10:40:29Z</time>
      </trkpt>
      <trkpt lat="44.559" lon="4.32966">
        <ele>297.18</ele>
        <time>2015-09-20T10:40:30Z</time>
      </trkpt>
      <trkpt lat="44.55897" lon="4.32959">
        <ele>296.7</ele>
        <time>2015-09-20T10:40:31Z</time>
      </trkpt>
      <trkpt lat="44.55886" lon="4.3294">
        <ele>295.74</ele>
        <time>2015-09-20T10:40:34Z</time>
      </trkpt>
      <trkpt lat="44.55882" lon="4.32935">
        <ele>295.26</ele>
        <time>2015-09-20T10:40:35Z</time>
      </trkpt>
      <trkpt lat="44.55877" lon="4.32932">
        <ele>295.26</ele>
        <time>2015-09-20T10:40:36Z</time>
      </trkpt>
      <trkpt lat="44.55871" lon="4.32932">
        <ele>294.78</ele>
        <time>2015-09-20T10:40:37Z</time>
      </trkpt>
      <trkpt lat="44.55865" lon="4.32932">
        <ele>294.78</ele>
        <time>2015-09-20T10:40:38Z</time>
      </trkpt>
      <trkpt lat="44.55859" lon="4.32932">
        <ele>294.3</ele>
        <time>2015-09-20T10:40:39Z</time>
      </trkpt>
      <trkpt lat="44.55852" lon="4.32931">
        <ele>293.82</ele>
        <time>2015-09-20T10:40:40Z</time>
      </trkpt>
      <trkpt lat="44.55839" lon="4.3293">
        <ele>292.86</ele>
        <time>2015-09-20T10:40:42Z</time>
      </trkpt>
      <trkpt lat="44.55826" lon="4.32928">
        <ele>292.38</ele>
        <time>2015-09-20T10:40:44Z</time>
      </trkpt>
      <trkpt lat="44.5582" lon="4.32926">
        <ele>291.9</ele>
        <time>2015-09-20T10:40:45Z</time>
      </trkpt>
      <trkpt lat="44.55784" lon="4.32915">
        <ele>289.97</ele>
        <time>2015-09-20T10:40:51Z</time>
      </trkpt>
      <trkpt lat="44.55778" lon="4.32915">
        <ele>289.49</ele>
        <time>2015-09-20T10:40:52Z</time>
      </trkpt>
      <trkpt lat="44.55773" lon="4.32915">
        <ele>289.49</ele>
        <time>2015-09-20T10:40:53Z</time>
      </trkpt>
      <trkpt lat="44.55768" lon="4.32914">
        <ele>289.97</ele>
        <time>2015-09-20T10:40:54Z</time>
      </trkpt>
      <trkpt lat="44.55765" lon="4.32912">
        <ele>290.46</ele>
        <time>2015-09-20T10:40:55Z</time>
      </trkpt>
      <trkpt lat="44.55761" lon="4.3291">
        <ele>290.46</ele>
        <time>2015-09-20T10:40:56Z</time>
      </trkpt>
      <trkpt lat="44.55757" lon="4.3291">
        <ele>290.46</ele>
        <time>2015-09-20T10:40:57Z</time>
      </trkpt>
      <trkpt lat="44.55754" lon="4.32911">
        <ele>290.46</ele>
        <time>2015-09-20T10:40:58Z</time>
      </trkpt>
      <trkpt lat="44.55748" lon="4.32919">
        <ele>290.94</ele>
        <time>2015-09-20T10:41:00Z</time>
      </trkpt>
      <trkpt lat="44.55725" lon="4.32965">
        <ele>289.01</ele>
        <time>2015-09-20T10:41:08Z</time>
      </trkpt>
      <trkpt lat="44.55717" lon="4.32976">
        <ele>288.53</ele>
        <time>2015-09-20T10:41:10Z</time>
      </trkpt>
      <trkpt lat="44.55705" lon="4.33001">
        <ele>288.53</ele>
        <time>2015-09-20T10:41:14Z</time>
      </trkpt>
      <trkpt lat="44.55687" lon="4.33036">
        <ele>287.57</ele>
        <time>2015-09-20T10:41:20Z</time>
      </trkpt>
      <trkpt lat="44.55675" lon="4.33058">
        <ele>286.61</ele>
        <time>2015-09-20T10:41:25Z</time>
      </trkpt>
      <trkpt lat="44.55648" lon="4.33067">
        <ele>286.13</ele>
        <time>2015-09-20T10:41:37Z</time>
      </trkpt>
      <trkpt lat="44.55629" lon="4.33064">
        <ele>285.65</ele>
        <time>2015-09-20T10:41:44Z</time>
      </trkpt>
      <trkpt lat="44.55602" lon="4.33016">
        <ele>286.13</ele>
        <time>2015-09-20T10:41:57Z</time>
      </trkpt>
      <trkpt lat="44.55577" lon="4.33014">
        <ele>288.53</ele>
        <time>2015-09-20T10:42:07Z</time>
      </trkpt>
      <trkpt lat="44.55554" lon="4.33008">
        <ele>291.42</ele>
        <time>2015-09-20T10:42:19Z</time>
      </trkpt>
      <trkpt lat="44.55545" lon="4.32999">
        <ele>292.38</ele>
        <time>2015-09-20T10:42:26Z</time>
      </trkpt>
      <trkpt lat="44.55511" lon="4.32983">
        <ele>292.86</ele>
        <time>2015-09-20T10:42:39Z</time>
      </trkpt>
      <trkpt lat="44.55509" lon="4.32981">
        <ele>292.86</ele>
        <time>2015-09-20T10:42:40Z</time>
      </trkpt>
      <trkpt lat="44.55503" lon="4.32972">
        <ele>293.82</ele>
        <time>2015-09-20T10:42:43Z</time>
      </trkpt>
      <trkpt lat="44.5548" lon="4.32962">
        <ele>295.74</ele>
        <time>2015-09-20T10:42:51Z</time>
      </trkpt>
      <trkpt lat="44.55452" lon="4.32991">
        <ele>295.26</ele>
        <time>2015-09-20T10:43:05Z</time>
      </trkpt>
      <trkpt lat="44.55421" lon="4.33024">
        <ele>295.26</ele>
        <time>2015-09-20T10:43:19Z</time>
      </trkpt>
      <trkpt lat="44.55415" lon="4.3303">
        <ele>294.78</ele>
        <time>2015-09-20T10:43:23Z</time>
      </trkpt>
      <trkpt lat="44.55382" lon="4.33068">
        <ele>294.3</ele>
        <time>2015-09-20T10:43:36Z</time>
      </trkpt>
      <trkpt lat="44.55365" lon="4.33069">
        <ele>293.82</ele>
        <time>2015-09-20T10:43:41Z</time>
      </trkpt>
      <trkpt lat="44.55361" lon="4.3307">
        <ele>293.34</ele>
        <time>2015-09-20T10:43:42Z</time>
      </trkpt>
      <trkpt lat="44.55357" lon="4.33071">
        <ele>293.34</ele>
        <time>2015-09-20T10:43:43Z</time>
      </trkpt>
      <trkpt lat="44.55354" lon="4.33071">
        <ele>293.34</ele>
        <time>2015-09-20T10:43:44Z</time>
      </trkpt>
      <trkpt lat="44.55351" lon="4.33071">
        <ele>292.86</ele>
        <time>2015-09-20T10:43:45Z</time>
      </trkpt>
      <trkpt lat="44.55348" lon="4.33067">
        <ele>292.38</ele>
        <time>2015-09-20T10:43:47Z</time>
      </trkpt>
      <trkpt lat="44.5532" lon="4.33045">
        <ele>289.01</ele>
        <time>2015-09-20T10:43:57Z</time>
      </trkpt>
      <trkpt lat="44.55315" lon="4.33043">
        <ele>288.05</ele>
        <time>2015-09-20T10:43:58Z</time>
      </trkpt>
      <trkpt lat="44.553" lon="4.33031">
        <ele>284.69</ele>
        <time>2015-09-20T10:44:04Z</time>
      </trkpt>
      <trkpt lat="44.55299" lon="4.33029">
        <ele>284.69</ele>
        <time>2015-09-20T10:44:05Z</time>
      </trkpt>
      <trkpt lat="44.55294" lon="4.32998">
        <ele>282.28</ele>
        <time>2015-09-20T10:44:14Z</time>
      </trkpt>
      <trkpt lat="44.55289" lon="4.32992">
        <ele>282.28</ele>
        <time>2015-09-20T10:44:17Z</time>
      </trkpt>
      <trkpt lat="44.55274" lon="4.32986">
        <ele>282.77</ele>
        <time>2015-09-20T10:44:24Z</time>
      </trkpt>
      <trkpt lat="44.55264" lon="4.32966">
        <ele>285.17</ele>
        <time>2015-09-20T10:44:34Z</time>
      </trkpt>
      <trkpt lat="44.55258" lon="4.32954">
        <ele>286.13</ele>
        <time>2015-09-20T10:44:39Z</time>
      </trkpt>
      <trkpt lat="44.55245" lon="4.32943">
        <ele>287.09</ele>
        <time>2015-09-20T10:44:46Z</time>
      </trkpt>
      <trkpt lat="44.55222" lon="4.3292">
        <ele>286.61</ele>
        <time>2015-09-20T10:44:59Z</time>
      </trkpt>
      <trkpt lat="44.55222" lon="4.3292">
        <ele>286.61</ele>
        <time>2015-09-20T10:45:07Z</time>
      </trkpt>
      <trkpt lat="44.55214" lon="4.32911">
        <ele>286.61</ele>
        <time>2015-09-20T10:45:12Z</time>
      </trkpt>
      <trkpt lat="44.55208" lon="4.32906">
        <ele>286.13</ele>
        <time>2015-09-20T10:45:14Z</time>
      </trkpt>
      <trkpt lat="44.55183" lon="4.32885">
        <ele>282.77</ele>
        <time>2015-09-20T10:45:19Z</time>
      </trkpt>
      <trkpt lat="44.55156" lon="4.32881">
        <ele>278.44</ele>
        <time>2015-09-20T10:45:23Z</time>
      </trkpt>
      <trkpt lat="44.55148" lon="4.32883">
        <ele>278.44</ele>
        <time>2015-09-20T10:45:24Z</time>
      </trkpt>
      <trkpt lat="44.55133" lon="4.32891">
        <ele>277</ele>
        <time>2015-09-20T10:45:26Z</time>
      </trkpt>
      <trkpt lat="44.55094" lon="4.32909">
        <ele>274.59</ele>
        <time>2015-09-20T10:45:32Z</time>
      </trkpt>
      <trkpt lat="44.55072" lon="4.3289">
        <ele>272.67</ele>
        <time>2015-09-20T10:45:39Z</time>
      </trkpt>
      <trkpt lat="44.55072" lon="4.32886">
        <ele>272.19</ele>
        <time>2015-09-20T10:45:40Z</time>
      </trkpt>
      <trkpt lat="44.5507" lon="4.3287">
        <ele>270.75</ele>
        <time>2015-09-20T10:45:44Z</time>
      </trkpt>
      <trkpt lat="44.55044" lon="4.32845">
        <ele>272.19</ele>
        <time>2015-09-20T10:45:55Z</time>
      </trkpt>
      <trkpt lat="44.55034" lon="4.3283">
        <ele>272.67</ele>
        <time>2015-09-20T10:46:01Z</time>
      </trkpt>
      <trkpt lat="44.55001" lon="4.32814">
        <ele>273.63</ele>
        <time>2015-09-20T10:46:16Z</time>
      </trkpt>
      <trkpt lat="44.54997" lon="4.32814">
        <ele>274.59</ele>
        <time>2015-09-20T10:46:18Z</time>
      </trkpt>
      <trkpt lat="44.54976" lon="4.32816">
        <ele>277</ele>
        <time>2015-09-20T10:46:31Z</time>
      </trkpt>
      <trkpt lat="44.54956" lon="4.32809">
        <ele>278.92</ele>
        <time>2015-09-20T10:46:43Z</time>
      </trkpt>
      <trkpt lat="44.54935" lon="4.32797">
        <ele>279.88</ele>
        <time>2015-09-20T10:46:56Z</time>
      </trkpt>
      <trkpt lat="44.54914" lon="4.32785">
        <ele>279.88</ele>
        <time>2015-09-20T10:47:08Z</time>
      </trkpt>
      <trkpt lat="44.54905" lon="4.32779">
        <ele>279.88</ele>
        <time>2015-09-20T10:47:12Z</time>
      </trkpt>
      <trkpt lat="44.54901" lon="4.3276">
        <ele>279.4</ele>
        <time>2015-09-20T10:47:23Z</time>
      </trkpt>
      <trkpt lat="44.54899" lon="4.32762">
        <ele>278.44</ele>
        <time>2015-09-20T10:47:35Z</time>
      </trkpt>
      <trkpt lat="44.54899" lon="4.32762">
        <ele>278.44</ele>
        <time>2015-09-20T10:47:39Z</time>
      </trkpt>
      <trkpt lat="44.549" lon="4.32763">
        <ele>278.92</ele>
        <time>2015-09-20T10:47:42Z</time>
      </trkpt>
      <trkpt lat="44.54901" lon="4.32762">
        <ele>279.4</ele>
        <time>2015-09-20T10:47:44Z</time>
      </trkpt>
      <trkpt lat="44.54904" lon="4.32761">
        <ele>280.36</ele>
        <time>2015-09-20T10:47:46Z</time>
      </trkpt>
      <trkpt lat="44.54906" lon="4.32758">
        <ele>280.36</ele>
        <time>2015-09-20T10:47:48Z</time>
      </trkpt>
      <trkpt lat="44.54925" lon="4.32739">
        <ele>281.32</ele>
        <time>2015-09-20T10:48:02Z</time>
      </trkpt>
      <trkpt lat="44.54941" lon="4.32727">
        <ele>284.69</ele>
        <time>2015-09-20T10:48:12Z</time>
      </trkpt>
      <trkpt lat="44.54946" lon="4.32724">
        <ele>285.17</ele>
        <time>2015-09-20T10:48:15Z</time>
      </trkpt>
      <trkpt lat="44.54948" lon="4.32707">
        <ele>285.65</ele>
        <time>2015-09-20T10:48:22Z</time>
      </trkpt>
      <trkpt lat="44.54948" lon="4.32676">
        <ele>285.65</ele>
        <time>2015-09-20T10:48:35Z</time>
      </trkpt>
      <trkpt lat="44.54961" lon="4.32656">
        <ele>287.09</ele>
        <time>2015-09-20T10:48:50Z</time>
      </trkpt>
      <trkpt lat="44.54963" lon="4.32651">
        <ele>288.53</ele>
        <time>2015-09-20T10:48:53Z</time>
      </trkpt>
      <trkpt lat="44.54959" lon="4.32639">
        <ele>288.53</ele>
        <time>2015-09-20T10:48:59Z</time>
      </trkpt>
      <trkpt lat="44.54955" lon="4.32626">
        <ele>289.49</ele>
        <time>2015-09-20T10:49:07Z</time>
      </trkpt>
      <trkpt lat="44.54948" lon="4.32599">
        <ele>289.97</ele>
        <time>2015-09-20T10:49:21Z</time>
      </trkpt>
      <trkpt lat="44.54903" lon="4.32573">
        <ele>287.57</ele>
        <time>2015-09-20T10:49:33Z</time>
      </trkpt>
      <trkpt lat="44.54872" lon="4.32542">
        <ele>289.01</ele>
        <time>2015-09-20T10:49:47Z</time>
      </trkpt>
      <trkpt lat="44.54851" lon="4.32529">
        <ele>290.46</ele>
        <time>2015-09-20T10:49:57Z</time>
      </trkpt>
      <trkpt lat="44.54814" lon="4.32513">
        <ele>293.34</ele>
        <time>2015-09-20T10:50:12Z</time>
      </trkpt>
      <trkpt lat="44.54811" lon="4.32509">
        <ele>293.82</ele>
        <time>2015-09-20T10:50:14Z</time>
      </trkpt>
      <trkpt lat="44.54811" lon="4.32507">
        <ele>294.3</ele>
        <time>2015-09-20T10:50:15Z</time>
      </trkpt>
      <trkpt lat="44.54811" lon="4.32505">
        <ele>294.78</ele>
        <time>2015-09-20T10:50:16Z</time>
      </trkpt>
      <trkpt lat="44.54817" lon="4.32481">
        <ele>295.74</ele>
        <time>2015-09-20T10:50:25Z</time>
      </trkpt>
      <trkpt lat="44.54808" lon="4.32438">
        <ele>298.63</ele>
        <time>2015-09-20T10:50:38Z</time>
      </trkpt>
      <trkpt lat="44.54797" lon="4.32391">
        <ele>297.67</ele>
        <time>2015-09-20T10:50:51Z</time>
      </trkpt>
      <trkpt lat="44.54795" lon="4.32387">
        <ele>297.18</ele>
        <time>2015-09-20T10:50:52Z</time>
      </trkpt>
      <trkpt lat="44.54793" lon="4.32384">
        <ele>296.7</ele>
        <time>2015-09-20T10:50:53Z</time>
      </trkpt>
      <trkpt lat="44.54792" lon="4.32381">
        <ele>296.22</ele>
        <time>2015-09-20T10:50:54Z</time>
      </trkpt>
      <trkpt lat="44.54792" lon="4.32378">
        <ele>295.74</ele>
        <time>2015-09-20T10:50:55Z</time>
      </trkpt>
      <trkpt lat="44.54794" lon="4.32377">
        <ele>295.74</ele>
        <time>2015-09-20T10:50:56Z</time>
      </trkpt>
      <trkpt lat="44.54796" lon="4.32377">
        <ele>295.74</ele>
        <time>2015-09-20T10:50:57Z</time>
      </trkpt>
      <trkpt lat="44.54798" lon="4.32378">
        <ele>296.22</ele>
        <time>2015-09-20T10:50:58Z</time>
      </trkpt>
      <trkpt lat="44.54799" lon="4.32379">
        <ele>296.22</ele>
        <time>2015-09-20T10:50:59Z</time>
      </trkpt>
      <trkpt lat="44.54801" lon="4.32379">
        <ele>295.26</ele>
        <time>2015-09-20T10:51:00Z</time>
      </trkpt>
      <trkpt lat="44.54803" lon="4.32378">
        <ele>295.26</ele>
        <time>2015-09-20T10:51:01Z</time>
      </trkpt>
      <trkpt lat="44.54804" lon="4.32376">
        <ele>295.26</ele>
        <time>2015-09-20T10:51:02Z</time>
      </trkpt>
      <trkpt lat="44.54806" lon="4.32374">
        <ele>294.78</ele>
        <time>2015-09-20T10:51:03Z</time>
      </trkpt>
      <trkpt lat="44.54808" lon="4.3237">
        <ele>294.3</ele>
        <time>2015-09-20T10:51:04Z</time>
      </trkpt>
      <trkpt lat="44.54824" lon="4.3234">
        <ele>290.46</ele>
        <time>2015-09-20T10:51:09Z</time>
      </trkpt>
      <trkpt lat="44.54838" lon="4.32308">
        <ele>286.13</ele>
        <time>2015-09-20T10:51:13Z</time>
      </trkpt>
      <trkpt lat="44.54848" lon="4.32285">
        <ele>282.77</ele>
        <time>2015-09-20T10:51:17Z</time>
      </trkpt>
      <trkpt lat="44.54852" lon="4.32273">
        <ele>279.4</ele>
        <time>2015-09-20T10:51:20Z</time>
      </trkpt>
      <trkpt lat="44.54856" lon="4.32253">
        <ele>276.04</ele>
        <time>2015-09-20T10:51:24Z</time>
      </trkpt>
      <trkpt lat="44.54863" lon="4.32229">
        <ele>273.15</ele>
        <time>2015-09-20T10:51:30Z</time>
      </trkpt>
      <trkpt lat="44.54872" lon="4.32206">
        <ele>270.27</ele>
        <time>2015-09-20T10:51:37Z</time>
      </trkpt>
      <trkpt lat="44.54873" lon="4.32206">
        <ele>269.79</ele>
        <time>2015-09-20T10:51:38Z</time>
      </trkpt>
      <trkpt lat="44.54878" lon="4.32205">
        <ele>267.86</ele>
        <time>2015-09-20T10:51:50Z</time>
      </trkpt>
      <trkpt lat="44.54878" lon="4.32205">
        <ele>267.86</ele>
        <time>2015-09-20T10:52:08Z</time>
      </trkpt>
      <trkpt lat="44.54879" lon="4.32204">
        <ele>267.86</ele>
        <time>2015-09-20T10:52:09Z</time>
      </trkpt>
      <trkpt lat="44.54881" lon="4.32202">
        <ele>267.38</ele>
        <time>2015-09-20T10:52:10Z</time>
      </trkpt>
      <trkpt lat="44.54891" lon="4.32199">
        <ele>265.94</ele>
        <time>2015-09-20T10:52:15Z</time>
      </trkpt>
      <trkpt lat="44.54891" lon="4.32189">
        <ele>263.54</ele>
        <time>2015-09-20T10:52:23Z</time>
      </trkpt>
      <trkpt lat="44.54891" lon="4.32189">
        <ele>263.54</ele>
        <time>2015-09-20T10:52:40Z</time>
      </trkpt>
      <trkpt lat="44.54888" lon="4.32178">
        <ele>262.1</ele>
        <time>2015-09-20T10:52:45Z</time>
      </trkpt>
      <trkpt lat="44.54903" lon="4.32176">
        <ele>259.21</ele>
        <time>2015-09-20T10:52:55Z</time>
      </trkpt>
      <trkpt lat="44.54933" lon="4.32179">
        <ele>256.33</ele>
        <time>2015-09-20T10:53:05Z</time>
      </trkpt>
      <trkpt lat="44.54937" lon="4.32179">
        <ele>256.33</ele>
        <time>2015-09-20T10:53:06Z</time>
      </trkpt>
      <trkpt lat="44.5494" lon="4.3218">
        <ele>255.85</ele>
        <time>2015-09-20T10:53:07Z</time>
      </trkpt>
      <trkpt lat="44.54947" lon="4.32183">
        <ele>255.37</ele>
        <time>2015-09-20T10:53:08Z</time>
      </trkpt>
      <trkpt lat="44.54958" lon="4.32188">
        <ele>254.89</ele>
        <time>2015-09-20T10:53:10Z</time>
      </trkpt>
      <trkpt lat="44.54969" lon="4.32191">
        <ele>253.93</ele>
        <time>2015-09-20T10:53:12Z</time>
      </trkpt>
      <trkpt lat="44.54974" lon="4.32191">
        <ele>253.44</ele>
        <time>2015-09-20T10:53:13Z</time>
      </trkpt>
      <trkpt lat="44.54999" lon="4.32193">
        <ele>252</ele>
        <time>2015-09-20T10:53:21Z</time>
      </trkpt>
      <trkpt lat="44.55019" lon="4.32192">
        <ele>248.64</ele>
        <time>2015-09-20T10:53:29Z</time>
      </trkpt>
      <trkpt lat="44.55021" lon="4.32188">
        <ele>248.64</ele>
        <time>2015-09-20T10:53:30Z</time>
      </trkpt>
      <trkpt lat="44.55009" lon="4.3216">
        <ele>247.2</ele>
        <time>2015-09-20T10:53:37Z</time>
      </trkpt>
      <trkpt lat="44.55007" lon="4.32154">
        <ele>246.72</ele>
        <time>2015-09-20T10:53:38Z</time>
      </trkpt>
      <trkpt lat="44.55005" lon="4.32148">
        <ele>247.2</ele>
        <time>2015-09-20T10:53:39Z</time>
      </trkpt>
      <trkpt lat="44.55005" lon="4.32142">
        <ele>247.2</ele>
        <time>2015-09-20T10:53:40Z</time>
      </trkpt>
      <trkpt lat="44.55005" lon="4.32138">
        <ele>247.2</ele>
        <time>2015-09-20T10:53:41Z</time>
      </trkpt>
      <trkpt lat="44.55005" lon="4.32135">
        <ele>246.72</ele>
        <time>2015-09-20T10:53:42Z</time>
      </trkpt>
      <trkpt lat="44.55017" lon="4.32119">
        <ele>246.72</ele>
        <time>2015-09-20T10:53:48Z</time>
      </trkpt>
      <trkpt lat="44.55019" lon="4.32119">
        <ele>247.2</ele>
        <time>2015-09-20T10:53:49Z</time>
      </trkpt>
      <trkpt lat="44.55021" lon="4.32119">
        <ele>246.72</ele>
        <time>2015-09-20T10:53:50Z</time>
      </trkpt>
      <trkpt lat="44.55023" lon="4.3212">
        <ele>246.72</ele>
        <time>2015-09-20T10:53:51Z</time>
      </trkpt>
      <trkpt lat="44.55024" lon="4.32121">
        <ele>246.23</ele>
        <time>2015-09-20T10:53:52Z</time>
      </trkpt>
      <trkpt lat="44.55024" lon="4.32121">
        <ele>246.23</ele>
        <time>2015-09-20T10:54:06Z</time>
      </trkpt>
      <trkpt lat="44.55024" lon="4.32121">
        <ele>245.75</ele>
        <time>2015-09-20T10:54:22Z</time>
      </trkpt>
      <trkpt lat="44.55023" lon="4.32121">
        <ele>246.23</ele>
        <time>2015-09-20T10:54:40Z</time>
      </trkpt>
      <trkpt lat="44.55024" lon="4.32122">
        <ele>246.72</ele>
        <time>2015-09-20T10:54:43Z</time>
      </trkpt>
      <trkpt lat="44.55025" lon="4.32123">
        <ele>246.72</ele>
        <time>2015-09-20T10:54:44Z</time>
      </trkpt>
      <trkpt lat="44.55026" lon="4.32124">
        <ele>246.23</ele>
        <time>2015-09-20T10:54:45Z</time>
      </trkpt>
      <trkpt lat="44.55027" lon="4.32125">
        <ele>246.23</ele>
        <time>2015-09-20T10:54:46Z</time>
      </trkpt>
      <trkpt lat="44.55028" lon="4.32125">
        <ele>246.23</ele>
        <time>2015-09-20T10:54:47Z</time>
      </trkpt>
      <trkpt lat="44.55028" lon="4.32124">
        <ele>246.23</ele>
        <time>2015-09-20T10:54:55Z</time>
      </trkpt>
      <trkpt lat="44.55028" lon="4.32124">
        <ele>245.27</ele>
        <time>2015-09-20T10:55:09Z</time>
      </trkpt>
      <trkpt lat="44.55028" lon="4.32124">
        <ele>245.75</ele>
        <time>2015-09-20T10:55:35Z</time>
      </trkpt>
      <trkpt lat="44.55028" lon="4.32124">
        <ele>245.75</ele>
        <time>2015-09-20T10:55:57Z</time>
      </trkpt>
      <trkpt lat="44.55027" lon="4.32124">
        <ele>245.75</ele>
        <time>2015-09-20T10:56:22Z</time>
      </trkpt>
      <trkpt lat="44.55027" lon="4.32124">
        <ele>245.75</ele>
        <time>2015-09-20T10:56:45Z</time>
      </trkpt>
      <trkpt lat="44.55027" lon="4.32123">
        <ele>246.23</ele>
        <time>2015-09-20T10:56:59Z</time>
      </trkpt>
      <trkpt lat="44.55027" lon="4.32123">
        <ele>246.72</ele>
        <time>2015-09-20T10:57:21Z</time>
      </trkpt>
      <trkpt lat="44.55029" lon="4.32118">
        <ele>246.23</ele>
        <time>2015-09-20T10:57:45Z</time>
      </trkpt>
      <trkpt lat="44.55029" lon="4.32118">
        <ele>246.72</ele>
        <time>2015-09-20T10:58:10Z</time>
      </trkpt>
      <trkpt lat="44.5503" lon="4.32119">
        <ele>246.72</ele>
        <time>2015-09-20T10:58:14Z</time>
      </trkpt>
      <trkpt lat="44.55031" lon="4.32121">
        <ele>246.72</ele>
        <time>2015-09-20T10:58:15Z</time>
      </trkpt>
      <trkpt lat="44.55034" lon="4.32125">
        <ele>247.2</ele>
        <time>2015-09-20T10:58:18Z</time>
      </trkpt>
      <trkpt lat="44.55035" lon="4.32129">
        <ele>248.16</ele>
        <time>2015-09-20T10:58:25Z</time>
      </trkpt>
      <trkpt lat="44.55037" lon="4.32128">
        <ele>247.2</ele>
        <time>2015-09-20T10:58:36Z</time>
      </trkpt>
      <trkpt lat="44.55037" lon="4.32128">
        <ele>245.75</ele>
        <time>2015-09-20T10:58:40Z</time>
      </trkpt>
      <trkpt lat="44.55054" lon="4.32138">
        <ele>246.72</ele>
        <time>2015-09-20T11:07:36Z</time>
      </trkpt>
      <trkpt lat="44.55054" lon="4.32137">
        <ele>246.72</ele>
        <time>2015-09-20T11:07:37Z</time>
      </trkpt>
      <trkpt lat="44.55062" lon="4.32127">
        <ele>245.75</ele>
        <time>2015-09-20T11:07:49Z</time>
      </trkpt>
      <trkpt lat="44.5506" lon="4.32131">
        <ele>246.23</ele>
        <time>2015-09-20T11:07:53Z</time>
      </trkpt>
      <trkpt lat="44.55057" lon="4.32133">
        <ele>246.23</ele>
        <time>2015-09-20T11:07:55Z</time>
      </trkpt>
      <trkpt lat="44.55039" lon="4.32128">
        <ele>243.83</ele>
        <time>2015-09-20T11:08:06Z</time>
      </trkpt>
      <trkpt lat="44.55026" lon="4.3212">
        <ele>243.35</ele>
        <time>2015-09-20T11:08:13Z</time>
      </trkpt>
      <trkpt lat="44.55018" lon="4.32111">
        <ele>244.31</ele>
        <time>2015-09-20T11:08:22Z</time>
      </trkpt>
      <trkpt lat="44.55019" lon="4.3211">
        <ele>244.31</ele>
        <time>2015-09-20T11:08:23Z</time>
      </trkpt>
      <trkpt lat="44.55028" lon="4.32096">
        <ele>245.27</ele>
        <time>2015-09-20T11:08:29Z</time>
      </trkpt>
      <trkpt lat="44.55036" lon="4.3209">
        <ele>246.23</ele>
        <time>2015-09-20T11:08:35Z</time>
      </trkpt>
      <trkpt lat="44.55044" lon="4.32089">
        <ele>246.23</ele>
        <time>2015-09-20T11:08:40Z</time>
      </trkpt>
      <trkpt lat="44.55055" lon="4.32083">
        <ele>247.2</ele>
        <time>2015-09-20T11:08:47Z</time>
      </trkpt>
      <trkpt lat="44.55062" lon="4.32085">
        <ele>247.68</ele>
        <time>2015-09-20T11:08:50Z</time>
      </trkpt>
      <trkpt lat="44.55088" lon="4.32112">
        <ele>248.16</ele>
        <time>2015-09-20T11:09:05Z</time>
      </trkpt>
      <trkpt lat="44.55097" lon="4.32123">
        <ele>248.64</ele>
        <time>2015-09-20T11:09:11Z</time>
      </trkpt>
      <trkpt lat="44.55106" lon="4.32127">
        <ele>248.64</ele>
        <time>2015-09-20T11:09:26Z</time>
      </trkpt>
      <trkpt lat="44.55107" lon="4.32127">
        <ele>249.6</ele>
        <time>2015-09-20T11:09:38Z</time>
      </trkpt>
      <trkpt lat="44.55153" lon="4.32157">
        <ele>250.56</ele>
        <time>2015-09-20T11:18:04Z</time>
      </trkpt>
      <trkpt lat="44.55154" lon="4.32154">
        <ele>251.04</ele>
        <time>2015-09-20T11:18:06Z</time>
      </trkpt>
      <trkpt lat="44.55164" lon="4.32167">
        <ele>251.04</ele>
        <time>2015-09-20T11:18:09Z</time>
      </trkpt>
      <trkpt lat="44.55168" lon="4.32172">
        <ele>251.52</ele>
        <time>2015-09-20T11:18:12Z</time>
      </trkpt>
      <trkpt lat="44.55172" lon="4.32173">
        <ele>251.52</ele>
        <time>2015-09-20T11:18:15Z</time>
      </trkpt>
      <trkpt lat="44.55183" lon="4.32171">
        <ele>252</ele>
        <time>2015-09-20T11:18:24Z</time>
      </trkpt>
      <trkpt lat="44.55187" lon="4.32168">
        <ele>252.48</ele>
        <time>2015-09-20T11:18:27Z</time>
      </trkpt>
      <trkpt lat="44.55194" lon="4.32168">
        <ele>252.48</ele>
        <time>2015-09-20T11:18:33Z</time>
      </trkpt>
      <trkpt lat="44.552" lon="4.32167">
        <ele>252.96</ele>
        <time>2015-09-20T11:18:37Z</time>
      </trkpt>
      <trkpt lat="44.55208" lon="4.32162">
        <ele>253.44</ele>
        <time>2015-09-20T11:18:44Z</time>
      </trkpt>
      <trkpt lat="44.55213" lon="4.32149">
        <ele>254.41</ele>
        <time>2015-09-20T11:18:56Z</time>
      </trkpt>
      <trkpt lat="44.55216" lon="4.32148">
        <ele>254.41</ele>
        <time>2015-09-20T11:19:00Z</time>
      </trkpt>
      <trkpt lat="44.55216" lon="4.32146">
        <ele>254.89</ele>
        <time>2015-09-20T11:19:03Z</time>
      </trkpt>
      <trkpt lat="44.55218" lon="4.32131">
        <ele>255.37</ele>
        <time>2015-09-20T11:19:14Z</time>
      </trkpt>
      <trkpt lat="44.55218" lon="4.32125">
        <ele>255.85</ele>
        <time>2015-09-20T11:19:18Z</time>
      </trkpt>
      <trkpt lat="44.55218" lon="4.3212">
        <ele>255.85</ele>
        <time>2015-09-20T11:19:21Z</time>
      </trkpt>
      <trkpt lat="44.55217" lon="4.3211">
        <ele>256.33</ele>
        <time>2015-09-20T11:19:27Z</time>
      </trkpt>
      <trkpt lat="44.55216" lon="4.32106">
        <ele>256.33</ele>
        <time>2015-09-20T11:19:29Z</time>
      </trkpt>
      <trkpt lat="44.55215" lon="4.32098">
        <ele>257.29</ele>
        <time>2015-09-20T11:19:34Z</time>
      </trkpt>
      <trkpt lat="44.55218" lon="4.32084">
        <ele>257.77</ele>
        <time>2015-09-20T11:19:43Z</time>
      </trkpt>
      <trkpt lat="44.55221" lon="4.32074">
        <ele>258.73</ele>
        <time>2015-09-20T11:19:50Z</time>
      </trkpt>
      <trkpt lat="44.55228" lon="4.32066">
        <ele>259.21</ele>
        <time>2015-09-20T11:19:58Z</time>
      </trkpt>
      <trkpt lat="44.55237" lon="4.32061">
        <ele>259.21</ele>
        <time>2015-09-20T11:20:07Z</time>
      </trkpt>
      <trkpt lat="44.55238" lon="4.32057">
        <ele>259.69</ele>
        <time>2015-09-20T11:20:18Z</time>
      </trkpt>
      <trkpt lat="44.55242" lon="4.32051">
        <ele>260.65</ele>
        <time>2015-09-20T11:25:43Z</time>
      </trkpt>
      <trkpt lat="44.55244" lon="4.32046">
        <ele>260.65</ele>
        <time>2015-09-20T11:25:46Z</time>
      </trkpt>
      <trkpt lat="44.55249" lon="4.32038">
        <ele>261.62</ele>
        <time>2015-09-20T11:25:51Z</time>
      </trkpt>
      <trkpt lat="44.55256" lon="4.32026">
        <ele>262.1</ele>
        <time>2015-09-20T11:25:59Z</time>
      </trkpt>
      <trkpt lat="44.5526" lon="4.32019">
        <ele>262.58</ele>
        <time>2015-09-20T11:26:03Z</time>
      </trkpt>
      <trkpt lat="44.55272" lon="4.32001">
        <ele>264.5</ele>
        <time>2015-09-20T11:26:17Z</time>
      </trkpt>
      <trkpt lat="44.55268" lon="4.31991">
        <ele>265.94</ele>
        <time>2015-09-20T11:26:24Z</time>
      </trkpt>
      <trkpt lat="44.5526" lon="4.3199">
        <ele>266.42</ele>
        <time>2015-09-20T11:26:31Z</time>
      </trkpt>
      <trkpt lat="44.55259" lon="4.31991">
        <ele>266.9</ele>
        <time>2015-09-20T11:26:33Z</time>
      </trkpt>
      <trkpt lat="44.55234" lon="4.31999">
        <ele>269.31</ele>
        <time>2015-09-20T11:26:48Z</time>
      </trkpt>
      <trkpt lat="44.55207" lon="4.32001">
        <ele>270.75</ele>
        <time>2015-09-20T11:27:00Z</time>
      </trkpt>
      <trkpt lat="44.55183" lon="4.31996">
        <ele>273.15</ele>
        <time>2015-09-20T11:27:11Z</time>
      </trkpt>
      <trkpt lat="44.55154" lon="4.3198">
        <ele>275.56</ele>
        <time>2015-09-20T11:27:25Z</time>
      </trkpt>
      <trkpt lat="44.55132" lon="4.31967">
        <ele>278.44</ele>
        <time>2015-09-20T11:27:36Z</time>
      </trkpt>
      <trkpt lat="44.5511" lon="4.31955">
        <ele>279.4</ele>
        <time>2015-09-20T11:27:47Z</time>
      </trkpt>
      <trkpt lat="44.55094" lon="4.31936">
        <ele>280.84</ele>
        <time>2015-09-20T11:27:58Z</time>
      </trkpt>
      <trkpt lat="44.55073" lon="4.3191">
        <ele>280.84</ele>
        <time>2015-09-20T11:28:08Z</time>
      </trkpt>
      <trkpt lat="44.55064" lon="4.319">
        <ele>281.32</ele>
        <time>2015-09-20T11:28:12Z</time>
      </trkpt>
      <trkpt lat="44.55031" lon="4.31874">
        <ele>281.8</ele>
        <time>2015-09-20T11:28:24Z</time>
      </trkpt>
      <trkpt lat="44.55008" lon="4.31847">
        <ele>282.28</ele>
        <time>2015-09-20T11:28:34Z</time>
      </trkpt>
      <trkpt lat="44.5497" lon="4.3181">
        <ele>282.28</ele>
        <time>2015-09-20T11:28:48Z</time>
      </trkpt>
      <trkpt lat="44.54935" lon="4.31781">
        <ele>282.28</ele>
        <time>2015-09-20T11:28:59Z</time>
      </trkpt>
      <trkpt lat="44.54901" lon="4.31757">
        <ele>283.25</ele>
        <time>2015-09-20T11:29:10Z</time>
      </trkpt>
      <trkpt lat="44.54881" lon="4.31717">
        <ele>283.73</ele>
        <time>2015-09-20T11:29:20Z</time>
      </trkpt>
      <trkpt lat="44.5488" lon="4.31669">
        <ele>284.69</ele>
        <time>2015-09-20T11:29:29Z</time>
      </trkpt>
      <trkpt lat="44.54877" lon="4.31616">
        <ele>285.17</ele>
        <time>2015-09-20T11:29:40Z</time>
      </trkpt>
      <trkpt lat="44.54861" lon="4.31575">
        <ele>286.13</ele>
        <time>2015-09-20T11:29:51Z</time>
      </trkpt>
      <trkpt lat="44.54837" lon="4.31527">
        <ele>287.09</ele>
        <time>2015-09-20T11:30:03Z</time>
      </trkpt>
      <trkpt lat="44.54815" lon="4.31484">
        <ele>288.05</ele>
        <time>2015-09-20T11:30:14Z</time>
      </trkpt>
      <trkpt lat="44.548" lon="4.31444">
        <ele>288.05</ele>
        <time>2015-09-20T11:30:24Z</time>
      </trkpt>
      <trkpt lat="44.5478" lon="4.31379">
        <ele>289.01</ele>
        <time>2015-09-20T11:30:37Z</time>
      </trkpt>
      <trkpt lat="44.54744" lon="4.31352">
        <ele>289.49</ele>
        <time>2015-09-20T11:30:48Z</time>
      </trkpt>
      <trkpt lat="44.54701" lon="4.31303">
        <ele>290.46</ele>
        <time>2015-09-20T11:31:02Z</time>
      </trkpt>
      <trkpt lat="44.54698" lon="4.31299">
        <ele>290.46</ele>
        <time>2015-09-20T11:31:03Z</time>
      </trkpt>
      <trkpt lat="44.54647" lon="4.31238">
        <ele>289.97</ele>
        <time>2015-09-20T11:31:17Z</time>
      </trkpt>
      <trkpt lat="44.54628" lon="4.31214">
        <ele>289.97</ele>
        <time>2015-09-20T11:31:22Z</time>
      </trkpt>
      <trkpt lat="44.54625" lon="4.31209">
        <ele>289.97</ele>
        <time>2015-09-20T11:31:23Z</time>
      </trkpt>
      <trkpt lat="44.54614" lon="4.31186">
        <ele>289.97</ele>
        <time>2015-09-20T11:31:27Z</time>
      </trkpt>
      <trkpt lat="44.54613" lon="4.3118">
        <ele>289.97</ele>
        <time>2015-09-20T11:31:28Z</time>
      </trkpt>
      <trkpt lat="44.5461" lon="4.31166">
        <ele>289.97</ele>
        <time>2015-09-20T11:31:30Z</time>
      </trkpt>
      <trkpt lat="44.54609" lon="4.31157">
        <ele>289.97</ele>
        <time>2015-09-20T11:31:31Z</time>
      </trkpt>
      <trkpt lat="44.54609" lon="4.31148">
        <ele>289.97</ele>
        <time>2015-09-20T11:31:32Z</time>
      </trkpt>
      <trkpt lat="44.5461" lon="4.31139">
        <ele>289.97</ele>
        <time>2015-09-20T11:31:33Z</time>
      </trkpt>
      <trkpt lat="44.5461" lon="4.31131">
        <ele>290.46</ele>
        <time>2015-09-20T11:31:34Z</time>
      </trkpt>
      <trkpt lat="44.54611" lon="4.31122">
        <ele>290.46</ele>
        <time>2015-09-20T11:31:35Z</time>
      </trkpt>
      <trkpt lat="44.54611" lon="4.31114">
        <ele>289.97</ele>
        <time>2015-09-20T11:31:36Z</time>
      </trkpt>
      <trkpt lat="44.54612" lon="4.31105">
        <ele>289.97</ele>
        <time>2015-09-20T11:31:37Z</time>
      </trkpt>
      <trkpt lat="44.54613" lon="4.31096">
        <ele>289.49</ele>
        <time>2015-09-20T11:31:38Z</time>
      </trkpt>
      <trkpt lat="44.54614" lon="4.31088">
        <ele>289.49</ele>
        <time>2015-09-20T11:31:39Z</time>
      </trkpt>
      <trkpt lat="44.54615" lon="4.3108">
        <ele>289.49</ele>
        <time>2015-09-20T11:31:40Z</time>
      </trkpt>
      <trkpt lat="44.54616" lon="4.31073">
        <ele>289.49</ele>
        <time>2015-09-20T11:31:41Z</time>
      </trkpt>
      <trkpt lat="44.54617" lon="4.31066">
        <ele>289.01</ele>
        <time>2015-09-20T11:31:42Z</time>
      </trkpt>
      <trkpt lat="44.54616" lon="4.31058">
        <ele>289.01</ele>
        <time>2015-09-20T11:31:43Z</time>
      </trkpt>
      <trkpt lat="44.54615" lon="4.31051">
        <ele>289.01</ele>
        <time>2015-09-20T11:31:44Z</time>
      </trkpt>
      <trkpt lat="44.54613" lon="4.31044">
        <ele>289.01</ele>
        <time>2015-09-20T11:31:45Z</time>
      </trkpt>
      <trkpt lat="44.54611" lon="4.31037">
        <ele>289.01</ele>
        <time>2015-09-20T11:31:46Z</time>
      </trkpt>
      <trkpt lat="44.54605" lon="4.31024">
        <ele>289.01</ele>
        <time>2015-09-20T11:31:48Z</time>
      </trkpt>
      <trkpt lat="44.54602" lon="4.31018">
        <ele>288.53</ele>
        <time>2015-09-20T11:31:49Z</time>
      </trkpt>
      <trkpt lat="44.54597" lon="4.31013">
        <ele>288.53</ele>
        <time>2015-09-20T11:31:50Z</time>
      </trkpt>
      <trkpt lat="44.54592" lon="4.31009">
        <ele>288.53</ele>
        <time>2015-09-20T11:31:51Z</time>
      </trkpt>
      <trkpt lat="44.54586" lon="4.31007">
        <ele>289.01</ele>
        <time>2015-09-20T11:31:52Z</time>
      </trkpt>
      <trkpt lat="44.5458" lon="4.31006">
        <ele>288.53</ele>
        <time>2015-09-20T11:31:53Z</time>
      </trkpt>
      <trkpt lat="44.54575" lon="4.31005">
        <ele>288.53</ele>
        <time>2015-09-20T11:31:54Z</time>
      </trkpt>
      <trkpt lat="44.54571" lon="4.31006">
        <ele>288.05</ele>
        <time>2015-09-20T11:31:55Z</time>
      </trkpt>
      <trkpt lat="44.54566" lon="4.31007">
        <ele>288.05</ele>
        <time>2015-09-20T11:31:56Z</time>
      </trkpt>
      <trkpt lat="44.54561" lon="4.3101">
        <ele>288.05</ele>
        <time>2015-09-20T11:31:57Z</time>
      </trkpt>
      <trkpt lat="44.54555" lon="4.31014">
        <ele>288.05</ele>
        <time>2015-09-20T11:31:58Z</time>
      </trkpt>
      <trkpt lat="44.5455" lon="4.31018">
        <ele>288.05</ele>
        <time>2015-09-20T11:31:59Z</time>
      </trkpt>
      <trkpt lat="44.54544" lon="4.31023">
        <ele>288.05</ele>
        <time>2015-09-20T11:32:00Z</time>
      </trkpt>
      <trkpt lat="44.54538" lon="4.31028">
        <ele>288.05</ele>
        <time>2015-09-20T11:32:01Z</time>
      </trkpt>
      <trkpt lat="44.54533" lon="4.31031">
        <ele>288.05</ele>
        <time>2015-09-20T11:32:02Z</time>
      </trkpt>
      <trkpt lat="44.54527" lon="4.31034">
        <ele>288.05</ele>
        <time>2015-09-20T11:32:03Z</time>
      </trkpt>
      <trkpt lat="44.54516" lon="4.31039">
        <ele>288.05</ele>
        <time>2015-09-20T11:32:05Z</time>
      </trkpt>
      <trkpt lat="44.5451" lon="4.31041">
        <ele>288.05</ele>
        <time>2015-09-20T11:32:06Z</time>
      </trkpt>
      <trkpt lat="44.54481" lon="4.31041">
        <ele>288.53</ele>
        <time>2015-09-20T11:32:11Z</time>
      </trkpt>
      <trkpt lat="44.54475" lon="4.31037">
        <ele>288.53</ele>
        <time>2015-09-20T11:32:12Z</time>
      </trkpt>
      <trkpt lat="44.5447" lon="4.31032">
        <ele>288.53</ele>
        <time>2015-09-20T11:32:13Z</time>
      </trkpt>
      <trkpt lat="44.54465" lon="4.31026">
        <ele>288.53</ele>
        <time>2015-09-20T11:32:14Z</time>
      </trkpt>
      <trkpt lat="44.54462" lon="4.3102">
        <ele>288.53</ele>
        <time>2015-09-20T11:32:15Z</time>
      </trkpt>
      <trkpt lat="44.54458" lon="4.31013">
        <ele>288.53</ele>
        <time>2015-09-20T11:32:16Z</time>
      </trkpt>
      <trkpt lat="44.54455" lon="4.31006">
        <ele>288.53</ele>
        <time>2015-09-20T11:32:17Z</time>
      </trkpt>
      <trkpt lat="44.54452" lon="4.30998">
        <ele>288.53</ele>
        <time>2015-09-20T11:32:18Z</time>
      </trkpt>
      <trkpt lat="44.54428" lon="4.3095">
        <ele>288.53</ele>
        <time>2015-09-20T11:32:25Z</time>
      </trkpt>
      <trkpt lat="44.54425" lon="4.30944">
        <ele>288.53</ele>
        <time>2015-09-20T11:32:26Z</time>
      </trkpt>
      <trkpt lat="44.54401" lon="4.30911">
        <ele>288.53</ele>
        <time>2015-09-20T11:32:32Z</time>
      </trkpt>
      <trkpt lat="44.54359" lon="4.30879">
        <ele>288.53</ele>
        <time>2015-09-20T11:32:41Z</time>
      </trkpt>
      <trkpt lat="44.54345" lon="4.30872">
        <ele>288.05</ele>
        <time>2015-09-20T11:32:44Z</time>
      </trkpt>
      <trkpt lat="44.5434" lon="4.3087">
        <ele>287.57</ele>
        <time>2015-09-20T11:32:45Z</time>
      </trkpt>
      <trkpt lat="44.54334" lon="4.30868">
        <ele>287.09</ele>
        <time>2015-09-20T11:32:46Z</time>
      </trkpt>
      <trkpt lat="44.54328" lon="4.30866">
        <ele>287.09</ele>
        <time>2015-09-20T11:32:47Z</time>
      </trkpt>
      <trkpt lat="44.54322" lon="4.30864">
        <ele>287.09</ele>
        <time>2015-09-20T11:32:48Z</time>
      </trkpt>
      <trkpt lat="44.5428" lon="4.30844">
        <ele>286.61</ele>
        <time>2015-09-20T11:32:55Z</time>
      </trkpt>
      <trkpt lat="44.54206" lon="4.30811">
        <ele>286.13</ele>
        <time>2015-09-20T11:33:07Z</time>
      </trkpt>
      <trkpt lat="44.54145" lon="4.3077">
        <ele>285.65</ele>
        <time>2015-09-20T11:33:17Z</time>
      </trkpt>
      <trkpt lat="44.5414" lon="4.30764">
        <ele>285.65</ele>
        <time>2015-09-20T11:33:18Z</time>
      </trkpt>
      <trkpt lat="44.54136" lon="4.30757">
        <ele>285.17</ele>
        <time>2015-09-20T11:33:19Z</time>
      </trkpt>
      <trkpt lat="44.54132" lon="4.3075">
        <ele>285.17</ele>
        <time>2015-09-20T11:33:20Z</time>
      </trkpt>
      <trkpt lat="44.54129" lon="4.30741">
        <ele>285.65</ele>
        <time>2015-09-20T11:33:21Z</time>
      </trkpt>
      <trkpt lat="44.54126" lon="4.30731">
        <ele>285.65</ele>
        <time>2015-09-20T11:33:22Z</time>
      </trkpt>
      <trkpt lat="44.54124" lon="4.30721">
        <ele>285.65</ele>
        <time>2015-09-20T11:33:23Z</time>
      </trkpt>
      <trkpt lat="44.54123" lon="4.30712">
        <ele>285.65</ele>
        <time>2015-09-20T11:33:24Z</time>
      </trkpt>
      <trkpt lat="44.54122" lon="4.30703">
        <ele>285.65</ele>
        <time>2015-09-20T11:33:25Z</time>
      </trkpt>
      <trkpt lat="44.54122" lon="4.30694">
        <ele>285.17</ele>
        <time>2015-09-20T11:33:26Z</time>
      </trkpt>
      <trkpt lat="44.54128" lon="4.30648">
        <ele>285.17</ele>
        <time>2015-09-20T11:33:31Z</time>
      </trkpt>
      <trkpt lat="44.54129" lon="4.30639">
        <ele>285.17</ele>
        <time>2015-09-20T11:33:32Z</time>
      </trkpt>
      <trkpt lat="44.54144" lon="4.30572">
        <ele>284.21</ele>
        <time>2015-09-20T11:33:40Z</time>
      </trkpt>
      <trkpt lat="44.54147" lon="4.30565">
        <ele>284.21</ele>
        <time>2015-09-20T11:33:41Z</time>
      </trkpt>
      <trkpt lat="44.54152" lon="4.30558">
        <ele>284.69</ele>
        <time>2015-09-20T11:33:42Z</time>
      </trkpt>
      <trkpt lat="44.54157" lon="4.30553">
        <ele>284.21</ele>
        <time>2015-09-20T11:33:43Z</time>
      </trkpt>
      <trkpt lat="44.54162" lon="4.30552">
        <ele>285.17</ele>
        <time>2015-09-20T11:33:44Z</time>
      </trkpt>
      <trkpt lat="44.54167" lon="4.30551">
        <ele>285.65</ele>
        <time>2015-09-20T11:33:45Z</time>
      </trkpt>
      <trkpt lat="44.54171" lon="4.30552">
        <ele>286.13</ele>
        <time>2015-09-20T11:33:46Z</time>
      </trkpt>
      <trkpt lat="44.54174" lon="4.30552">
        <ele>286.61</ele>
        <time>2015-09-20T11:33:47Z</time>
      </trkpt>
      <trkpt lat="44.54178" lon="4.30554">
        <ele>287.09</ele>
        <time>2015-09-20T11:33:48Z</time>
      </trkpt>
      <trkpt lat="44.5418" lon="4.30557">
        <ele>287.09</ele>
        <time>2015-09-20T11:33:49Z</time>
      </trkpt>
      <trkpt lat="44.54198" lon="4.30595">
        <ele>289.01</ele>
        <time>2015-09-20T11:33:58Z</time>
      </trkpt>
      <trkpt lat="44.54202" lon="4.306">
        <ele>289.49</ele>
        <time>2015-09-20T11:34:00Z</time>
      </trkpt>
      <trkpt lat="44.54221" lon="4.30587">
        <ele>290.94</ele>
        <time>2015-09-20T11:34:08Z</time>
      </trkpt>
      <trkpt lat="44.54215" lon="4.30578">
        <ele>290.94</ele>
        <time>2015-09-20T11:34:15Z</time>
      </trkpt>
      <trkpt lat="44.54214" lon="4.30579">
        <ele>290.46</ele>
        <time>2015-09-20T11:34:28Z</time>
      </trkpt>
    </trkseg>
  </trk>
</gpx>